[[{"header":{"parameterUnit":"m.s-1","parameterCategory":1,"la1":30.6,"la2":29.2853,"lo1":-89.7004,"lo2":-87.6739,"dy":0.0162,"dx":0.0183,"nx":112,"ny":82,"refTime":"2024-02-25T06:00:00:Z","depth":0,"parameterNumber":2,"parameterNumberName":"U-component_of_WINDS"},"data":[0.0,0.0,0.0,0.0,0.0,0.0,0.0,0.0,0.0,0.0,0.0,0.0,0.0,0.0,0.0,0.0,0.0,0.0,0.0,0.0,0.0,0.0,0.0,0.0,0.0,0.0,0.0,0.0,0.0,0.0,0.0,0.0,0.0,0.0,0.0,0.0,0.0,0.0,0.0,0.0,0.0,0.0,0.0,0.0,0.0,0.0,0.0,0.0,0.0,0.0,0.0,0.0,0.0,0.0,0.0,0.0,0.0,0.0,0.0,0.0,0.0,0.0,0.0,0.0,0.0,0.0,0.0,0.0,0.0,0.0,0.0,0.0,0.0,0.0,0.0,0.0,0.0,0.0,0.0,0.0,0.0,0.0,0.0,0.0,0.0,0.0,0.0,0.0,0.0,0.0,6.2793,6.2793,6.2898,6.2923,6.2805,6.2996,6.3081,6.2984,0.0,0.0,0.0,0.0,0.0,0.0,0.0,0.0,0.0,0.0,0.0,0.0,0.0,0.0,0.0,0.0,0.0,0.0,0.0,0.0,0.0,0.0,0.0,0.0,0.0,0.0,0.0,0.0,0.0,0.0,0.0,0.0,0.0,0.0,0.0,0.0,0.0,0.0,0.0,0.0,0.0,0.0,0.0,0.0,0.0,0.0,0.0,0.0,0.0,0.0,0.0,0.0,0.0,0.0,0.0,0.0,0.0,0.0,0.0,0.0,0.0,0.0,0.0,0.0,0.0,0.0,0.0,0.0,0.0,0.0,0.0,0.0,0.0,0.0,0.0,0.0,0.0,0.0,0.0,0.0,0.0,0.0,0.0,0.0,0.0,0.0,0.0,0.0,0.0,0.0,0.0,0.0,0.0,0.0,0.0,0.0,0.0,0.0,0.0,0.0,0.0,0.0,0.0,0.0,6.2793,6.2793,6.2811,6.2818,6.2793,6.283,6.2842,6.2824,0.0,0.0,0.0,0.0,0.0,0.0,0.0,0.0,0.0,0.0,0.0,0.0,0.0,0.0,0.0,0.0,0.0,0.0,0.0,0.0,0.0,0.0,0.0,0.0,0.0,0.0,0.0,0.0,0.0,0.0,0.0,0.0,0.0,0.0,0.0,0.0,0.0,0.0,0.0,0.0,0.0,0.0,0.0,0.0,0.0,0.0,0.0,0.0,0.0,0.0,0.0,0.0,0.0,0.0,0.0,0.0,0.0,0.0,0.0,0.0,0.0,0.0,0.0,0.0,0.0,0.0,0.0,0.0,0.0,0.0,0.0,0.0,0.0,0.0,0.0,0.0,0.0,0.0,0.0,0.0,0.0,0.0,0.0,0.0,0.0,0.0,0.0,0.0,0.0,0.0,0.0,0.0,0.0,0.0,0.0,0.0,0.0,0.0,0.0,0.0,0.0,0.0,0.0,6.2793,6.2793,6.2793,6.2793,6.2793,6.2793,6.2793,6.2793,6.2793,6.291,0.0,0.0,0.0,0.0,0.0,0.0,0.0,0.0,0.0,0.0,0.0,0.0,0.0,0.0,0.0,0.0,0.0,0.0,0.0,0.0,0.0,0.0,0.0,0.0,0.0,0.0,0.0,0.0,0.0,0.0,0.0,0.0,0.0,0.0,0.0,0.0,0.0,0.0,0.0,0.0,0.0,0.0,0.0,0.0,0.0,0.0,0.0,0.0,0.0,0.0,0.0,0.0,0.0,0.0,0.0,0.0,0.0,0.0,0.0,0.0,0.0,0.0,0.0,0.0,0.0,0.0,0.0,0.0,0.0,0.0,0.0,0.0,0.0,0.0,0.0,0.0,0.0,0.0,0.0,0.0,0.0,0.0,0.0,0.0,0.0,0.0,0.0,0.0,0.0,0.0,0.0,0.0,0.0,0.0,0.0,0.0,0.0,0.0,0.0,0.0,0.0,0.0,6.2793,6.2793,6.2793,6.2793,6.2793,6.2793,6.2793,6.2793,6.2793,6.2793,0.0,0.0,0.0,0.0,0.0,0.0,0.0,0.0,0.0,0.0,0.0,0.0,0.0,0.0,0.0,0.0,0.0,0.0,0.0,0.0,0.0,0.0,0.0,0.0,0.0,0.0,0.0,0.0,0.0,0.0,0.0,0.0,0.0,0.0,0.0,0.0,0.0,0.0,0.0,0.0,0.0,0.0,0.0,0.0,0.0,0.0,0.0,0.0,0.0,0.0,0.0,0.0,0.0,0.0,0.0,0.0,0.0,0.0,0.0,0.0,0.0,0.0,0.0,0.0,0.0,0.0,0.0,0.0,0.0,0.0,0.0,0.0,0.0,0.0,0.0,0.0,0.0,0.0,0.0,0.0,0.0,0.0,0.0,0.0,0.0,0.0,0.0,0.0,0.0,0.0,0.0,0.0,0.0,0.0,0.0,0.0,0.0,0.0,0.0,0.0,0.0,0.0,6.2793,6.2793,6.2793,6.2793,6.2793,6.2793,6.2793,6.2793,6.2793,6.2793,0.0,0.0,0.0,0.0,0.0,0.0,0.0,0.0,0.0,0.0,0.0,0.0,0.0,0.0,0.0,0.0,0.0,0.0,0.0,0.0,0.0,0.0,0.0,0.0,0.0,0.0,0.0,0.0,0.0,0.0,0.0,0.0,0.0,0.0,0.0,0.0,0.0,0.0,0.0,0.0,0.0,0.0,0.0,0.0,0.0,0.0,0.0,0.0,0.0,0.0,0.0,0.0,0.0,0.0,0.0,0.0,0.0,0.0,0.0,0.0,0.0,0.0,0.0,0.0,0.0,0.0,0.0,0.0,0.0,0.0,0.0,0.0,0.0,0.0,0.0,0.0,0.0,0.0,0.0,0.0,0.0,0.0,0.0,0.0,0.0,0.0,0.0,0.0,0.0,0.0,0.0,0.0,0.0,0.0,0.0,0.0,0.0,0.0,0.0,0.0,0.0,0.0,6.4371,6.4371,6.4371,6.3906,6.3613,6.3613,6.3123,6.2793,6.2793,0.0,0.0,0.0,0.0,0.0,0.0,0.0,0.0,0.0,0.0,0.0,0.0,0.0,0.0,0.0,0.0,0.0,0.0,0.0,0.0,0.0,0.0,0.0,0.0,0.0,0.0,0.0,0.0,0.0,0.0,0.0,0.0,0.0,0.0,0.0,0.0,0.0,0.0,0.0,0.0,0.0,0.0,0.0,0.0,0.0,0.0,0.0,0.0,0.0,0.0,0.0,0.0,0.0,0.0,0.0,0.0,0.0,0.0,0.0,0.0,0.0,0.0,0.0,0.0,0.0,0.0,0.0,0.0,0.0,0.0,0.0,0.0,0.0,0.0,0.0,0.0,0.0,0.0,0.0,0.0,0.0,0.0,0.0,0.0,0.0,0.0,0.0,0.0,0.0,0.0,0.0,0.0,0.0,0.0,0.0,0.0,0.0,0.0,0.0,0.0,0.0,0.0,6.5221,6.5288,6.5288,6.5288,6.4818,6.4494,6.4494,6.3937,6.349,6.3239,0.0,0.0,0.0,0.0,0.0,0.0,0.0,0.0,0.0,0.0,0.0,0.0,0.0,0.0,0.0,0.0,0.0,0.0,0.0,0.0,0.0,0.0,0.0,0.0,0.0,0.0,0.0,0.0,0.0,0.0,0.0,0.0,0.0,0.0,0.0,0.0,0.0,0.0,0.0,0.0,0.0,0.0,0.0,0.0,0.0,0.0,0.0,0.0,0.0,0.0,0.0,0.0,0.0,0.0,0.0,0.0,0.0,0.0,0.0,0.0,0.0,0.0,0.0,0.0,0.0,0.0,0.0,0.0,0.0,0.0,0.0,0.0,0.0,0.0,0.0,0.0,0.0,0.0,0.0,0.0,0.0,0.0,0.0,0.0,0.0,0.0,0.0,0.0,0.0,0.0,0.0,0.0,0.0,0.0,0.0,0.0,0.0,0.0,0.0,0.0,0.0,0.0,6.5325,6.5325,6.5325,6.5325,6.5325,6.5295,6.5295,6.5295,6.4964,0.0,0.0,0.0,0.0,0.0,0.0,0.0,0.0,0.0,0.0,0.0,0.0,0.0,0.0,0.0,0.0,0.0,0.0,0.0,0.0,0.0,0.0,0.0,0.0,0.0,0.0,0.0,0.0,0.0,0.0,0.0,0.0,0.0,0.0,0.0,0.0,0.0,0.0,0.0,0.0,0.0,0.0,0.0,0.0,0.0,0.0,0.0,0.0,0.0,0.0,0.0,0.0,0.0,0.0,0.0,0.0,0.0,0.0,0.0,0.0,0.0,0.0,0.0,0.0,0.0,0.0,0.0,0.0,0.0,0.0,0.0,0.0,0.0,0.0,0.0,0.0,0.0,0.0,0.0,0.0,0.0,0.0,0.0,0.0,0.0,0.0,0.0,0.0,0.0,0.0,0.0,0.0,0.0,0.0,0.0,0.0,0.0,0.0,0.0,0.0,0.0,0.0,0.0,6.6923,6.6996,6.6996,6.6996,6.6476,6.6145,6.6145,6.5625,6.5185,6.4964,0.0,0.0,0.0,0.0,0.0,0.0,0.0,0.0,0.0,0.0,0.0,0.0,0.0,0.0,0.0,0.0,0.0,0.0,0.0,0.0,0.0,0.0,0.0,0.0,0.0,0.0,0.0,0.0,0.0,0.0,0.0,0.0,0.0,0.0,0.0,0.0,0.0,0.0,0.0,0.0,0.0,0.0,0.0,0.0,0.0,0.0,0.0,0.0,0.0,0.0,0.0,0.0,0.0,0.0,0.0,0.0,0.0,0.0,0.0,0.0,0.0,0.0,0.0,0.0,0.0,0.0,0.0,0.0,0.0,0.0,0.0,0.0,0.0,0.0,0.0,0.0,0.0,0.0,0.0,0.0,0.0,0.0,0.0,0.0,0.0,0.0,0.0,0.0,0.0,0.0,0.0,0.0,0.0,0.0,0.0,0.0,0.0,0.0,0.0,0.0,0.0,0.0,6.7627,6.77,6.77,6.77,6.7253,6.6996,6.6996,6.6549,6.6109,6.5809,0.0,0.0,0.0,0.0,0.0,0.0,0.0,0.0,0.0,0.0,0.0,0.0,0.0,0.0,0.0,0.0,0.0,0.0,0.0,0.0,0.0,0.0,0.0,0.0,0.0,0.0,0.0,0.0,0.0,0.0,0.0,0.0,0.0,0.0,0.0,0.0,0.0,0.0,0.0,0.0,0.0,0.0,0.0,0.0,0.0,0.0,0.0,0.0,0.0,0.0,0.0,0.0,0.0,0.0,0.0,0.0,0.0,0.0,0.0,0.0,0.0,0.0,0.0,0.0,0.0,0.0,0.0,0.0,0.0,0.0,0.0,0.0,0.0,0.0,0.0,0.0,0.0,0.0,0.0,0.0,0.0,0.0,0.0,0.0,0.0,0.0,0.0,0.0,0.0,0.0,0.0,0.0,0.0,0.0,0.0,0.0,0.0,0.0,0.0,0.0,0.0,0.0,6.77,6.77,6.77,6.77,6.77,6.77,6.77,6.77,6.74,6.6666,0.0,0.0,0.0,0.0,0.0,0.0,0.0,0.0,0.0,0.0,0.0,0.0,0.0,0.0,0.0,0.0,0.0,0.0,0.0,0.0,0.0,0.0,0.0,0.0,0.0,0.0,0.0,0.0,0.0,0.0,0.0,0.0,0.0,0.0,0.0,0.0,0.0,0.0,0.0,0.0,0.0,0.0,0.0,0.0,0.0,0.0,0.0,0.0,0.0,0.0,0.0,0.0,0.0,0.0,0.0,0.0,0.0,0.0,0.0,0.0,6.1184,6.1727,0.0,0.0,0.0,0.0,0.0,0.0,0.0,0.0,0.0,0.0,0.0,0.0,0.0,0.0,0.0,0.0,0.0,0.0,0.0,0.0,0.0,0.0,0.0,0.0,0.0,0.0,0.0,0.0,0.0,0.0,0.0,0.0,0.0,0.0,0.0,0.0,0.0,0.0,0.0,0.0,6.77,6.77,6.77,6.77,6.77,6.77,6.77,6.77,6.7627,6.7437,6.6849,0.0,0.0,0.0,0.0,0.0,0.0,0.0,0.0,0.0,0.0,0.0,0.0,0.0,0.0,0.0,0.0,0.0,0.0,0.0,0.0,0.0,0.0,0.0,0.0,0.0,0.0,0.0,0.0,0.0,0.0,0.0,0.0,0.0,0.0,0.0,0.0,0.0,0.0,0.0,0.0,0.0,0.0,0.0,0.0,0.0,0.0,0.0,0.0,0.0,0.0,0.0,0.0,0.0,0.0,0.0,0.0,0.0,0.0,0.0,6.0651,6.1154,0.0,0.0,0.0,0.0,0.0,0.0,0.0,0.0,0.0,0.0,0.0,0.0,0.0,0.0,0.0,0.0,0.0,0.0,0.0,0.0,0.0,0.0,0.0,0.0,0.0,0.0,0.0,0.0,0.0,0.0,0.0,0.0,0.0,0.0,0.0,0.0,0.0,0.0,0.0,0.0,6.77,6.77,6.77,6.77,6.77,6.77,6.77,6.77,6.77,6.77,6.729,0.0,0.0,0.0,0.0,0.0,0.0,0.0,0.0,0.0,0.0,0.0,0.0,0.0,0.0,0.0,0.0,0.0,0.0,0.0,0.0,0.0,0.0,0.0,0.0,0.0,0.0,0.0,0.0,0.0,0.0,0.0,0.0,0.0,0.0,0.0,0.0,0.0,0.0,0.0,0.0,0.0,0.0,0.0,0.0,0.0,0.0,0.0,0.0,0.0,0.0,0.0,0.0,0.0,5.9004,5.9081,5.926,5.926,5.9336,5.952,6.0111,6.0512,6.0737,6.1286,0.0,0.0,0.0,0.0,0.0,0.0,0.0,0.0,0.0,0.0,0.0,0.0,0.0,0.0,0.0,0.0,0.0,0.0,0.0,0.0,0.0,0.0,6.554,6.6211,6.6363,6.6468,6.6852,0.0,0.0,0.0,0.0,0.0,0.0,0.0,0.0,0.0,0.0,0.0,6.7914,6.7811,6.77,6.77,6.77,6.77,6.77,6.77,6.77,6.77,6.77,6.7407,0.0,0.0,0.0,0.0,0.0,0.0,0.0,0.0,0.0,0.0,0.0,0.0,0.0,0.0,0.0,0.0,0.0,0.0,0.0,0.0,0.0,0.0,0.0,0.0,0.0,0.0,0.0,0.0,0.0,0.0,0.0,0.0,5.4486,5.4486,0.0,0.0,0.0,0.0,0.0,0.0,0.0,0.0,0.0,0.0,0.0,0.0,0.0,5.9004,5.9004,5.9004,5.9004,5.9004,5.9004,5.9012,5.9038,5.9038,5.9047,5.9089,5.9343,0.0,6.036,6.0564,0.0,0.0,0.0,0.0,0.0,0.0,0.0,0.0,0.0,0.0,0.0,0.0,0.0,0.0,0.0,0.0,0.0,0.0,0.0,0.0,0.0,0.0,6.5756,6.5871,6.5907,6.5923,6.595,6.6527,6.7054,6.721,6.7387,6.7744,0.0,0.0,0.0,0.0,0.0,0.0,6.8745,6.8134,6.77,6.77,6.77,6.77,6.77,6.77,6.77,6.77,6.77,6.7664,6.7554,6.7554,0.0,0.0,0.0,0.0,0.0,0.0,0.0,0.0,0.0,0.0,0.0,0.0,0.0,0.0,0.0,0.0,0.0,0.0,0.0,0.0,0.0,0.0,0.0,0.0,0.0,0.0,0.0,0.0,0.0,5.4866,5.5134,5.5134,5.5797,5.628,0.0,0.0,0.0,0.0,0.0,0.0,0.0,0.0,0.0,5.9004,5.9004,5.9004,5.9004,5.9004,5.9004,5.9004,5.9004,5.9004,5.9004,5.9004,5.9004,5.9004,5.9089,5.936,5.9773,6.0203,6.0623,6.0971,0.0,0.0,0.0,0.0,6.2407,6.2527,6.2732,6.2402,6.1907,6.2246,0.0,0.0,0.0,0.0,0.0,0.0,0.0,6.5284,6.5465,6.5261,6.5055,6.5147,6.5172,6.5372,6.5996,6.6483,6.6847,6.6822,6.7397,6.8069,6.8696,6.9247,0.0,0.0,0.0,6.9559,6.9559,6.9272,6.9052,6.9052,6.9052,6.9052,6.9052,6.8641,6.8385,6.8385,6.7958,6.77,6.77,6.77,6.7513,0.0,0.0,0.0,0.0,0.0,0.0,0.0,0.0,0.0,0.0,0.0,0.0,0.0,0.0,0.0,0.0,0.0,0.0,0.0,0.0,0.0,0.0,0.0,0.0,0.0,0.0,0.0,0.0,5.5237,5.5685,5.59,5.659,5.7081,0.0,0.0,0.0,0.0,0.0,0.0,5.9004,5.9004,5.9004,5.9004,5.9004,5.9004,5.9004,5.9004,5.9004,5.9004,5.9004,5.9004,5.9004,5.9004,5.9107,5.9314,5.9314,5.9495,5.9839,6.0163,6.0464,6.0709,6.1295,6.197,6.2502,6.247,6.2623,6.2874,6.2972,6.2656,6.2249,6.2424,6.2711,6.3043,6.321,0.0,0.0,0.0,0.0,6.511,6.4911,6.4602,6.4428,6.4761,6.4866,6.5154,6.6162,6.6545,6.6748,6.6921,6.7709,6.8486,6.9084,6.9718,0.0,7.0513,7.0308,7.0155,7.0227,7.0044,6.9912,6.9954,7.0033,7.0061,7.0061,6.9538,6.9112,6.8892,6.8348,6.7901,6.7647,6.7647,6.7559,6.7366,0.0,0.0,0.0,0.0,0.0,0.0,0.0,0.0,0.0,0.0,0.0,0.0,0.0,0.0,0.0,0.0,0.0,0.0,0.0,0.0,0.0,0.0,0.0,0.0,0.0,0.0,0.0,0.0,0.0,5.6633,5.7391,0.0,0.0,0.0,0.0,5.8926,5.8969,5.9004,5.9004,5.9004,5.9004,5.9004,5.9004,5.9004,5.9004,5.9004,5.9004,5.9004,5.9004,5.9004,5.9004,5.9004,5.9418,6.0151,6.0151,6.053,6.1143,6.0618,6.0605,6.106,6.1926,6.2273,6.2333,6.2524,6.2403,6.226,6.3021,6.2682,6.2031,6.2736,6.311,6.3325,6.3672,6.4208,0.0,0.0,6.4722,6.4454,6.4428,6.4314,6.4372,6.5103,6.5277,6.5486,6.6226,6.6565,6.6998,6.7994,6.8415,6.9004,7.0273,0.0,7.0617,7.157,7.0881,7.0371,7.0567,6.992,6.9492,6.9595,6.9806,6.9906,6.9906,6.9996,6.9706,6.8965,6.8855,6.8433,6.7534,6.749,6.7352,6.7048,6.6968,0.0,0.0,0.0,0.0,0.0,0.0,0.0,0.0,0.0,0.0,0.0,0.0,0.0,0.0,0.0,0.0,0.0,0.0,0.0,0.0,0.0,0.0,0.0,0.0,0.0,0.0,0.0,0.0,5.7444,5.8142,0.0,5.8625,5.8866,5.9004,5.9004,5.9004,5.9004,5.9004,5.9004,5.9004,5.9004,5.9004,5.9004,5.9004,5.9004,5.9004,5.9004,5.9004,5.928,5.9771,5.9771,6.0185,6.0909,6.0909,6.1047,6.1323,6.1636,6.1605,6.1432,6.1881,6.2333,6.2761,6.2829,6.304,6.3317,6.3595,6.3366,6.3058,6.3461,6.3611,6.3744,6.3974,6.4218,6.4393,6.4428,6.4261,6.4195,6.4673,6.464,6.4738,6.5602,6.5803,6.6049,6.6978,6.7246,6.7563,6.8556,6.8757,6.905,6.9781,7.0326,7.0823,7.1175,7.0911,7.0714,7.0778,7.0526,7.0445,7.061,7.0687,7.0847,7.1096,7.0696,7.0332,7.0135,6.9522,6.8786,6.7978,6.784,6.7353,6.6498,6.6491,6.6355,0.0,0.0,0.0,0.0,0.0,0.0,0.0,0.0,0.0,0.0,0.0,0.0,0.0,0.0,0.0,0.0,0.0,0.0,0.0,0.0,0.0,0.0,0.0,0.0,0.0,5.6884,5.7672,5.8144,5.8643,5.8935,5.8995,5.9004,5.9004,5.9004,5.9004,5.9004,5.9004,5.9004,5.9004,5.9004,5.9004,5.9004,5.9004,5.9004,5.9142,5.9383,5.9383,5.9762,6.0459,6.0459,6.0836,6.1461,6.1461,6.1608,6.1917,6.2442,6.2447,6.2091,6.2376,6.276,6.3194,6.3194,6.3451,6.3774,6.371,6.3563,6.3433,6.3554,6.3637,6.371,6.3847,6.3938,6.4061,6.4295,6.4264,6.4337,6.5098,6.5211,6.5328,6.6201,6.6402,6.6648,6.7588,6.7755,6.7951,6.8657,6.8876,6.9044,6.9479,6.9991,7.0388,7.0448,7.0406,7.0388,7.0448,7.0507,7.0617,7.082,7.1009,7.1248,7.1507,7.1161,7.0803,7.0558,6.9907,6.914,6.8274,6.8094,6.7526,6.6379,6.6073,6.5824,6.5635,0.0,0.0,0.0,0.0,0.0,0.0,0.0,0.0,0.0,0.0,0.0,0.0,0.0,0.0,0.0,0.0,0.0,0.0,0.0,0.0,0.0,0.0,0.0,5.725,5.7302,5.7688,5.8676,5.8805,5.884,5.897,5.8987,5.8987,5.8987,5.8987,5.8987,5.8987,5.8987,5.8987,5.8987,5.8987,5.8987,5.9021,5.9021,5.9401,6.0211,6.0211,6.051,6.1026,6.0991,6.1302,6.1854,6.1819,6.2273,6.3009,6.3009,6.3009,6.3047,6.3442,6.359,6.359,6.359,6.359,6.3563,6.3349,6.3161,6.3009,6.3009,6.3133,6.3274,6.3318,6.3458,6.3763,6.4512,6.4719,6.4901,6.5713,6.592,6.6137,6.6851,6.7024,6.7231,6.7945,6.8083,6.8152,6.8348,6.8714,6.9111,6.9507,6.9416,6.9351,6.9543,6.9406,0.0,6.9543,6.9733,6.9929,7.007,7.0585,7.0955,7.0963,7.1272,7.105,7.0073,7.0013,6.9501,6.838,6.832,6.7807,6.6737,6.5826,6.5345,6.5337,0.0,0.0,0.0,0.0,0.0,0.0,0.0,0.0,0.0,0.0,0.0,0.0,0.0,0.0,0.0,0.0,0.0,0.0,0.0,0.0,0.0,5.6528,5.6879,5.7127,5.7605,5.8127,5.8518,5.8578,5.8596,5.8648,5.8648,5.8648,5.8648,5.8771,5.8849,5.8849,5.8849,5.8849,5.8849,5.8718,5.8879,5.9444,5.9444,5.9821,6.0549,6.0549,6.0923,6.1552,6.1039,6.1465,6.2624,6.2112,6.2282,6.3009,6.3009,6.3009,6.3019,6.3133,6.317,6.317,6.317,6.317,6.317,6.3104,6.3057,6.3009,6.3009,6.3047,6.3188,6.3716,6.3926,6.4101,6.4854,6.5176,6.5474,6.6274,6.6607,6.6886,6.761,6.7807,6.7842,6.8049,6.8083,6.8103,6.8162,6.826,6.8474,6.8885,6.8904,6.8895,6.8951,6.8904,6.8895,6.8951,6.9174,6.9377,6.9525,6.9813,7.0105,7.041,7.0485,7.0499,7.036,7.0079,6.9586,6.8828,6.8536,6.7895,6.6936,6.6532,6.6258,0.0,0.0,0.0,0.0,0.0,0.0,0.0,0.0,0.0,0.0,0.0,0.0,0.0,0.0,0.0,0.0,0.0,0.0,0.0,0.0,0.0,0.0,5.707,5.7318,5.7425,5.7791,5.8169,5.8357,5.8384,5.8419,5.8499,5.8499,5.8499,5.8499,5.8605,5.8666,5.8666,5.8957,5.9128,5.9128,5.933,5.9643,6.0069,6.0069,6.0419,6.1171,6.1171,6.1534,6.2175,6.1722,6.1991,6.2717,6.2308,6.2342,6.2751,6.2751,6.2751,6.277,0.0,0.0,0.0,0.0,6.2952,6.2876,6.2876,6.2818,6.2785,6.3115,6.3276,6.348,6.422,6.4483,6.4713,6.543,6.5734,6.6038,6.6846,6.7177,6.7438,6.7886,6.8024,6.8083,6.8083,6.8083,6.8083,6.8083,6.8083,0.0,6.8406,6.8455,6.8455,6.8455,6.8455,6.8455,6.8455,6.8714,6.8967,6.9045,6.9388,6.9688,6.9947,6.9964,0.0,0.0,0.0,6.9323,6.8883,6.834,0.0,0.0,0.0,6.6535,6.6415,6.6331,0.0,0.0,6.4771,6.4322,0.0,0.0,0.0,0.0,0.0,0.0,0.0,0.0,0.0,0.0,0.0,0.0,0.0,0.0,0.0,0.0,5.7476,5.7891,5.7891,5.7891,5.7963,5.8126,5.8187,5.825,5.8419,5.8437,5.8437,5.8437,5.8523,5.86,5.86,5.9299,0.0,0.0,0.0,6.0696,6.0764,6.0764,6.114,6.1856,6.1856,6.2137,6.2654,6.2576,6.2489,6.2391,6.2323,6.2323,6.2391,6.2391,6.2391,6.243,6.2799,6.2943,6.2943,6.2943,6.2886,6.278,6.278,0.0,0.0,6.3419,6.3752,6.4013,6.4771,6.5095,6.5395,6.6155,6.638,6.6571,6.7274,6.7608,6.7769,6.7799,6.7949,6.8054,6.8083,6.8083,6.8083,6.8083,6.8083,6.8083,6.798,6.8049,6.8083,6.8083,6.8083,6.8083,6.8083,6.8366,6.8572,6.8676,6.9106,0.0,6.9498,6.9498,6.9425,6.925,6.9073,6.8885,6.8676,6.805,6.7702,6.7674,6.6978,6.6621,6.6593,6.6406,6.6286,6.6183,6.5465,6.462,0.0,0.0,0.0,0.0,0.0,0.0,0.0,0.0,0.0,0.0,0.0,0.0,0.0,0.0,0.0,5.7559,5.7823,5.7891,5.7891,5.7891,5.7909,5.7945,5.7954,5.7963,5.8,5.8009,5.8009,5.8009,5.8713,5.9159,5.9159,5.984,6.0257,6.0257,6.0235,6.0532,6.1167,6.1167,6.1549,6.2271,6.2271,0.0,6.2449,6.183,6.1878,6.2357,6.1772,6.1839,6.2391,6.2391,6.2391,6.24,6.2489,6.2508,6.2508,6.2508,6.2885,6.3344,6.3344,6.3696,6.4208,6.4343,6.4397,6.4573,6.5328,6.5562,0.0,6.6487,6.686,6.7072,6.7219,6.7417,6.7587,6.7759,6.7839,6.7909,6.8054,6.8083,6.8083,6.8083,6.8083,6.7911,6.7334,6.7714,6.8083,6.8083,6.8083,6.8083,6.8083,6.779,6.7806,6.8386,6.8167,6.8232,6.8815,6.8885,6.8866,6.8828,6.8791,6.8676,6.8465,6.848,6.841,6.8247,6.8108,6.7917,6.7787,6.7748,6.7418,6.6796,6.6081,6.5293,0.0,0.0,0.0,0.0,0.0,0.0,0.0,0.0,0.0,0.0,0.0,5.5194,5.6079,0.0,5.6953,5.7502,5.768,5.7781,5.7881,5.7891,5.7891,5.7891,5.7891,5.7891,5.7891,5.822,5.8457,5.8457,5.9217,5.9713,5.9713,6.0425,6.0866,6.0866,6.1109,6.1443,6.1839,6.1839,6.2052,6.2391,6.2391,6.2391,6.2391,6.2405,6.2608,6.2956,6.2956,6.3159,6.3507,6.3507,6.3507,6.3507,6.3507,6.3294,6.2956,6.2956,6.3419,6.4062,6.4062,6.4299,6.4647,6.503,6.5165,6.53,6.6034,6.6237,6.6339,6.67,6.6886,6.7014,6.7014,6.718,6.7387,6.7489,6.7567,6.7606,6.7438,6.7419,6.731,6.7039,6.6989,6.6886,6.6506,6.6748,6.6989,6.6989,6.6989,6.6989,6.6989,6.6862,6.6891,6.7263,6.714,6.7201,6.7575,6.7854,6.7958,6.7862,6.8198,6.8348,6.825,6.8348,6.8348,6.8241,6.8241,6.8192,6.8083,6.8083,6.7911,6.7532,6.7162,6.6403,0.0,0.0,0.0,0.0,0.0,0.0,0.0,5.1691,5.2826,5.3595,5.4378,5.5188,5.5909,5.6463,5.6882,5.7082,5.7327,5.7551,5.7753,5.7818,5.7913,5.8084,5.7992,5.7958,5.8094,5.865,5.9056,5.9191,5.9902,6.0317,6.0317,6.1095,6.1501,6.1501,6.2086,6.2391,6.2391,6.2391,6.2458,6.2618,6.2618,6.2695,6.2864,6.3419,6.3714,6.3758,6.4333,6.4613,6.4613,6.4613,6.4613,6.4613,6.4613,6.4333,6.3893,6.3758,6.4164,6.4816,6.4816,6.4918,6.5121,6.574,6.5909,6.6,6.6633,6.6802,6.6802,6.6802,6.6802,6.6768,6.6633,6.6745,6.6867,6.6772,6.6882,6.6895,6.6499,6.6475,6.6348,6.5937,6.5866,6.5851,6.5679,6.5688,6.5713,6.5895,6.5895,6.5895,6.5895,6.5899,6.5968,6.6142,6.6153,6.622,6.6359,6.679,6.6965,6.6792,6.7472,6.7886,6.7886,6.8014,6.8083,6.8083,6.8083,6.8083,6.8083,6.8083,6.8083,6.8083,6.8083,6.7403,4.7833,4.9013,5.0081,4.9874,5.0549,5.1214,0.0,5.1851,5.2712,5.2839,5.3861,5.4807,5.5087,5.5668,5.6188,5.6394,5.6772,5.7139,5.7336,5.7523,5.7925,5.8767,5.8287,5.8161,5.8819,5.8945,5.9259,5.9945,6.0723,6.1163,6.1163,6.1873,6.2289,6.2289,6.2357,6.2391,6.2391,6.2391,6.2719,6.3386,6.3386,6.3724,6.4377,6.4444,6.4478,6.4468,6.4546,6.4613,6.4613,6.4613,6.4613,6.4613,6.4613,6.4952,6.5368,6.4715,6.4952,6.5571,6.5571,6.6,6.6565,6.6667,6.6667,6.67,6.6768,6.6802,6.6802,6.6802,6.6802,6.6633,6.6,6.5862,6.5765,6.527,6.5171,6.5251,6.5411,6.5598,6.5725,6.5641,6.5771,6.5679,6.4945,6.4841,6.5092,6.5782,6.5895,6.5895,6.5895,6.5284,6.5155,6.5864,6.5321,6.5193,6.5927,6.6012,6.6052,6.6033,6.6723,6.7127,6.7127,6.7748,6.8083,6.8083,6.8083,6.8083,6.8083,6.8083,6.8083,6.8083,6.8083,6.7679,4.8749,4.947,5.0007,5.0334,5.0964,5.1502,5.1435,5.2211,5.2917,5.2917,5.355,5.4136,5.4232,5.4778,5.5304,5.5517,5.6388,5.7192,5.7533,5.8217,5.8887,5.9414,5.9295,5.9302,5.9597,6.0071,6.0477,6.0791,6.1501,6.1941,6.1941,6.2221,6.2391,6.2391,6.2391,6.2391,6.2391,6.2391,6.256,6.2854,6.2854,6.3024,6.3338,6.3758,6.4197,6.4613,6.4613,6.4613,6.4613,6.4613,6.4613,6.4613,6.4613,6.4783,6.5053,6.5199,6.5696,6.6339,6.6339,6.6531,6.6802,6.6802,6.6802,6.6734,6.6305,6.617,6.6068,6.5652,6.5517,6.5449,6.5121,6.5063,6.5006,6.4769,6.4722,6.468,6.4458,6.4498,6.4488,6.4319,6.433,6.4331,6.4098,6.4057,6.4152,6.4506,6.4575,6.4575,6.4575,6.4264,6.4186,6.454,6.4264,6.4195,6.454,6.4954,6.5196,6.5196,6.592,6.6368,6.6368,6.6644,6.7024,6.7438,6.7472,6.7669,6.8083,6.8083,6.8083,6.8083,6.8083,6.7911,4.9704,5.0123,5.0369,5.0851,5.1467,5.199,5.199,5.2504,5.2997,5.2997,5.3277,5.352,5.352,5.4008,5.455,5.4899,5.5945,5.6986,5.7642,5.8635,5.9468,5.9967,6.0247,6.052,6.0723,6.1095,6.139,6.1603,6.212,6.2391,6.2391,6.2391,6.2391,6.2391,6.2391,6.2391,6.2391,6.2391,6.2492,6.2685,6.2685,6.283,6.3033,6.3555,6.4096,6.4613,6.4613,6.4613,6.4613,6.4613,6.4613,6.4613,6.4613,6.4613,6.4647,6.5199,6.573,6.6193,6.6193,6.6193,6.6193,6.6193,6.6193,6.6092,6.5561,6.5402,6.53,6.4749,6.4613,6.4546,6.4343,6.4309,6.4241,6.4038,6.4005,6.3886,6.3493,6.3469,6.3417,6.3169,6.317,6.3255,6.3414,6.3489,6.3516,6.3516,6.3572,6.3609,6.3609,6.3609,6.3609,6.3609,6.3609,6.3609,6.3609,6.4083,6.4402,6.4402,6.5127,6.5575,6.5575,6.5792,6.6162,6.6679,6.6689,6.6955,6.7507,6.7507,6.7507,6.7507,6.7507,6.7507,5.0493,5.1128,5.1641,5.1652,5.2164,5.2687,5.2687,5.2687,5.2698,5.2698,5.2942,5.3131,5.3131,5.3463,5.3988,5.469,5.5386,5.6242,5.7343,5.8275,5.9259,6.0431,6.0978,6.1535,6.2255,6.1704,6.1603,6.2323,6.2391,6.2391,6.2391,6.2391,6.2391,6.2391,6.2391,6.2391,6.2391,6.2391,6.2753,6.3477,6.3477,6.3825,6.4546,6.4546,6.458,6.4613,6.4613,6.4613,6.4613,6.4613,6.4613,6.4613,6.4613,6.4613,6.4613,6.4613,6.4647,6.4681,6.4681,6.4681,6.4681,6.4681,6.4681,6.4647,6.4647,6.4647,6.4647,6.4613,6.4613,6.4444,6.3724,6.3511,6.3352,6.2627,6.2458,6.2458,6.2434,6.2581,6.2717,6.2736,6.2876,6.3019,6.3028,6.318,6.3302,6.3302,6.3479,6.3609,6.3609,6.3609,6.3609,6.3609,6.3609,6.3609,6.3609,6.3609,6.3643,6.3643,6.4324,6.4738,6.4738,6.5472,6.593,6.593,6.593,6.593,6.5964,6.5964,6.5964,6.5964,6.5964,6.5964,5.119,5.1528,5.1794,5.2256,5.2533,5.2687,5.2687,5.2687,5.2687,5.2687,5.2754,5.2976,5.3427,5.3748,5.419,5.4895,5.5974,5.6934,5.7489,5.8884,6.0111,6.0797,6.1388,6.1929,6.2347,6.2188,6.212,6.2391,6.2391,6.2391,6.2391,6.2391,6.2391,6.2391,6.2391,6.2391,6.2391,6.2391,6.2526,6.2753,6.2753,6.2888,6.3135,6.3135,6.3135,6.3135,6.3135,6.3135,6.3135,6.3135,6.3135,6.3135,6.3135,6.3135,6.3135,6.3135,6.3135,6.327,6.4275,6.4613,6.4613,6.4613,6.4613,6.4512,6.4028,6.3859,6.3758,6.3294,6.3135,6.3091,6.2821,6.2753,6.2719,6.2458,6.2391,6.2391,6.2391,6.244,6.2528,6.2654,6.2741,6.2837,6.2981,6.3057,6.3142,6.3274,6.347,6.3609,6.3609,6.3609,6.3609,6.3609,6.3609,6.3609,6.3609,6.3609,6.3609,6.3609,6.3841,6.3988,6.3988,6.423,6.4609,6.5083,6.5092,6.5368,6.5895,6.5895,6.5895,6.5895,6.5895,6.5895,5.1898,5.2071,5.2164,5.2595,5.2687,5.2687,5.2687,5.2687,5.2687,5.2687,5.2902,5.321,5.3629,5.4044,5.4529,5.5209,5.615,5.7021,5.7627,5.8931,6.0087,6.0716,6.137,6.1887,6.2209,6.2351,6.2391,6.2391,6.2391,6.2391,6.2391,6.2391,6.2391,6.2391,6.2391,6.2391,6.2391,6.2391,6.2391,6.2391,6.2391,6.2391,6.2391,6.2391,6.2391,6.2391,6.2391,6.2391,6.2391,6.2391,6.2391,6.2391,6.2391,6.2391,6.2391,6.2391,6.2391,6.2526,6.3507,6.3802,6.3802,6.3802,6.3802,6.3734,6.325,6.3115,6.3024,6.2526,6.2391,6.2391,6.2391,6.2391,6.2391,6.2391,6.2391,6.2391,6.2391,6.2391,6.243,6.2557,6.2576,6.2625,6.276,6.2847,6.2962,6.3161,6.3358,6.3526,6.36,6.3609,6.3609,6.3609,6.3609,6.3609,6.3609,6.3609,6.3609,6.3609,6.3609,6.3609,6.3609,6.3609,6.3816,6.4289,6.4324,6.4575,6.5092,6.5092,6.5092,6.5092,6.5092,6.5054,5.2533,5.2687,5.2687,5.2687,5.2687,5.2687,5.2687,5.2687,5.2718,5.2737,5.326,5.3722,5.3783,5.4306,5.4952,5.5665,5.597,5.656,5.7695,5.8441,5.9254,6.0271,6.0917,6.1496,6.1951,6.2257,6.2395,6.2371,6.2381,6.2391,6.2391,6.2391,6.2391,6.2391,6.2391,6.2391,6.2391,6.2391,6.2391,6.2391,6.2391,6.2391,6.2391,6.2391,6.2391,6.2391,6.2391,6.2391,6.2391,6.2391,6.2391,6.2391,6.2391,6.2391,6.2391,6.2391,6.2391,6.2391,6.2391,6.2391,6.2391,6.2391,6.2391,6.2391,6.2391,6.2391,6.2391,6.2391,6.2391,6.2391,6.2391,6.2391,6.2391,6.2391,6.2391,6.2391,6.2391,6.2391,6.2391,6.2391,6.2391,6.2391,6.2391,6.2591,6.2819,6.2996,6.3254,6.3452,6.3563,6.36,6.3609,6.3643,6.3678,6.3678,6.3712,6.3712,6.3712,6.3712,6.3712,6.3712,6.3712,6.3712,6.3712,6.3712,6.3712,6.3703,6.3694,6.3659,6.3659,6.3606,6.3572,6.347,5.2656,5.2687,5.2687,5.2687,5.2687,5.2687,5.2687,5.2687,5.2841,5.3322,5.3568,5.401,5.5007,5.5345,5.5684,5.6385,5.6693,5.6958,5.7275,5.8096,5.9019,5.9994,6.0859,6.156,6.2037,6.2464,6.2535,6.2144,6.2302,6.2391,6.2391,6.2391,6.2391,6.2391,6.2391,6.2391,6.2391,6.2391,6.2391,6.2391,6.2391,6.2391,6.2391,6.2391,6.2391,6.2391,6.2391,6.2391,6.2391,6.2391,6.2391,6.2391,6.2391,6.2391,6.2391,6.2391,6.2391,6.2391,6.2391,6.2391,6.2391,6.2391,6.2391,6.2391,6.2391,6.2391,6.2391,6.2391,6.2391,6.2391,6.2391,6.2391,6.2391,6.2391,6.2391,6.2391,6.2391,6.2391,6.2391,6.2391,6.2391,6.2391,6.2391,6.3032,6.3528,6.3577,6.423,6.4399,6.3477,6.3507,6.3816,6.4358,6.4427,6.4669,6.5265,6.5309,6.5309,6.5309,6.5309,6.5309,6.5309,6.5309,6.5309,6.5309,6.5309,6.5223,6.5017,6.4467,6.4107,6.3954,6.3391,6.3133,5.2687,5.2687,5.2687,5.2687,5.2687,5.2687,5.2687,5.2933,5.326,5.3629,5.4164,5.4822,5.5561,5.5942,5.6324,5.6736,5.6875,5.7007,5.7072,5.7832,5.8742,5.9714,6.0374,6.1021,6.1729,6.1932,6.1981,6.187,6.2213,6.2391,6.2391,6.2391,6.2391,6.2391,6.2391,6.2391,6.2391,6.2391,6.2391,6.2391,6.2391,6.2391,6.2391,6.2391,6.2391,6.2391,6.2391,6.2391,6.2391,6.2391,6.2391,6.2391,6.2391,6.2391,6.2391,6.2391,6.2391,6.2391,6.2391,6.2391,6.2391,6.2391,6.2391,6.2391,6.2391,6.2391,6.2391,6.2391,6.2391,6.2391,6.2391,6.2391,6.2492,6.2821,6.2888,6.2956,6.3304,6.3372,6.3372,6.3372,6.3372,6.3372,6.3372,6.38,6.4141,6.4141,6.466,6.4805,6.4103,6.4244,6.4568,6.4876,6.4987,6.5187,6.5548,6.5607,6.5607,6.5607,6.5694,6.5707,6.5707,6.5838,6.5847,6.5751,6.5707,6.5601,6.5378,6.4967,6.4693,6.4576,6.4152,6.3908,5.2687,5.2687,5.2687,5.2687,5.2779,5.2841,5.2841,5.3353,5.3845,5.3937,5.4884,5.5727,5.5819,5.6354,5.6798,5.6798,5.6798,5.6901,5.7167,5.7711,5.8465,5.9419,5.9769,6.0243,6.1097,6.104,6.114,6.1537,6.2014,6.2302,6.2391,6.2391,6.2391,6.2391,6.2391,6.2391,6.2391,6.2391,6.2391,6.2391,6.2492,6.256,6.256,6.2661,6.2695,6.2695,6.2594,6.256,6.2526,6.2424,6.2391,6.2391,6.2391,6.2391,6.2391,6.2391,6.2458,6.256,6.256,6.2627,6.2661,6.2458,6.2391,6.2391,6.2391,6.2458,6.256,6.256,6.2627,6.2695,6.2695,6.2695,6.2854,6.3487,6.3656,6.3825,6.4478,6.4613,6.4613,6.4613,6.4613,6.4613,6.4613,6.4681,6.4749,6.4749,6.4979,6.5134,6.5134,6.5323,6.5441,6.5347,6.5495,6.5578,6.5518,6.5508,6.5508,6.5508,6.5686,6.575,6.575,6.5978,6.5988,6.5759,6.575,6.5676,6.5468,6.5356,6.5278,6.5248,6.518,6.5032,5.2687,5.2687,5.2687,5.2687,5.3118,5.3537,5.3537,5.406,5.4676,5.5253,5.5542,5.5881,5.652,5.6705,5.6798,5.6798,5.6798,5.6994,5.7586,5.7911,5.8385,5.917,5.9683,5.9957,5.9913,6.0413,6.0794,6.0866,6.1311,6.1834,6.2361,6.2391,6.2391,6.2391,6.2391,6.2391,6.2391,6.2391,6.2391,6.2391,6.3024,6.3318,6.3318,6.3937,6.4208,6.4174,6.3555,6.3318,6.325,6.2651,6.2391,6.2391,6.2391,6.2391,6.2391,6.2391,6.2787,6.3318,6.3318,6.3724,6.4005,6.2797,6.2391,6.2391,6.2391,6.2821,6.3318,6.3318,6.3758,6.4208,6.4208,6.4208,6.4241,6.4377,6.44,6.4434,6.458,6.4613,6.4613,6.4613,6.4613,6.4613,6.4613,6.5121,6.5503,6.5503,6.6065,6.6482,6.6482,6.5776,6.5479,6.6055,6.6153,6.6412,6.7031,6.71,6.71,6.71,6.713,6.716,6.716,6.7201,6.7201,6.716,6.716,6.7049,6.6858,6.6201,6.577,6.5616,6.4996,6.4705,5.2687,5.2687,5.2779,5.3137,5.3445,5.3783,5.4153,5.4749,5.5303,5.5634,5.6016,5.6385,5.6736,5.6798,5.6921,5.726,5.7321,5.7555,5.8233,5.869,5.9043,5.9191,5.9438,5.956,5.9466,5.953,5.9809,6.0303,6.0686,6.1219,6.1981,6.213,6.2249,6.2391,6.2753,6.2956,6.2956,6.3362,6.3531,6.3531,6.3903,6.4062,6.4096,6.4444,6.4613,6.458,6.4231,6.4062,6.4038,6.37,6.3531,6.3531,6.3531,6.3531,6.3531,6.3531,6.3768,6.4062,6.4062,6.4299,6.4478,6.3768,6.3531,6.3531,6.3531,6.3802,6.4062,6.4062,6.4343,6.4613,6.4613,6.4613,6.4681,6.5097,6.5459,6.5753,6.5753,6.5753,6.5753,6.5753,6.5753,6.5753,6.5753,6.6034,6.6271,6.6271,6.6565,6.6802,6.6802,6.637,6.6164,6.6527,6.6685,6.6875,6.7102,6.7136,6.7136,6.7136,6.7274,6.7346,6.7346,6.7458,6.7458,6.7346,6.7346,6.7232,6.7003,6.6586,6.6365,6.6271,6.5922,6.5753,5.2687,5.281,5.3056,5.3568,5.3918,5.4287,5.4799,5.5438,5.5942,5.5942,5.6385,5.6798,5.6798,5.6921,5.7198,5.7709,5.7925,5.8264,5.8929,5.9329,5.9466,5.9154,5.8993,5.8879,5.8822,5.8547,5.8737,5.9641,6.0228,6.0959,6.1893,6.2156,6.2443,6.2854,6.3419,6.3758,6.3758,6.4309,6.4613,6.4613,6.4749,6.485,6.485,6.4986,6.5087,6.5053,6.4884,6.485,6.4816,6.4681,6.4613,6.4613,6.4613,6.4613,6.4613,6.4613,6.4681,6.485,6.485,6.4952,6.5087,6.5087,6.485,6.4613,6.4613,6.4715,6.485,6.485,6.4952,6.5087,6.5087,6.5087,6.5222,6.5808,6.6373,6.6802,6.6802,6.6802,6.6802,6.6802,6.6802,6.6802,6.6802,6.6802,6.6802,6.6802,6.6802,6.6802,6.6802,6.6802,6.6802,6.6802,6.7003,6.7035,6.6812,6.6802,6.6802,6.6802,6.7014,6.7108,6.7108,6.7274,6.7294,6.7118,6.7108,6.7024,6.6802,6.6802,6.6802,6.6802,6.6802,6.6802,5.2687,5.3137,5.3629,5.3691,5.4626,5.553,5.5592,5.6158,5.6705,5.6705,5.6767,5.6798,5.6798,5.729,5.7722,5.7771,5.8325,5.8941,5.9606,5.9236,5.8879,5.8843,5.8301,5.7776,5.7354,5.7491,5.7898,5.869,6.0177,6.1534,6.2639,6.2939,6.3488,6.4367,6.4478,6.4512,6.4512,6.458,6.4613,6.4613,6.5266,6.5605,6.5605,6.6294,6.6599,6.6565,6.5899,6.5605,6.5537,6.4884,6.4613,6.4613,6.4613,6.4613,6.4613,6.4613,6.5019,6.5605,6.5605,6.6034,6.6599,6.6599,6.5686,6.4613,6.4613,6.5053,6.5605,6.5605,6.6068,6.6599,6.6599,6.6599,6.6599,6.6667,6.6768,6.6802,6.6802,6.6802,6.6802,6.6802,6.6802,6.6802,6.6802,6.6802,6.6802,6.6802,6.6802,6.6802,6.6802,6.6802,6.6802,6.6802,6.6812,6.6823,6.6802,6.6802,6.6802,6.6802,6.6812,6.6833,6.6833,6.6854,6.6854,6.6833,6.6833,6.6823,6.6802,6.6802,6.6802,6.6802,6.6802,6.6802,5.321,5.3506,5.3876,5.4687,5.5326,5.5819,5.6262,5.6582,5.6798,5.6798,5.6798,5.6921,5.7321,5.7617,5.8048,5.8867,5.9236,5.9637,6.0301,5.9821,5.9236,5.8836,5.8202,5.7622,5.7165,5.7191,5.7817,5.9168,6.0799,6.2344,6.3619,6.3529,6.3745,6.4399,6.4958,6.5266,6.5266,6.5696,6.5922,6.5922,6.6237,6.6373,6.6373,6.6667,6.6802,6.6768,6.6508,6.6373,6.6339,6.6058,6.5922,6.5922,6.5922,6.5922,6.5922,6.5922,6.6102,6.6373,6.6373,6.6531,6.6802,6.6802,6.6396,6.5922,6.5922,6.6136,6.6373,6.6373,6.6565,6.6802,6.6802,6.6802,6.6802,6.6802,6.6802,6.6802,6.6802,6.6802,6.6802,6.6802,6.6802,6.6802,6.6802,6.6802,6.6802,6.6802,6.6802,6.6802,6.6802,6.6802,6.6802,6.6802,6.6802,6.6802,6.6802,6.6802,6.6802,6.6802,6.6802,6.6802,6.6802,6.6802,6.6802,6.6802,6.6802,6.6802,6.6802,6.6802,6.6802,6.6802,6.6802,6.6802,5.3814,5.4122,5.4503,5.5468,5.585,5.617,5.6674,5.6798,5.6798,5.6798,5.6952,5.7229,5.7709,5.811,5.8695,0.0,5.9975,6.024,6.0732,6.0068,5.9329,5.8849,5.8017,5.7382,5.7026,5.7337,5.823,5.9835,6.1349,6.2768,6.4099,6.4133,6.4408,6.5032,6.5681,6.6045,6.6045,6.6531,6.6802,6.6802,6.6802,6.6802,6.6802,6.6802,6.6802,6.6802,6.6802,6.6802,6.6802,6.6802,6.6802,6.6802,6.6802,6.6802,6.6802,6.6802,6.6802,6.6802,6.6802,6.6802,6.6802,6.6802,6.6802,6.6802,6.6802,6.6802,6.6802,6.6802,6.6802,6.6802,6.6802,6.6802,6.6802,6.6802,6.6802,6.6802,6.6802,6.6802,6.6802,6.6802,6.6802,6.6802,6.6802,6.6802,6.6802,6.6802,6.6802,6.6802,6.6802,6.6802,6.6802,6.6802,6.6802,6.6802,6.6802,6.6802,6.6802,6.6802,6.6802,6.6802,6.6802,6.6802,6.6802,6.6802,6.6802,6.6802,6.6802,6.6802,6.6802,6.6802,6.6802,6.6802,5.451,5.518,5.5684,5.5696,5.6262,5.6798,5.6798,5.6798,5.6798,5.6798,5.7321,5.7771,5.7802,5.8867,5.9791,5.9791,0.0,6.0794,6.0794,5.9637,5.8805,5.8818,5.7617,5.6798,5.6798,5.7887,5.9142,6.0509,6.1602,6.271,6.385,6.483,6.5812,6.6736,6.6768,6.6802,6.6802,6.6802,6.6802,6.6802,6.6802,6.6802,6.6802,6.6802,6.6802,6.6802,6.6802,6.6802,6.6802,6.6802,6.6802,6.6802,6.6802,6.6802,6.6802,6.6802,6.6802,6.6802,6.6802,6.6802,6.6802,6.6802,6.6802,6.6802,6.6802,6.6802,6.6802,6.6802,6.6802,6.6802,6.6802,6.6802,6.6802,6.6802,6.6802,6.6802,6.6802,6.6802,6.6802,6.6802,6.6802,6.6802,6.6802,6.6802,6.6802,6.6802,6.6802,6.6802,6.6802,6.6802,6.6802,6.6802,6.6802,6.6802,6.6802,6.6802,6.6802,6.6802,6.6802,6.6802,6.6802,6.6802,6.6802,6.6802,6.6802,6.6802,6.6802,6.6802,6.6802,6.6802,6.6802,6.6802,5.5087,5.553,5.5819,5.6324,5.6644,5.6798,5.6798,5.6798,5.6798,5.6798,5.734,5.7925,5.8387,5.9206,5.9945,6.0393,6.0671,6.064,6.0191,5.936,5.8633,5.8171,5.774,5.7463,5.7463,5.9005,6.0227,6.0838,6.2413,6.3738,6.4592,6.5415,6.6009,6.63,6.6643,6.6802,6.6802,6.6802,6.6802,6.6802,6.6802,6.6802,6.6802,6.6802,6.6802,6.6802,6.6802,6.6802,6.6802,6.6802,6.6802,6.6802,6.6802,6.6802,6.6802,6.6802,6.6802,6.6802,6.6802,6.6802,6.6802,6.6802,6.6802,6.6802,6.6802,6.6802,6.6802,6.6802,6.6802,6.6802,6.6802,6.6802,6.6802,6.6802,6.6802,6.6802,6.6802,6.6802,6.6802,6.6802,6.6802,6.6802,6.6802,6.6802,6.6802,6.6802,6.6802,6.6802,6.6802,6.6802,6.6802,6.6802,6.6802,6.6802,6.6802,6.6802,6.6802,6.6802,6.6802,6.6802,6.6802,6.6802,6.6802,6.6802,6.6802,6.7039,6.7557,6.7557,6.7827,6.8358,6.8358,6.8358,5.5819,5.6108,5.6231,5.6705,5.6798,5.6798,5.6798,5.6798,5.6859,5.7136,5.7709,5.8387,5.9052,5.9729,6.0301,6.0732,6.0794,6.0578,5.987,5.9206,5.8541,5.7863,5.7802,5.7986,5.851,5.97,6.0652,6.1208,6.2546,6.367,6.4451,6.518,6.5647,6.5823,6.6473,6.676,6.6675,6.6709,6.6709,6.6709,6.6709,6.6717,6.6802,6.6802,6.6802,6.6802,6.6802,6.6802,0.0,6.6802,6.6971,6.7208,6.7208,6.7411,6.7681,6.7681,6.7681,6.7681,6.7681,6.7681,6.7681,6.7681,6.7681,6.7681,6.7681,6.7275,6.6802,6.6802,6.6802,6.6802,6.6802,6.6802,6.6802,6.6802,6.6802,6.6802,6.6802,6.6802,6.6802,6.6802,6.6802,6.6802,6.6802,6.6802,6.6802,6.6802,6.6802,6.6802,6.6802,6.6802,6.6802,6.6802,6.6802,6.6903,6.7174,6.6971,6.6802,6.6802,6.7072,6.7208,6.7208,6.7512,6.7681,6.7681,6.7681,6.7884,6.8335,6.8335,6.8605,6.9113,6.9113,6.9113,0.0,5.6798,5.6798,5.6798,5.6798,5.6798,5.6798,5.6828,0.0,5.7678,5.8387,5.9052,5.9698,6.0332,6.0794,6.0794,6.0763,6.0486,5.9821,5.9144,5.851,5.7863,5.7894,5.8448,5.9667,6.0094,6.0638,6.1538,6.211,6.2764,6.3544,6.4286,6.4896,6.5347,6.6171,6.658,6.6443,6.6443,6.6453,6.6464,6.6553,6.667,6.6872,6.6905,6.6939,6.6939,6.6939,6.695,6.6971,6.6971,6.7377,6.7996,6.7941,6.8404,6.908,6.9035,6.9058,6.9058,6.9058,6.9058,6.9058,6.9058,6.9058,6.9058,6.908,6.8076,6.6971,6.6971,6.6971,6.6971,6.6971,6.6971,6.6971,6.6971,6.6937,6.6869,6.6869,6.6836,6.6802,6.6802,6.6802,6.6802,6.6802,6.6802,6.6802,6.6802,6.6802,6.6836,6.6869,6.6869,6.6903,6.6971,6.6971,6.7242,6.7929,6.7309,6.6903,6.6971,6.7624,6.7996,6.7996,6.8707,6.9113,6.9113,6.9147,6.918,6.918,6.9248,6.9248,6.9248,6.9248,6.9248,5.6613,0.0,5.6798,5.6798,5.6798,5.6798,0.0,5.7198,5.7617,0.0,0.0,5.9606,5.976,6.0332,6.0794,6.0794,6.0363,5.9791,5.9113,5.8448,5.7986,5.7814,5.8726,5.9452,5.976,6.0514,6.1153,6.1569,6.2271,6.2934,6.35,6.4091,6.4499,6.4773,6.5012,6.5403,6.5944,6.5944,6.6031,6.6215,6.697,6.7381,6.7435,6.7997,6.8255,6.8255,6.8255,6.8364,6.8571,6.8571,6.8673,6.8787,6.8601,6.8637,6.8772,6.8562,6.8484,6.8484,6.8484,6.8484,6.8484,6.8484,6.8484,6.8517,6.8739,6.869,6.8571,6.8571,6.8571,6.8571,6.8571,6.8571,6.8571,6.8571,6.8098,6.7658,6.7658,6.7208,6.6802,6.6802,6.6802,6.6802,6.6802,6.6802,6.6802,6.6802,6.6802,6.7005,6.7557,6.7658,6.7895,6.8493,6.8571,6.8639,6.8808,6.8098,6.7895,6.8538,6.8707,6.8808,6.8808,6.9011,6.9113,6.9113,6.9654,6.9936,6.9936,7.05,7.0793,7.0793,7.0793,7.0793,5.6705,5.6798,5.6798,5.6798,5.6798,5.689,5.7198,5.7537,5.7956,0.0,0.0,5.987,6.0191,6.056,6.0701,6.0393,6.0037,5.9452,5.8479,5.8017,5.7894,5.8233,5.9175,5.9914,6.0222,6.0707,6.1116,6.141,6.1828,6.2271,6.2788,6.3192,6.3527,6.3764,6.4076,6.4533,6.5101,6.5419,6.5698,6.5945,6.6945,6.7536,6.7758,6.826,6.8506,6.8506,6.8506,6.8584,6.8739,6.8739,6.8852,6.9043,6.8875,6.8884,6.8955,6.8817,6.8701,6.8563,6.8563,6.8563,6.8563,6.8563,6.8644,6.8794,6.8932,6.9264,6.9536,6.9183,6.9113,6.9113,6.9113,6.9113,6.9113,6.9113,6.8774,6.8436,6.8436,6.8132,6.785,6.785,6.785,6.785,6.785,6.785,6.785,6.785,6.785,6.7986,6.8402,6.8436,6.8605,6.9045,6.9113,6.9248,6.9586,6.9225,6.9011,6.9079,6.9417,6.9586,6.9586,6.9925,7.0117,7.0117,7.05,7.0703,7.0703,7.1097,7.13,7.13,7.1176,7.1131,5.6798,5.6798,5.6798,5.6798,5.6798,5.6982,5.7648,5.7863,0.0,0.0,0.0,6.0129,6.0701,6.0794,6.0578,5.9914,5.9637,5.9082,5.7956,5.7894,5.8202,5.8867,5.9544,6.0191,6.0732,6.0794,6.091,6.1167,6.1193,6.141,6.1916,6.2241,6.2528,6.277,6.3423,6.392,6.4194,6.494,6.5446,6.5753,6.6774,6.7442,6.7859,6.8244,6.8392,6.8392,6.847,6.8448,6.8448,6.8448,6.8678,6.8991,6.8956,6.9015,6.9111,6.9074,6.8891,6.8671,6.8671,6.8671,6.8671,6.8671,6.8843,6.9074,6.9111,6.9529,6.9886,6.929,6.922,6.9308,6.9308,6.933,6.9352,6.9352,6.9317,6.9282,6.9282,6.918,6.9113,6.9113,6.9113,6.9113,6.9113,6.9113,6.9113,6.9113,6.9113,6.9147,6.9248,6.9282,6.9316,6.9417,6.9451,6.9688,7.0308,7.0375,7.0094,6.9485,7.0026,7.0375,7.0375,7.0962,7.13,7.13,7.13,7.13,7.13,7.1255,7.1222,7.1176,7.0905,7.0767,5.6798,5.6798,5.6798,5.6798,5.6798,5.6982,5.7648,5.8233,5.8879,5.9637,6.024,6.0671,6.0763,6.0794,6.0578,5.9914,5.8836,5.8048,5.7832,5.8294,5.8898,5.9575,6.0252,6.0701,6.0794,6.0794,6.091,6.1167,6.1193,6.1334,6.1633,6.2246,6.2597,6.2635,6.3266,6.3657,6.3699,6.4696,6.5455,6.5954,6.698,6.7508,6.7592,6.848,6.8896,6.8908,6.9124,6.9187,6.9142,6.9142,6.9053,6.8898,6.8724,6.8519,6.8261,6.8081,6.7809,6.7548,6.7548,6.7548,6.7548,6.7548,6.7758,6.8043,6.8224,6.8716,6.9216,6.9265,6.9753,7.0272,7.0272,7.0466,7.0613,7.0613,7.0321,7.0037,7.0037,6.9553,6.9113,6.9113,6.9113,6.9113,6.9113,6.9113,6.9113,6.9113,6.9113,6.9316,6.9936,7.0037,7.0263,7.0894,7.0962,7.0996,7.1131,7.1131,7.1097,7.0962,7.1064,7.1131,7.1131,7.1233,7.13,7.13,7.13,7.13,7.13,7.1052,7.0848,7.0608,7.041,7.0176,5.6798,5.6798,5.689,5.726,5.7352,5.7537,5.8202,5.8867,5.9514,0.0,6.0578,6.0794,6.0794,6.0486,5.9914,5.891,5.8202,5.7802,5.7802,5.8695,5.9452,5.976,6.0393,6.0794,6.0794,6.0794,6.0845,6.0962,6.1314,6.1582,6.1681,6.2331,6.2703,6.2703,6.3371,6.3791,6.3964,6.4828,6.5333,6.5549,6.6683,6.7314,6.7465,6.8214,6.8575,6.8575,6.8699,6.8662,6.8493,6.8493,6.8211,6.7802,6.772,6.7414,6.6988,6.6746,6.6575,6.6425,6.6425,6.6425,6.6425,6.6425,6.6654,6.6903,6.6988,6.7548,6.8163,6.8244,6.9252,7.0351,7.0351,7.0526,7.0733,7.087,7.0726,7.0614,7.0771,7.0534,7.0286,7.0286,7.0286,7.0286,7.0286,7.0286,7.0286,7.0286,7.0286,7.0421,7.0737,7.0804,7.0928,7.1267,7.13,7.13,7.13,7.13,7.13,7.13,7.13,7.13,7.13,7.13,7.13,7.13,7.13,7.13,7.13,7.0893,7.0538,7.0283,6.9777,6.9394,5.6798,5.6921,5.7167,5.7678,5.7802,5.8017,5.8836,5.9421,0.0,0.0,0.0,6.0763,6.0578,5.9883,5.9052,5.8171,5.7894,5.7894,5.8233,5.9144,5.9852,6.0037,6.0486,6.0794,6.0794,6.0794,6.0855,6.1009,6.1502,6.1871,6.2012,6.2689,6.3014,6.3014,6.3691,6.4183,6.4427,6.4953,6.5239,6.5239,6.6209,6.6791,6.7013,6.7471,6.7701,6.7701,6.7797,6.767,6.7414,6.7414,6.7098,6.6622,6.6622,6.6445,6.6108,6.5855,6.5839,6.5981,6.5981,6.5981,6.5981,6.5981,6.6154,6.6385,6.6385,6.6948,6.7613,6.7666,6.8813,6.998,6.9841,7.0061,7.0388,7.0676,7.0813,7.0961,7.1244,7.13,7.13,7.13,7.13,7.13,7.13,7.13,7.13,7.13,7.13,7.13,7.13,7.13,7.13,7.13,7.13,7.1368,7.1537,7.1571,7.1639,7.1808,7.1503,7.1267,7.121,7.121,7.1188,7.1098,7.1098,7.1097,7.1052,7.0648,7.0305,6.9973,6.9362,6.8951,5.6798,5.726,5.774,5.7771,5.7802,0.0,5.9421,5.976,0.0,6.0671,0.0,0.0,6.0006,5.8818,5.811,5.8633,5.8202,5.8233,5.9483,5.9729,6.0037,6.064,6.0763,6.0794,6.0794,6.0794,6.1071,6.1686,6.1766,6.2073,6.2689,6.3352,6.3722,6.3722,6.4457,6.484,6.4867,6.4884,6.5187,6.5665,6.575,6.5808,6.5835,6.6112,6.6258,6.6271,6.6586,6.6515,6.6231,6.6231,6.6045,6.5794,6.5794,6.5997,6.624,6.5979,6.6268,6.6808,6.6808,6.6808,6.6808,6.6808,6.7021,6.7215,6.7215,6.7662,6.8182,6.8441,6.8962,6.9329,6.8839,6.9273,6.9929,7.0176,7.0583,7.0961,7.1244,7.13,7.13,7.13,7.13,7.13,7.13,7.13,7.13,7.13,7.13,7.13,7.13,7.13,7.13,7.13,7.13,7.1571,7.2259,7.2326,7.2597,7.3285,7.2056,7.1199,7.0939,7.0927,7.0825,7.055,7.055,7.0479,7.027,7.0355,7.0129,6.9647,6.9446,6.9242,5.7321,5.7617,5.7986,5.8849,5.9021,0.0,0.0,6.0116,6.0486,6.0763,6.0468,0.0,5.8744,5.8479,5.8356,5.8202,5.8664,5.9206,5.9729,6.0147,6.053,6.0763,6.0794,6.0794,6.0794,6.1194,6.1532,6.1779,6.2566,6.3137,6.3414,6.4104,6.4474,6.4474,6.4764,6.4888,6.4888,6.4888,6.4998,6.5201,6.5378,6.5429,6.5474,6.5741,6.5844,6.5875,6.5983,6.5862,6.5623,6.6059,6.6068,6.5868,6.6287,6.6526,6.6661,6.6547,6.669,6.6905,6.6905,6.6905,6.6905,6.6905,6.6976,6.7045,6.7045,6.7328,6.7648,6.7759,6.8308,6.9007,6.953,7.0137,7.0733,7.1147,7.1639,7.2088,7.2365,7.255,7.2665,7.2665,7.2665,7.2665,7.2665,7.2665,7.2665,7.2665,7.2665,7.2665,7.2665,7.2665,7.2665,7.2665,7.2665,7.2766,7.3048,7.3082,7.3218,7.3488,7.2981,7.255,7.2284,7.2099,7.1817,7.1389,7.1208,7.099,7.07,7.0474,7.0148,6.9705,6.9167,6.8744,5.7691,5.811,5.8664,5.9575,0.0,0.0,6.0129,6.0455,6.0794,6.0794,6.0283,5.9452,5.8325,5.8479,5.8713,5.8479,5.9206,5.9883,6.0098,6.0517,6.0794,6.0794,6.0794,6.0886,6.1101,6.1532,6.1981,6.2412,6.3291,6.3906,6.4135,6.4641,6.4888,6.4888,6.4888,6.4888,6.4888,6.4888,6.4888,6.4888,6.5094,6.516,6.5173,6.5365,6.5553,6.5771,6.5771,6.5772,6.584,6.629,6.638,6.6259,6.672,6.7028,6.7213,6.7213,6.7336,6.7535,6.7535,6.7535,6.7535,6.7535,6.7535,6.7535,6.7535,6.7678,6.7819,6.7919,6.8386,6.9097,7.0032,7.0584,7.0984,7.1511,7.2114,7.2677,7.301,7.3303,7.3488,7.3488,7.3488,7.3488,7.3488,7.3488,7.3488,7.3488,7.3488,7.3465,7.3372,7.3361,7.3361,7.3361,7.3442,7.359,7.3827,7.3779,7.3811,7.4036,7.3917,7.3504,7.2878,7.2522,7.2028,7.1399,7.1098,7.0768,7.0377,7.0167,6.9926,6.9601,6.9095,6.8764,5.7814,5.8787,5.9791,5.9821,0.0,0.0,6.0794,6.0794,6.0794,6.0794,6.024,5.9575,5.8929,5.8818,5.9033,5.9698,5.9821,6.0037,6.0701,6.0794,6.0794,6.0794,6.0794,6.1071,6.1748,6.1796,6.2381,6.3691,6.3814,6.4135,6.4857,6.4888,6.4888,6.4888,6.4888,6.4888,6.4888,6.4888,6.4888,6.4888,6.4918,6.4918,6.4918,6.4918,6.5288,6.5889,6.5889,6.6289,6.6905,6.6905,6.6905,6.6905,6.6905,6.7336,6.7906,6.7906,6.8335,6.8904,6.8904,6.8904,6.8904,6.8904,6.8904,6.8904,6.8904,6.8904,6.8963,6.9284,6.9416,6.9547,7.015,7.0285,7.0429,7.0959,7.173,7.2471,7.2996,7.3325,7.3522,7.3522,7.3522,7.3522,7.3522,7.3522,7.3522,7.3522,7.3522,7.3418,7.3149,7.3114,7.3114,7.3114,7.336,7.3815,7.4536,7.4345,7.4505,7.5221,7.4766,7.3836,7.2359,7.1804,7.1143,7.0332,6.9968,6.9547,6.9019,6.9417,6.9475,6.9214,6.9334,6.9416,5.8959,5.9514,5.9914,6.0393,6.064,6.0794,0.0,6.0794,0.0,0.0,5.9575,5.9021,5.8849,5.9175,5.9575,5.976,6.0191,6.0578,6.0763,6.0794,6.0794,6.0794,6.1225,6.1581,6.1779,6.2658,6.3352,6.3783,6.4289,6.4672,6.4888,6.4888,6.4888,6.4888,6.4888,6.4888,6.4888,6.4888,6.4888,6.4918,6.538,6.5596,6.5596,6.5596,6.5951,6.6597,6.6597,6.672,6.6936,6.7428,6.789,6.8304,6.8304,6.8427,6.8612,6.8612,6.875,6.8904,6.8904,6.8904,6.8904,6.8904,6.8904,6.8904,6.8904,6.8904,6.8919,6.9021,6.9211,6.9445,6.9633,6.9783,7.0148,7.122,7.2385,7.3375,7.3737,7.4314,7.4807,7.4997,7.5045,7.4974,7.4783,7.4748,7.4734,7.4577,7.4553,7.4517,7.4432,7.442,7.442,7.442,7.4505,7.4569,7.4518,7.4465,7.4335,7.4185,7.3851,7.3526,7.3307,7.2778,7.1967,7.0867,7.0572,7.0163,6.9576,6.9665,6.9706,6.962,6.9466,6.9416,5.9514,5.9993,6.0301,6.0701,6.0794,6.0794,6.0794,6.0794,6.0517,5.9606,5.9514,5.9514,5.9236,5.976,6.0191,6.0191,6.0547,6.0794,6.0794,6.0794,6.0886,6.1163,6.1563,6.2012,6.2535,6.3335,6.3906,6.4228,6.4641,6.4888,6.4888,6.4888,6.4888,6.4888,6.4888,6.4888,6.4888,6.5165,6.5288,6.5319,6.5996,6.6443,6.669,6.6413,6.6659,6.7305,6.7596,6.7689,6.772,6.815,6.8551,6.8904,6.8904,6.8904,6.8904,6.8904,6.8904,6.8904,6.8904,6.8904,6.8904,6.8904,6.8904,6.8904,6.8904,6.8904,6.8904,6.8904,6.905,6.9196,6.9196,6.9478,6.9958,7.0804,7.1862,7.2785,7.3043,7.3787,7.445,7.4534,7.47,7.4825,7.4757,7.4803,7.4904,7.4996,7.4907,7.4796,7.4651,7.4639,7.4589,7.4489,7.4477,7.4414,7.4206,7.3991,7.3685,7.3227,7.2808,7.259,7.2523,7.2291,7.1738,7.0806,7.037,6.9947,6.9458,6.9458,6.9458,6.9458,6.9269,6.9196,5.9698,6.0332,6.0794,6.0794,6.0794,6.0763,6.064,6.0701,6.0455,5.9236,5.9914,6.0547,6.0006,6.0393,6.0794,6.0794,6.0794,6.0794,6.0794,6.0855,6.1132,6.1748,6.1919,6.2473,6.3691,6.3845,6.4197,6.4857,6.4888,6.4888,6.4888,6.4888,6.4888,6.4888,6.4888,6.4918,6.498,6.5596,6.5934,6.5982,6.6659,6.7305,6.7875,6.7274,6.7367,6.8044,6.8658,6.8904,6.8904,6.8904,6.8904,6.8904,6.8904,6.8904,6.8904,6.8904,6.8904,6.8904,6.8904,6.8904,6.8904,6.8904,6.8904,6.8904,6.8904,6.8904,6.8904,6.8904,6.8904,6.8904,6.8904,6.9294,6.9737,6.9933,7.0614,7.1279,7.1568,7.2374,7.302,7.2919,7.3285,7.3697,7.3924,7.4145,7.4419,7.4831,7.4647,7.4372,7.4067,7.4016,7.3902,7.3634,7.3582,7.3524,7.3498,7.3051,7.2603,7.2219,7.1738,7.1209,7.0655,7.0872,7.0778,7.0218,6.9691,6.9225,6.8904,6.8904,6.8904,6.8904,6.8904,6.8904,6.0393,6.0701,6.0794,6.0794,6.0794,6.0517,5.9483,6.0024,6.0701,6.0424,6.0191,6.0116,6.0517,6.0701,6.0794,6.0794,6.0794,6.0794,6.0794,6.1255,6.1656,6.1766,6.272,6.3475,6.3783,6.432,6.4734,6.4888,6.4888,6.4888,6.4888,6.4888,6.4888,6.4888,6.4888,6.5165,6.5688,6.5842,6.6166,6.669,6.7367,6.7752,6.7906,6.7752,6.8044,6.8674,6.8842,6.8904,6.8904,6.8904,6.8904,6.8904,6.8904,6.8904,6.8904,6.8904,6.8904,6.8904,6.8904,6.8904,6.8904,6.8904,6.8904,6.8904,6.8904,6.8904,6.8904,6.8904,6.8904,6.8904,6.8904,6.8939,6.9035,6.9077,7.0239,7.1428,7.1693,7.2291,7.2952,7.3541,7.4036,7.4391,7.445,7.4661,7.4645,7.4146,7.3802,7.3564,7.3466,7.3285,7.3129,7.3064,7.2656,7.2264,7.2082,7.1711,7.1273,7.0778,7.0641,7.0402,7.0001,7.0317,7.0189,6.9619,6.9489,6.9225,6.8904,6.8904,6.8904,6.8904,6.8904,6.8904,6.0609,6.0794,6.0794,6.0794,6.0314,5.9821,5.976,6.0068,6.0393,6.0732,6.0517,6.0393,6.0732,6.0794,6.0794,6.0794,6.0794,6.0917,6.1225,6.1594,6.2042,6.2689,6.3352,6.3937,6.4289,6.4658,6.4888,6.4888,6.4888,6.4888,6.4888,6.4888,6.5042,6.538,6.538,6.5719,6.6382,6.669,6.7028,6.7397,6.8044,6.8382,6.8382,6.8382,6.8581,6.8904,6.8904,6.8904,6.8904,6.8904,6.8904,6.8904,6.8904,6.8904,6.8904,6.8904,6.8904,6.8904,6.8904,6.8904,6.8904,6.8904,6.8904,6.8904,6.8904,6.8904,6.8904,6.8904,6.8904,6.8904,6.8904,6.9007,6.9133,6.9245,6.9995,7.0706,7.0863,7.1549,7.2222,7.2531,7.3086,7.3529,7.3679,7.409,7.4184,7.3493,7.3227,7.2998,7.2709,7.2443,7.2216,7.2114,7.1571,7.1126,7.1005,7.068,7.03,6.989,6.9861,6.9717,6.94,6.9545,6.9545,6.9416,6.9225,6.9065,6.8904,6.8904,6.8904,6.8904,6.8904,6.8904,6.064,6.0701,6.0609,6.0486,5.9698,5.9267,6.0363,6.0283,6.0129,6.0701,6.0794,6.0794,6.0794,6.0794,6.0794,6.0794,6.0886,6.1163,6.1704,6.2012,6.2566,6.366,6.3906,6.4228,6.4826,6.4888,6.4888,6.4888,6.4888,6.4888,6.4888,6.5011,6.5319,6.5889,6.6012,6.6382,6.7059,6.7629,6.7951,6.8074,6.8612,6.8904,6.8904,6.8904,6.8904,6.8904,6.8904,6.8904,6.8904,6.8904,6.8904,6.8904,6.8904,6.8904,6.8904,6.8904,6.8904,6.8904,6.8904,6.8904,6.8904,6.8904,6.8904,6.8904,6.8904,6.8904,6.8904,6.8904,6.8904,6.8904,6.8904,6.9138,6.9474,6.9689,6.9837,6.9966,7.0015,7.0713,7.1307,7.1238,7.1815,7.2403,7.2679,7.3151,7.3312,7.2749,7.2629,7.2403,7.1852,7.1539,7.1296,7.1078,7.0518,7.0132,7.0132,6.9847,6.9559,6.9313,6.9298,6.9182,6.8919,6.8904,6.9036,6.9298,6.9036,6.8904,6.8904,6.8904,6.8904,6.8904,6.8904,6.8904,6.0763,6.0376,5.9778,5.9206,5.936,5.9698,5.9883,6.0301,6.0701,6.0794,6.0794,6.0794,6.0794,6.0794,6.0794,6.0794,6.1286,6.1704,6.1796,6.2812,6.3598,6.3783,6.4351,6.4795,6.4888,6.4888,6.4888,6.4888,6.4888,6.4888,6.4888,6.5442,6.5811,6.5903,6.6443,6.709,6.7752,6.7859,6.8197,6.8781,6.8873,6.8904,6.8904,6.8904,6.8904,6.8904,6.8904,6.8904,6.8904,6.8904,6.8904,6.8904,6.8904,6.8904,6.8904,6.8904,6.8904,6.8904,6.8904,6.8904,6.8904,6.8904,6.8904,6.8904,6.8904,6.8904,6.8904,6.8904,6.8904,6.8904,6.8904,6.9138,6.9416,6.9429,6.9865,7.0269,7.0394,7.0571,7.0842,7.1279,7.198,7.2547,7.2842,7.2512,7.2136,7.1811,7.1584,7.1282,7.0935,7.0641,7.0444,7.0402,6.9861,6.9532,6.9532,6.9211,6.9006,6.8963,6.8963,6.8948,6.8904,6.8904,6.8933,6.8963,6.8933,6.8904,6.8904,6.8904,6.8904,6.8904,6.8904,6.8904,6.0332,5.976,5.9267,5.9329,5.9575,5.9914,6.027,6.0578,6.0794,6.0794,6.0794,6.0794,6.0794,6.0794,6.0917,6.1317,6.1612,6.2073,6.2812,6.3414,6.3937,6.4351,6.4703,6.4888,6.4888,6.4888,6.4888,6.4888,6.4888,6.5072,6.5442,6.575,6.6228,6.6997,6.7305,6.7797,6.8458,6.8458,6.8612,6.8904,6.8904,6.8904,6.8904,6.8904,6.8904,6.8904,6.8904,6.8904,6.8904,6.8904,6.8904,6.8904,6.8904,6.8904,6.8904,6.8904,6.8904,6.8904,6.8904,6.8904,6.8904,6.8904,6.8904,6.8904,6.8904,6.8904,6.8904,6.8904,6.8904,6.8904,6.8904,6.9006,6.9167,6.9373,6.9588,6.987,7.0063,7.0412,7.0756,7.1158,7.1492,7.1738,7.1874,7.167,7.1342,7.0917,7.0768,7.0557,7.0246,6.9961,6.9821,6.9821,6.9385,6.9109,6.9109,6.8977,6.8904,6.8904,6.8904,6.8904,6.8904,6.8904,6.8904,6.8904,6.8904,6.8904,6.8904,6.8904,6.8904,6.8904,6.8904,6.8904,5.9698,5.9175,5.8959,5.9637,5.9791,5.9975,6.064,6.0794,6.0794,6.0794,6.0794,6.0855,6.1009,6.104,6.1225,6.1717,6.2073,6.2658,6.366,6.3968,6.4289,6.4826,6.4888,6.4888,6.4888,6.4888,6.498,6.5134,6.5165,6.5442,6.6119,6.632,6.6874,6.789,6.8074,6.8382,6.8904,6.8904,6.8904,6.8904,6.8904,6.8904,6.8904,6.8904,6.8904,6.8904,6.8904,6.8904,6.8904,6.8904,6.8904,6.8904,6.8904,6.8904,6.8904,6.8904,6.8904,6.8904,6.8904,6.8904,6.8904,6.8904,6.8904,6.8904,6.8904,6.8904,6.8904,6.8904,6.8904,6.8904,6.8904,6.8904,6.8963,6.9211,6.9255,6.9371,6.9732,7.0144,7.0526,7.0732,7.0774,7.0774,7.0774,7.0919,7.0876,7.0414,7.0454,7.0464,7.0114,6.9912,6.9781,6.9781,6.956,6.9427,6.9427,6.9427,6.9427,6.9427,6.9427,6.9427,6.9427,6.9427,6.9427,6.9427,6.9427,6.9243,6.8904,6.8904,6.8904,6.8904,6.8904,6.8996,5.8867,5.8849,5.8959,5.9637,5.9791,5.9975,6.064,6.0794,6.0794,6.0794,6.0794,6.1009,6.1625,6.1735,6.1766,6.1796,6.2873,6.3722,6.3783,6.4412,6.4857,6.4888,6.4888,6.4888,6.4888,6.4888,6.5165,6.5811,6.5842,6.6136,6.6813,6.7459,6.7814,6.7906,6.852,6.8873,6.8904,6.8904,6.8904,6.8904,6.8904,6.8904,6.8904,6.8904,6.8904,6.8904,6.8904,6.8904,6.8904,6.8904,6.8904,6.8904,6.8904,6.8904,6.8904,6.8904,6.8904,6.8904,6.8904,6.8904,6.8904,6.8904,6.8904,6.8904,6.8904,6.8904,6.8904,6.8904,6.8904,6.8904,6.8904,6.8904,6.8904,6.8933,6.8933,6.9094,6.9658,6.9801,6.9844,6.9844,6.9858,6.9858,6.9858,7.0375,7.0727,7.0451,7.0919,7.1203,7.0888,7.0828,7.0813,7.0813,7.0813,7.0798,7.0798,7.0798,7.0798,7.0798,7.0798,7.0798,7.0798,7.0798,7.0798,7.0798,7.0798,7.0182,6.8904,6.8904,6.8904,6.8904,6.8904,6.9243,5.9414,5.9452,5.9514,5.9729,6.0116,6.0486,6.0763,6.0794,6.0794,6.0794,6.1132,6.1532,6.1779,6.1796,6.2073,6.2922,6.3475,6.3981,6.4443,6.4734,6.4888,6.4888,6.4888,6.4888,6.4888,6.4888,6.5165,6.5842,6.5903,6.6382,6.7475,6.7752,6.8105,6.852,6.8781,6.8904,6.8904,6.8904,6.8904,6.8904,6.8904,6.8904,6.8904,6.8904,6.8904,6.8904,6.8904,6.8904,6.8904,6.8904,6.8904,6.8904,6.8904,6.8904,6.8904,6.8904,6.8904,6.8904,6.8904,6.8904,6.8904,6.8904,6.8904,6.8904,6.8904,6.8904,6.8904,6.8904,6.8904,6.8996,6.9427,6.955,6.9643,7.009,7.0182,7.0242,7.0465,7.051,7.051,7.051,7.051,7.051,7.051,7.0695,7.082,7.0746,7.0932,7.1042,7.0936,7.089,7.089,7.089,7.089,7.089,7.089,7.089,7.089,7.089,7.089,7.089,7.089,7.089,7.089,7.089,7.089,7.0675,7.0182,7.0182,7.0182,7.0182,7.0182,7.0305,5.9653,5.9791,5.9852,6.0098,6.0455,6.0794,6.0794,6.0794,6.0855,6.1101,6.1502,6.195,6.2381,6.2473,6.275,6.366,6.4012,6.4351,6.4826,6.4888,6.4888,6.4888,6.4888,6.4888,6.4888,6.5103,6.5503,6.6197,6.6443,6.7059,6.8167,6.8228,6.8458,6.8904,6.8904,6.8904,6.8904,6.8904,6.8904,6.8904,6.8904,6.8904,6.8904,6.9119,6.9243,6.9243,6.9489,6.9335,6.8904,6.8904,6.8904,6.8904,6.8904,6.8904,6.8904,6.8904,6.8904,6.8904,6.8904,6.8904,6.8904,6.8904,6.9058,6.9243,6.9243,6.9397,6.9566,6.9566,6.9566,6.9659,7.012,7.0244,7.0336,7.0798,7.1075,7.1259,7.1259,7.1075,7.089,7.089,7.089,7.089,7.089,7.1105,7.1259,7.1259,7.1444,7.1598,7.1598,7.1598,7.1598,7.1598,7.1598,7.1598,7.1598,7.1598,7.1598,7.1598,7.1598,7.1598,7.1598,7.1598,7.1598,7.1598,7.1598,7.1598,7.1598,7.1136,7.089,7.089,7.089,7.1044,0.0,0.0,0.0,6.064,6.0794,6.0794,6.0794,6.0794,6.0978,6.1642,6.184,6.2227,6.3568,6.3814,6.3814,6.3814,6.4412,6.4888,6.4888,6.4888,6.4888,6.4888,6.4888,6.4918,6.4918,6.5534,6.6197,6.6874,6.7537,6.8197,6.8873,6.8904,6.8904,6.8904,6.8904,6.8904,6.8904,6.8904,6.8904,6.8904,6.8935,6.8935,6.8965,6.9628,6.9936,6.9981,7.0613,7.0151,6.8965,6.8965,6.8965,6.8965,6.8965,6.8965,6.8965,6.8965,6.8965,6.8965,6.8965,6.8965,6.8965,6.8965,6.9397,6.9936,6.9936,7.0367,7.089,7.089,7.089,7.0921,7.0921,7.0952,7.0952,7.0952,7.1521,7.2029,7.2029,7.1459,7.0952,7.0952,7.0952,7.0952,7.0952,7.1552,7.2029,7.2029,7.2568,7.2999,7.2999,7.2999,7.2999,7.2999,7.2999,7.2999,7.2999,7.2999,7.2999,7.2999,7.2999,7.2999,7.2999,7.2999,7.2999,7.2999,7.2999,7.2999,7.2999,7.1629,7.0952,7.0952,7.0952,7.1352,6.0093,0.0,0.0,0.0,0.0,0.0,6.0794,6.0794,6.0978,6.1642,6.2196,6.2781,6.3629,6.4228,6.4611,6.4611,6.4764,6.4888,6.4888,6.4888,6.4888,6.4888,6.4888,6.5103,6.5596,6.578,6.6382,6.7551,6.7783,6.8197,6.8873,6.8904,6.8904,6.8904,6.8904,6.8904,6.8904,6.8904,6.8904,6.8904,6.9397,6.9628,6.9643,7.0305,7.0613,7.0644,7.0828,7.0705,7.0336,7.0336,7.0336,7.0336,7.0336,7.0336,7.0336,7.0336,7.0336,7.0336,7.0336,7.0336,7.0336,7.0336,7.0459,7.0613,7.0613,7.0767,7.089,7.089,7.089,7.1013,7.1552,7.2075,7.2414,7.2414,7.2568,7.2722,7.2722,7.2568,7.2414,7.2414,7.2414,7.2414,7.2414,7.2598,7.2722,7.2722,7.2876,7.2999,7.2999,7.2999,7.2999,7.2999,7.2999,7.2999,7.2999,7.2999,7.2999,7.2999,7.2999,7.2999,7.2999,7.2999,7.2999,7.2999,7.2999,7.2999,7.2999,7.2598,7.2414,7.2414,7.2414,7.2537,0.0,0.0,0.0,0.0,0.0,0.0,6.0794,6.1009,6.1409,6.2073,6.275,6.3414,6.4135,6.4611,6.4888,6.4888,6.4888,6.4888,6.4888,6.4888,6.4888,6.4888,6.4888,6.5165,6.5828,6.6136,6.6751,6.7814,6.8167,6.8489,6.8873,6.8904,6.8904,6.8904,6.8904,6.8904,6.8904,6.8904,6.9027,6.9335,6.969,7.0059,7.0336,7.1044,7.1367,7.1352,7.166,7.1783,7.1783,7.1783,7.1413,7.089,7.089,7.089,7.089,7.089,7.089,7.089,7.089,7.089,7.089,7.089,7.1105,7.1367,7.1367,7.1536,7.1783,7.1783,7.1783,7.189,7.2291,7.2722,7.2999,7.2999,7.2999,7.2999,7.2999,7.2999,7.2999,7.2999,7.2999,7.2999,7.2999,7.2999,7.2999,7.2999,7.2999,7.2999,7.2999,7.2999,7.2999,7.2999,7.2999,7.2999,7.2999,7.2999,7.2999,7.2999,7.2999,7.2999,7.2999,7.2999,7.2999,7.2999,7.2999,7.2999,7.2999,7.2999,7.2999,7.2999,7.2999,7.2999,0.0,0.0,0.0,0.0,0.0,0.0,6.0917,6.144,6.2104,6.2781,6.3383,6.4043,6.4764,6.4888,6.4888,6.4888,6.4888,6.4888,6.4888,6.4888,6.4888,6.4888,6.4888,6.5195,6.5934,6.6536,6.7213,6.7951,6.8551,6.8904,6.8904,6.8904,6.8904,6.8904,6.8904,6.8904,6.8904,6.8965,6.9304,6.9905,7.0074,7.0459,7.1044,7.1767,7.2121,7.2137,7.2722,7.2999,7.2999,7.2999,7.2244,7.1136,7.1136,7.1136,7.1136,7.1136,7.1136,7.1136,7.1136,7.1136,7.1136,7.1136,7.1582,7.2121,7.2121,7.2537,7.2999,7.2999,7.2999,7.2999,7.2999,7.2999,7.2999,7.2999,7.2999,7.2999,7.2999,7.2999,7.2999,7.2999,7.2999,7.2999,7.2999,7.2999,7.2999,7.2999,7.2999,7.2999,7.2999,7.2999,7.2999,7.2999,7.2999,7.2999,7.2999,7.2999,7.2999,7.2999,7.2999,7.2999,7.2999,7.2999,7.2999,7.2999,7.2999,7.2999,7.2999,7.2999,7.2999,7.2999,7.2999,7.2999,0.0,0.0,0.0,0.0,0.0,0.0,6.1594,6.2135,6.2812,6.3489,6.3722,6.4043,6.4764,6.4888,6.4888,6.4888,6.4888,6.4888,6.4888,6.4888,6.4888,6.4888,6.4888,6.538,6.6597,6.6813,6.7397,6.8612,6.8842,6.8904,6.8904,6.8904,6.8904,6.8904,6.8904,6.8904,6.8904,6.9458,6.9751,6.9905,7.1059,7.1644,7.1798,7.2475,7.2783,7.2814,7.2937,7.2999,7.2999,7.2999,7.2845,7.2598,7.2598,7.2598,7.2598,7.2598,7.2598,7.2598,7.2598,7.2598,7.2598,7.2598,7.2691,7.2783,7.2783,7.2906,7.2999,7.2999,7.2999,7.2999,7.2999,7.2999,7.2999,7.2999,7.2999,7.2999,7.2999,7.2999,7.2999,7.2999,7.2999,7.2999,7.2999,7.2999,7.2999,7.2999,7.2999,7.2999,7.2999,7.2999,7.2999,7.2999,7.2999,7.2999,7.2999,7.2999,7.2999,7.2999,7.2999,7.2999,7.2999,7.2999,7.2999,7.2999,7.2999,7.2999,7.2999,7.2999,7.2999,7.2999,7.2999,7.2999,0.0,0.0,0.0,6.1796,0.0,0.0,0.0,6.2812,6.3383,6.3722,6.4104,6.4443,6.4826,6.4888,6.4888,6.4888,6.4888,6.4888,6.4888,6.4888,6.4888,6.4888,6.4888,6.5442,6.6782,6.6905,6.7473,6.8812,6.8904,6.8904,6.8904,6.8904,6.8904,6.8904,6.8904,6.9058,6.9397,6.972,7.0244,7.0967,7.1644,7.2183,7.2506,7.2845,7.2999,7.2999,7.2999,7.2999,7.2999,7.2999,7.2999,7.2999,7.2999,7.2999,7.2999,7.2999,7.2999,7.2999,7.2999,7.2999,7.2999,7.2999,7.2999,7.2999,7.2999,7.2999,7.2999,7.2999,7.2999,7.2999,7.2999,7.2999,7.2999,7.2999,7.2999,7.2999,7.2999,7.2999,7.2999,7.2999,7.2999,7.2999,7.2999,7.2999,7.2999,7.2999,7.2999,7.2999,7.2999,7.2999,7.2999,7.2999,7.2999,7.2999,7.2999,7.2999,7.2999,7.2999,7.2999,7.2999,7.2999,7.2999,7.2999,7.2999,7.2999,7.2999,7.2999,7.2999,7.2999,7.2999,7.2999,7.2999,0.0,0.0,0.0,0.0,0.0,6.2997,0.0,0.0,0.0,6.4012,6.4474,6.4888,6.4888,6.4888,6.4888,6.4888,6.4888,6.4888,6.4888,6.4888,6.4888,6.4888,6.4888,6.5442,6.6782,6.712,6.775,6.8812,6.8904,6.8904,6.8904,6.8904,6.8904,6.8904,6.8904,6.9212,6.9874,7.0028,7.072,7.1998,7.2121,7.2475,7.2999,7.2999,7.2999,7.2999,7.2999,7.2999,7.2999,7.2999,7.2999,7.2999,7.2999,7.2999,7.2999,7.2999,7.2999,7.2999,7.2999,7.2999,7.2999,7.2999,7.2999,7.2999,7.2999,7.2999,7.2999,7.2999,7.2999,7.2999,7.2999,7.2999,7.3014,7.3076,7.3092,7.3107,7.3169,7.3138,7.3092,7.3092,7.3045,7.2999,7.2999,7.2999,7.2999,7.2999,7.2999,7.2937,7.2814,7.2814,7.2752,7.2598,7.2598,7.2598,7.2598,7.2598,7.2598,7.2598,7.2598,7.2598,7.2598,7.2598,7.2598,7.2598,7.2598,7.2598,7.2598,7.2752,7.2876,7.2999,7.2999,7.2999,0.0,0.0,0.0,0.0,6.3229,0.0,0.0,0.0,6.4764,6.4764,0.0,6.4888,6.4888,0.0,0.0,6.4888,6.4888,6.4888,6.4888,6.4888,6.4888,6.4888,6.4888,6.5442,6.6782,6.7966,6.875,6.8904,6.8904,6.8904,6.8904,6.8904,6.8904,6.8904,6.8904,6.9212,6.9874,7.049,7.1198,7.2029,7.2598,7.2937,7.2999,7.2999,7.2999,7.2999,7.2999,7.2999,7.2999,7.2999,7.2999,7.2999,7.2999,7.2999,7.2999,7.2999,7.2999,7.2999,7.2999,7.2999,7.2999,7.2999,7.2999,7.2999,7.2999,7.2999,7.2999,7.2999,7.2999,7.2999,7.2999,7.2999,7.3076,7.3355,7.3447,7.3509,7.3753,7.36,7.3447,7.3447,7.3185,7.2999,7.2999,7.2999,7.2999,7.2999,7.2999,7.2783,7.2183,7.2121,7.186,7.1198,7.1136,7.1136,7.1136,7.1136,7.1136,7.1136,7.1136,7.1136,7.1136,7.1136,7.1136,7.1136,7.1136,7.1136,7.1136,7.1798,7.2414,7.2999,7.2999,7.2999,0.0,0.0,0.0,0.0,0.0,0.0,6.4457,0.0,6.4888,0.0,0.0,0.0,0.0,0.0,0.0,0.0,6.4888,6.4888,6.4888,6.4888,6.4888,6.4888,6.4888,6.5442,6.6782,6.812,6.8904,6.8904,6.8904,6.8904,6.8904,6.8904,6.8904,6.8904,6.8904,6.9427,7.0459,7.0767,7.1475,7.2568,7.2876,7.2999,7.2999,7.2999,7.2999,7.2999,7.2999,7.2999,7.2999,7.2999,7.2999,7.2999,7.2999,7.2999,7.2999,7.2999,7.2999,7.2999,7.2999,7.2999,7.2999,7.2999,7.2999,7.2999,7.2999,7.2999,7.2999,7.2999,7.2999,7.2999,7.2999,7.2999,7.3076,7.3432,7.3509,7.357,7.3829,7.3677,7.3509,7.3509,7.2922,7.2414,7.2414,7.2414,7.2414,7.2414,7.2075,7.166,7.1398,7.1352,7.1229,7.0921,7.089,7.089,7.089,7.089,7.089,7.089,7.089,7.089,7.089,7.089,7.089,7.089,7.089,7.089,7.089,7.1198,7.1521,7.1783,7.2629,7.2999,6.3373,0.0,0.0,0.0,0.0,0.0,0.0,0.0,0.0,0.0,0.0,0.0,0.0,0.0,0.0,0.0,0.0,6.4888,6.4888,6.4888,6.4888,6.4888,6.5226,6.5842,6.6813,6.812,6.8904,6.8904,6.8904,6.8904,6.8904,6.8904,6.8904,6.8904,6.9089,6.9735,7.089,7.1105,7.1829,7.2999,7.2999,7.2999,7.2999,7.2999,7.2999,7.2999,7.2999,7.2999,7.2999,7.2999,7.2999,7.2999,7.2999,7.2999,7.2999,7.2999,7.2999,7.2999,7.2999,7.2999,7.2999,7.2999,7.2999,7.2999,7.2999,7.2999,7.2999,7.2999,7.2999,7.2999,7.2999,7.2999,7.3107,7.3509,7.3616,7.3723,7.4072,7.3719,7.3337,7.3337,7.2458,7.1706,7.1706,7.1706,7.1706,7.1706,7.1229,7.0828,7.0644,7.0644,7.0551,7.0367,7.0336,7.0336,7.0336,7.0336,7.0336,7.0336,7.0336,7.0336,7.0336,7.0336,7.0336,7.0336,7.0336,7.0336,7.0336,7.0551,7.0644,7.0675,7.2075,7.2722,0.0,0.0,0.0,6.4356,0.0,0.0,0.0,0.0,6.4888,0.0,0.0,0.0,0.0,0.0,0.0,0.0,0.0,0.0,0.0,6.4888,6.4888,6.4888,6.6043,6.6843,6.6905,6.812,6.8904,6.8904,6.8904,6.8904,6.8904,6.8904,6.8904,6.8904,6.952,7.0182,7.089,7.1613,7.2291,7.2999,7.2999,7.2999,7.2999,7.2999,7.2999,7.2999,7.2999,7.2999,7.2999,7.2999,7.2999,7.2999,7.2999,7.2999,7.2999,7.2999,7.2999,7.2999,7.2999,7.2999,7.2999,7.2999,7.2999,7.2999,7.2999,7.2999,7.2999,7.2999,7.2999,7.2999,7.2999,7.2999,7.3169,7.3769,7.389,7.4056,7.4734,7.3856,7.2907,7.2907,7.1867,7.0952,7.0952,7.0952,7.0952,7.0952,7.0921,7.0675,7.0012,6.9936,6.969,6.9027,6.8965,6.8965,6.8965,6.8965,6.8965,6.8965,6.8965,6.8965,6.8965,6.8965,6.8965,6.8965,6.8965,6.8965,6.8965,6.9612,6.9936,6.9981,7.1367,7.2013,0.0,0.0,6.5009,6.5125,0.0,0.0,0.0,0.0,0.0,0.0,0.0,0.0,0.0,0.0,0.0,0.0,0.0,0.0,0.0,6.5565,6.5565,6.5565,6.6351,6.709,6.752,6.8366,6.8904,6.8904,6.8904,6.8904,6.8904,6.8904,6.8904,6.8904,6.955,7.0213,7.089,7.1644,7.2337,7.2999,7.2999,7.2999,7.2999,7.2999,7.2999,7.2999,7.2999,7.2999,7.2999,7.2999,7.2999,7.2999,7.2999,7.2999,7.2999,7.2999,7.2999,7.2999,7.2999,7.2999,7.2999,7.2999,7.2999,7.2999,7.2999,7.2999,7.2999,7.2999,7.2999,7.2999,7.2999,7.2999,7.3107,7.3539,7.3647,7.3614,7.3584,7.3062,7.242,7.2001,7.1006,7.0244,7.0244,6.9874,6.9735,7.0182,6.9843,6.9474,6.9273,6.9243,6.915,6.8935,6.8904,6.8904,6.8904,6.8904,6.8904,6.8904,6.8904,6.9089,6.955,6.9581,6.9751,7.0213,7.0213,7.0213,7.0213,7.0459,7.0551,7.0582,7.1552,7.1736,6.4994,6.5158,0.0,6.5468,6.5791,0.0,6.6343,0.0,0.0,0.0,0.0,0.0,0.0,0.0,0.0,0.0,0.0,0.0,0.0,6.6273,6.6351,6.6566,6.6997,6.7428,6.7844,6.852,6.8904,6.8904,6.8904,6.8904,6.8904,6.8904,6.9027,6.9243,6.992,7.0582,7.129,7.2013,7.2568,7.2999,7.2999,7.2999,7.2999,7.2999,7.2999,7.2999,7.2999,7.2999,7.2999,7.2999,7.2999,7.2999,7.2999,7.2999,7.2999,7.2999,7.2999,7.2999,7.2999,7.2999,7.2999,7.2999,7.2999,7.2999,7.2999,7.2999,7.2999,7.2999,7.2999,7.2999,7.2999,7.2999,7.3076,7.3432,7.3292,7.3074,7.294,7.2247,7.1542,7.1123,7.022,6.9536,6.9536,6.9181,6.9058,6.9489,6.9181,6.8904,6.8904,6.8904,6.8904,6.8904,6.8904,6.8904,6.8904,6.8904,6.8904,6.8904,6.9119,6.9458,6.9874,7.012,7.0459,7.089,7.089,7.089,7.089,7.089,7.089,7.0921,7.1398,7.1352]},{"header":{"parameterUnit":"m.s-1","parameterCategory":1,"la1":30.6,"la2":29.2853,"lo1":-89.7004,"lo2":-87.6739,"dy":0.0162,"dx":0.0183,"nx":112,"ny":82,"refTime":"2024-02-25T06:00:00:Z","depth":0,"parameterNumber":3,"parameterNumberName":"V-component_of_WINDS"},"data":[0.0,0.0,0.0,0.0,0.0,0.0,0.0,0.0,0.0,0.0,0.0,0.0,0.0,0.0,0.0,0.0,0.0,0.0,0.0,0.0,0.0,0.0,0.0,0.0,0.0,0.0,0.0,0.0,0.0,0.0,0.0,0.0,0.0,0.0,0.0,0.0,0.0,0.0,0.0,0.0,0.0,0.0,0.0,0.0,0.0,0.0,0.0,0.0,0.0,0.0,0.0,0.0,0.0,0.0,0.0,0.0,0.0,0.0,0.0,0.0,0.0,0.0,0.0,0.0,0.0,0.0,0.0,0.0,0.0,0.0,0.0,0.0,0.0,0.0,0.0,0.0,0.0,0.0,0.0,0.0,0.0,0.0,0.0,0.0,0.0,0.0,0.0,0.0,0.0,0.0,2.2893,2.2893,2.2602,2.2533,2.2859,2.2327,2.2087,2.2362,0.0,0.0,0.0,0.0,0.0,0.0,0.0,0.0,0.0,0.0,0.0,0.0,0.0,0.0,0.0,0.0,0.0,0.0,0.0,0.0,0.0,0.0,0.0,0.0,0.0,0.0,0.0,0.0,0.0,0.0,0.0,0.0,0.0,0.0,0.0,0.0,0.0,0.0,0.0,0.0,0.0,0.0,0.0,0.0,0.0,0.0,0.0,0.0,0.0,0.0,0.0,0.0,0.0,0.0,0.0,0.0,0.0,0.0,0.0,0.0,0.0,0.0,0.0,0.0,0.0,0.0,0.0,0.0,0.0,0.0,0.0,0.0,0.0,0.0,0.0,0.0,0.0,0.0,0.0,0.0,0.0,0.0,0.0,0.0,0.0,0.0,0.0,0.0,0.0,0.0,0.0,0.0,0.0,0.0,0.0,0.0,0.0,0.0,0.0,0.0,0.0,0.0,0.0,0.0,2.2893,2.2893,2.2842,2.2825,2.2893,2.2791,2.2756,2.2808,0.0,0.0,0.0,0.0,0.0,0.0,0.0,0.0,0.0,0.0,0.0,0.0,0.0,0.0,0.0,0.0,0.0,0.0,0.0,0.0,0.0,0.0,0.0,0.0,0.0,0.0,0.0,0.0,0.0,0.0,0.0,0.0,0.0,0.0,0.0,0.0,0.0,0.0,0.0,0.0,0.0,0.0,0.0,0.0,0.0,0.0,0.0,0.0,0.0,0.0,0.0,0.0,0.0,0.0,0.0,0.0,0.0,0.0,0.0,0.0,0.0,0.0,0.0,0.0,0.0,0.0,0.0,0.0,0.0,0.0,0.0,0.0,0.0,0.0,0.0,0.0,0.0,0.0,0.0,0.0,0.0,0.0,0.0,0.0,0.0,0.0,0.0,0.0,0.0,0.0,0.0,0.0,0.0,0.0,0.0,0.0,0.0,0.0,0.0,0.0,0.0,0.0,0.0,2.2893,2.2893,2.2893,2.2893,2.2893,2.2893,2.2893,2.2893,2.2893,2.2568,0.0,0.0,0.0,0.0,0.0,0.0,0.0,0.0,0.0,0.0,0.0,0.0,0.0,0.0,0.0,0.0,0.0,0.0,0.0,0.0,0.0,0.0,0.0,0.0,0.0,0.0,0.0,0.0,0.0,0.0,0.0,0.0,0.0,0.0,0.0,0.0,0.0,0.0,0.0,0.0,0.0,0.0,0.0,0.0,0.0,0.0,0.0,0.0,0.0,0.0,0.0,0.0,0.0,0.0,0.0,0.0,0.0,0.0,0.0,0.0,0.0,0.0,0.0,0.0,0.0,0.0,0.0,0.0,0.0,0.0,0.0,0.0,0.0,0.0,0.0,0.0,0.0,0.0,0.0,0.0,0.0,0.0,0.0,0.0,0.0,0.0,0.0,0.0,0.0,0.0,0.0,0.0,0.0,0.0,0.0,0.0,0.0,0.0,0.0,0.0,0.0,0.0,2.2893,2.2893,2.2893,2.2893,2.2893,2.2893,2.2893,2.2893,2.2893,2.2893,0.0,0.0,0.0,0.0,0.0,0.0,0.0,0.0,0.0,0.0,0.0,0.0,0.0,0.0,0.0,0.0,0.0,0.0,0.0,0.0,0.0,0.0,0.0,0.0,0.0,0.0,0.0,0.0,0.0,0.0,0.0,0.0,0.0,0.0,0.0,0.0,0.0,0.0,0.0,0.0,0.0,0.0,0.0,0.0,0.0,0.0,0.0,0.0,0.0,0.0,0.0,0.0,0.0,0.0,0.0,0.0,0.0,0.0,0.0,0.0,0.0,0.0,0.0,0.0,0.0,0.0,0.0,0.0,0.0,0.0,0.0,0.0,0.0,0.0,0.0,0.0,0.0,0.0,0.0,0.0,0.0,0.0,0.0,0.0,0.0,0.0,0.0,0.0,0.0,0.0,0.0,0.0,0.0,0.0,0.0,0.0,0.0,0.0,0.0,0.0,0.0,0.0,2.2893,2.2893,2.2893,2.2893,2.2893,2.2893,2.2893,2.2893,2.2893,2.2893,0.0,0.0,0.0,0.0,0.0,0.0,0.0,0.0,0.0,0.0,0.0,0.0,0.0,0.0,0.0,0.0,0.0,0.0,0.0,0.0,0.0,0.0,0.0,0.0,0.0,0.0,0.0,0.0,0.0,0.0,0.0,0.0,0.0,0.0,0.0,0.0,0.0,0.0,0.0,0.0,0.0,0.0,0.0,0.0,0.0,0.0,0.0,0.0,0.0,0.0,0.0,0.0,0.0,0.0,0.0,0.0,0.0,0.0,0.0,0.0,0.0,0.0,0.0,0.0,0.0,0.0,0.0,0.0,0.0,0.0,0.0,0.0,0.0,0.0,0.0,0.0,0.0,0.0,0.0,0.0,0.0,0.0,0.0,0.0,0.0,0.0,0.0,0.0,0.0,0.0,0.0,0.0,0.0,0.0,0.0,0.0,0.0,0.0,0.0,0.0,0.0,0.0,2.3469,2.3469,2.3469,2.326,2.3153,2.3153,2.3014,2.2893,2.2893,0.0,0.0,0.0,0.0,0.0,0.0,0.0,0.0,0.0,0.0,0.0,0.0,0.0,0.0,0.0,0.0,0.0,0.0,0.0,0.0,0.0,0.0,0.0,0.0,0.0,0.0,0.0,0.0,0.0,0.0,0.0,0.0,0.0,0.0,0.0,0.0,0.0,0.0,0.0,0.0,0.0,0.0,0.0,0.0,0.0,0.0,0.0,0.0,0.0,0.0,0.0,0.0,0.0,0.0,0.0,0.0,0.0,0.0,0.0,0.0,0.0,0.0,0.0,0.0,0.0,0.0,0.0,0.0,0.0,0.0,0.0,0.0,0.0,0.0,0.0,0.0,0.0,0.0,0.0,0.0,0.0,0.0,0.0,0.0,0.0,0.0,0.0,0.0,0.0,0.0,0.0,0.0,0.0,0.0,0.0,0.0,0.0,0.0,0.0,0.0,0.0,0.0,2.3759,2.3803,2.3803,2.3803,2.3612,2.3474,2.3474,2.3291,2.3148,2.3037,0.0,0.0,0.0,0.0,0.0,0.0,0.0,0.0,0.0,0.0,0.0,0.0,0.0,0.0,0.0,0.0,0.0,0.0,0.0,0.0,0.0,0.0,0.0,0.0,0.0,0.0,0.0,0.0,0.0,0.0,0.0,0.0,0.0,0.0,0.0,0.0,0.0,0.0,0.0,0.0,0.0,0.0,0.0,0.0,0.0,0.0,0.0,0.0,0.0,0.0,0.0,0.0,0.0,0.0,0.0,0.0,0.0,0.0,0.0,0.0,0.0,0.0,0.0,0.0,0.0,0.0,0.0,0.0,0.0,0.0,0.0,0.0,0.0,0.0,0.0,0.0,0.0,0.0,0.0,0.0,0.0,0.0,0.0,0.0,0.0,0.0,0.0,0.0,0.0,0.0,0.0,0.0,0.0,0.0,0.0,0.0,0.0,0.0,0.0,0.0,0.0,0.0,2.3817,2.3817,2.3817,2.3817,2.3817,2.3785,2.3785,2.3785,2.3665,0.0,0.0,0.0,0.0,0.0,0.0,0.0,0.0,0.0,0.0,0.0,0.0,0.0,0.0,0.0,0.0,0.0,0.0,0.0,0.0,0.0,0.0,0.0,0.0,0.0,0.0,0.0,0.0,0.0,0.0,0.0,0.0,0.0,0.0,0.0,0.0,0.0,0.0,0.0,0.0,0.0,0.0,0.0,0.0,0.0,0.0,0.0,0.0,0.0,0.0,0.0,0.0,0.0,0.0,0.0,0.0,0.0,0.0,0.0,0.0,0.0,0.0,0.0,0.0,0.0,0.0,0.0,0.0,0.0,0.0,0.0,0.0,0.0,0.0,0.0,0.0,0.0,0.0,0.0,0.0,0.0,0.0,0.0,0.0,0.0,0.0,0.0,0.0,0.0,0.0,0.0,0.0,0.0,0.0,0.0,0.0,0.0,0.0,0.0,0.0,0.0,0.0,0.0,2.4337,2.4364,2.4364,2.4364,2.4195,2.4075,2.4075,2.3906,2.3745,2.3665,0.0,0.0,0.0,0.0,0.0,0.0,0.0,0.0,0.0,0.0,0.0,0.0,0.0,0.0,0.0,0.0,0.0,0.0,0.0,0.0,0.0,0.0,0.0,0.0,0.0,0.0,0.0,0.0,0.0,0.0,0.0,0.0,0.0,0.0,0.0,0.0,0.0,0.0,0.0,0.0,0.0,0.0,0.0,0.0,0.0,0.0,0.0,0.0,0.0,0.0,0.0,0.0,0.0,0.0,0.0,0.0,0.0,0.0,0.0,0.0,0.0,0.0,0.0,0.0,0.0,0.0,0.0,0.0,0.0,0.0,0.0,0.0,0.0,0.0,0.0,0.0,0.0,0.0,0.0,0.0,0.0,0.0,0.0,0.0,0.0,0.0,0.0,0.0,0.0,0.0,0.0,0.0,0.0,0.0,0.0,0.0,0.0,0.0,0.0,0.0,0.0,0.0,2.4572,2.4599,2.4599,2.4599,2.4457,2.4364,2.4364,2.4222,2.4062,2.3973,0.0,0.0,0.0,0.0,0.0,0.0,0.0,0.0,0.0,0.0,0.0,0.0,0.0,0.0,0.0,0.0,0.0,0.0,0.0,0.0,0.0,0.0,0.0,0.0,0.0,0.0,0.0,0.0,0.0,0.0,0.0,0.0,0.0,0.0,0.0,0.0,0.0,0.0,0.0,0.0,0.0,0.0,0.0,0.0,0.0,0.0,0.0,0.0,0.0,0.0,0.0,0.0,0.0,0.0,0.0,0.0,0.0,0.0,0.0,0.0,0.0,0.0,0.0,0.0,0.0,0.0,0.0,0.0,0.0,0.0,0.0,0.0,0.0,0.0,0.0,0.0,0.0,0.0,0.0,0.0,0.0,0.0,0.0,0.0,0.0,0.0,0.0,0.0,0.0,0.0,0.0,0.0,0.0,0.0,0.0,0.0,0.0,0.0,0.0,0.0,0.0,0.0,2.4599,2.4599,2.4599,2.4599,2.4599,2.4599,2.4599,2.4599,2.4511,2.4244,0.0,0.0,0.0,0.0,0.0,0.0,0.0,0.0,0.0,0.0,0.0,0.0,0.0,0.0,0.0,0.0,0.0,0.0,0.0,0.0,0.0,0.0,0.0,0.0,0.0,0.0,0.0,0.0,0.0,0.0,0.0,0.0,0.0,0.0,0.0,0.0,0.0,0.0,0.0,0.0,0.0,0.0,0.0,0.0,0.0,0.0,0.0,0.0,0.0,0.0,0.0,0.0,0.0,0.0,0.0,0.0,0.0,0.0,0.0,0.0,2.6802,2.5627,0.0,0.0,0.0,0.0,0.0,0.0,0.0,0.0,0.0,0.0,0.0,0.0,0.0,0.0,0.0,0.0,0.0,0.0,0.0,0.0,0.0,0.0,0.0,0.0,0.0,0.0,0.0,0.0,0.0,0.0,0.0,0.0,0.0,0.0,0.0,0.0,0.0,0.0,0.0,0.0,2.4599,2.4599,2.4599,2.4599,2.4599,2.4599,2.4599,2.4599,2.4572,2.4524,2.4311,0.0,0.0,0.0,0.0,0.0,0.0,0.0,0.0,0.0,0.0,0.0,0.0,0.0,0.0,0.0,0.0,0.0,0.0,0.0,0.0,0.0,0.0,0.0,0.0,0.0,0.0,0.0,0.0,0.0,0.0,0.0,0.0,0.0,0.0,0.0,0.0,0.0,0.0,0.0,0.0,0.0,0.0,0.0,0.0,0.0,0.0,0.0,0.0,0.0,0.0,0.0,0.0,0.0,0.0,0.0,0.0,0.0,0.0,0.0,2.8081,2.6968,0.0,0.0,0.0,0.0,0.0,0.0,0.0,0.0,0.0,0.0,0.0,0.0,0.0,0.0,0.0,0.0,0.0,0.0,0.0,0.0,0.0,0.0,0.0,0.0,0.0,0.0,0.0,0.0,0.0,0.0,0.0,0.0,0.0,0.0,0.0,0.0,0.0,0.0,0.0,0.0,2.4599,2.4599,2.4599,2.4599,2.4599,2.4599,2.4599,2.4599,2.4599,2.4599,2.4471,0.0,0.0,0.0,0.0,0.0,0.0,0.0,0.0,0.0,0.0,0.0,0.0,0.0,0.0,0.0,0.0,0.0,0.0,0.0,0.0,0.0,0.0,0.0,0.0,0.0,0.0,0.0,0.0,0.0,0.0,0.0,0.0,0.0,0.0,0.0,0.0,0.0,0.0,0.0,0.0,0.0,0.0,0.0,0.0,0.0,0.0,0.0,0.0,0.0,0.0,0.0,0.0,0.0,3.1394,3.1249,3.0993,3.0993,3.0847,3.049,2.9217,2.8378,2.78,2.6568,0.0,0.0,0.0,0.0,0.0,0.0,0.0,0.0,0.0,0.0,0.0,0.0,0.0,0.0,0.0,0.0,0.0,0.0,0.0,0.0,0.0,0.0,2.7546,2.7765,2.7807,2.7553,2.6608,0.0,0.0,0.0,0.0,0.0,0.0,0.0,0.0,0.0,0.0,0.0,2.4698,2.4639,2.4599,2.4599,2.4599,2.4599,2.4599,2.4599,2.4599,2.4599,2.4599,2.4492,0.0,0.0,0.0,0.0,0.0,0.0,0.0,0.0,0.0,0.0,0.0,0.0,0.0,0.0,0.0,0.0,0.0,0.0,0.0,0.0,0.0,0.0,0.0,0.0,0.0,0.0,0.0,0.0,0.0,0.0,0.0,0.0,2.899,2.899,0.0,0.0,0.0,0.0,0.0,0.0,0.0,0.0,0.0,0.0,0.0,0.0,0.0,3.1394,3.1394,3.1394,3.1394,3.1394,3.1394,3.1377,3.1329,3.1329,3.1313,3.1233,3.0748,0.0,2.8609,2.8081,0.0,0.0,0.0,0.0,0.0,0.0,0.0,0.0,0.0,0.0,0.0,0.0,0.0,0.0,0.0,0.0,0.0,0.0,0.0,0.0,0.0,0.0,2.9019,2.9048,2.9064,2.9028,2.8869,2.7514,2.6202,2.58,2.5446,2.516,0.0,0.0,0.0,0.0,0.0,0.0,2.5042,2.4778,2.4599,2.4599,2.4599,2.4599,2.4599,2.4599,2.4599,2.4599,2.4599,2.4586,2.4546,2.4546,0.0,0.0,0.0,0.0,0.0,0.0,0.0,0.0,0.0,0.0,0.0,0.0,0.0,0.0,0.0,0.0,0.0,0.0,0.0,0.0,0.0,0.0,0.0,0.0,0.0,0.0,0.0,0.0,0.0,2.9192,2.9354,2.9354,2.9687,2.9944,0.0,0.0,0.0,0.0,0.0,0.0,0.0,0.0,0.0,3.1394,3.1394,3.1394,3.1394,3.1394,3.1394,3.1394,3.1394,3.1394,3.1394,3.1394,3.1394,3.1394,3.1233,3.0716,2.9904,2.8937,2.8048,2.7186,0.0,0.0,0.0,0.0,2.6631,2.7533,2.8033,2.8479,2.8806,2.9005,0.0,0.0,0.0,0.0,0.0,0.0,0.0,2.9024,2.9576,3.0302,3.0834,3.0638,3.0585,3.0527,3.0294,2.9405,2.8267,2.6998,2.64,2.5959,2.5514,2.5375,0.0,0.0,0.0,2.5317,2.5317,2.5192,2.5112,2.5112,2.5112,2.5112,2.5112,2.4983,2.489,2.489,2.4693,2.4599,2.4599,2.4599,2.4656,0.0,0.0,0.0,0.0,0.0,0.0,0.0,0.0,0.0,0.0,0.0,0.0,0.0,0.0,0.0,0.0,0.0,0.0,0.0,0.0,0.0,0.0,0.0,0.0,0.0,0.0,0.0,0.0,2.9409,2.9647,2.9742,3.0109,3.0351,0.0,0.0,0.0,0.0,0.0,0.0,3.1394,3.1394,3.1394,3.1394,3.1394,3.1394,3.1394,3.1394,3.1394,3.1394,3.1394,3.1394,3.1394,3.1394,3.1449,3.1559,3.1559,3.1468,3.1233,2.9996,2.9205,2.8693,2.7894,2.7631,2.7685,2.7854,2.856,2.9506,2.9847,3.0327,3.0803,3.089,3.0481,2.988,2.9433,0.0,0.0,0.0,0.0,3.0534,3.1135,3.1771,3.221,3.2068,3.2032,3.1976,3.1779,3.1429,3.0529,2.8493,2.7722,2.715,2.6368,2.624,0.0,2.6232,2.6222,2.6186,2.6104,2.6036,2.5944,2.5829,2.5728,2.5652,2.5652,2.5374,2.5176,2.5096,2.4877,2.4735,2.4747,2.4747,2.4986,2.5502,0.0,0.0,0.0,0.0,0.0,0.0,0.0,0.0,0.0,0.0,0.0,0.0,0.0,0.0,0.0,0.0,0.0,0.0,0.0,0.0,0.0,0.0,0.0,0.0,0.0,0.0,0.0,0.0,0.0,3.0112,3.0516,0.0,0.0,0.0,0.0,3.1373,3.1375,3.1394,3.1394,3.1394,3.1394,3.1394,3.1394,3.1394,3.1394,3.1394,3.1394,3.1394,3.1394,3.1394,3.1394,3.1394,3.1614,3.1983,3.1983,3.2184,3.2446,3.1682,3.0942,3.0298,3.0308,3.031,3.0276,2.9969,3.031,3.0957,3.1357,3.1509,3.1585,3.1922,3.1789,3.1357,3.0648,3.0884,0.0,0.0,3.1436,3.1982,3.2035,3.2351,3.2755,3.3127,3.3216,3.3322,3.3676,3.3438,3.2474,3.014,2.9371,2.8781,2.7836,0.0,2.824,2.817,2.8211,2.812,2.773,2.7454,2.7155,2.678,2.6338,2.6072,2.6072,2.5715,2.5371,2.5122,2.5082,2.5098,2.5166,2.5171,2.5538,2.6326,2.6316,0.0,0.0,0.0,0.0,0.0,0.0,0.0,0.0,0.0,0.0,0.0,0.0,0.0,0.0,0.0,0.0,0.0,0.0,0.0,0.0,0.0,0.0,0.0,0.0,0.0,0.0,0.0,0.0,3.0584,3.0935,0.0,3.1192,3.132,3.1394,3.1394,3.1394,3.1394,3.1394,3.1394,3.1394,3.1394,3.1394,3.1394,3.1394,3.1394,3.1394,3.1394,3.1394,3.154,3.1781,3.1781,3.2001,3.2386,3.2386,3.2459,3.2606,3.26,3.2155,3.147,3.1275,3.1333,3.1527,3.139,3.184,3.2501,3.2644,3.2833,3.3001,3.2904,3.2784,3.2611,3.2071,3.2106,3.2281,3.2123,3.2456,3.293,3.3197,3.3515,3.3835,3.4037,3.4073,3.4108,3.4265,3.4171,3.3801,3.2929,3.1584,3.036,2.9553,2.9467,2.9494,2.9459,2.9486,2.9449,2.9295,2.919,2.8977,2.8573,2.838,2.8086,2.7558,2.7182,2.6822,2.6462,2.6535,2.6491,2.6307,2.6552,2.6935,2.7481,2.7499,2.7825,0.0,0.0,0.0,0.0,0.0,0.0,0.0,0.0,0.0,0.0,0.0,0.0,0.0,0.0,0.0,0.0,0.0,0.0,0.0,0.0,0.0,0.0,0.0,0.0,0.0,3.1127,3.1395,3.118,3.1407,3.1522,3.141,3.1394,3.1394,3.1394,3.1394,3.1394,3.1394,3.1394,3.1394,3.1394,3.1394,3.1394,3.1394,3.1394,3.1467,3.1595,3.1595,3.1881,3.2401,3.2401,3.2689,3.3176,3.3176,3.3233,3.34,3.3661,3.3488,3.2993,3.2536,3.2475,3.2656,3.2656,3.3008,3.3487,3.3608,3.3886,3.4128,3.3903,3.3747,3.3608,3.3347,3.3173,3.3104,3.3247,3.3476,3.376,3.4159,3.4446,3.4644,3.483,3.4867,3.4903,3.5044,3.506,3.5021,3.4841,3.3524,3.2173,3.1412,3.1322,3.1293,3.1159,3.1255,3.1293,3.1159,3.1024,3.0774,3.0404,2.9959,2.9489,2.8959,2.8458,2.8091,2.786,2.7912,2.7934,2.7888,2.8119,2.8468,2.8863,2.888,2.9156,2.9674,0.0,0.0,0.0,0.0,0.0,0.0,0.0,0.0,0.0,0.0,0.0,0.0,0.0,0.0,0.0,0.0,0.0,0.0,0.0,0.0,0.0,0.0,0.0,3.1918,3.1825,3.1854,3.1921,3.1929,3.1782,3.1458,3.1426,3.1426,3.1426,3.1426,3.1426,3.1426,3.1426,3.1426,3.1426,3.1426,3.1426,3.1444,3.1444,3.1646,3.2036,3.2036,3.2471,3.3242,3.3223,3.3632,3.433,3.4311,3.4541,3.4904,3.4904,3.4904,3.4835,3.4111,3.3834,3.3834,3.3834,3.3834,3.3886,3.4284,3.4629,3.4904,3.4904,3.4681,3.4422,3.4423,3.4164,3.3926,3.4347,3.4457,3.4531,3.4917,3.5027,3.5119,3.5522,3.5614,3.5724,3.6127,3.6201,3.6071,3.5698,3.4988,3.4199,3.3386,3.3575,3.3708,3.331,3.3594,0.0,3.331,3.2911,3.2492,3.2094,3.0944,3.0187,3.0168,2.9431,2.9045,2.916,2.9202,2.9412,2.9844,2.9884,3.0079,3.0458,3.0477,3.0492,3.051,0.0,0.0,0.0,0.0,0.0,0.0,0.0,0.0,0.0,0.0,0.0,0.0,0.0,0.0,0.0,0.0,0.0,0.0,0.0,0.0,0.0,3.2637,3.2653,3.2218,3.2405,3.2511,3.2291,3.2262,3.223,3.2134,3.2134,3.2134,3.2134,3.191,3.1766,3.1766,3.1766,3.1766,3.1766,3.2006,3.2282,3.2633,3.2633,3.284,3.3218,3.3218,3.351,3.3987,3.3704,3.3983,3.4713,3.4429,3.4524,3.4904,3.4904,3.4904,3.4887,3.4681,3.4612,3.4612,3.4612,3.4612,3.4612,3.4732,3.4818,3.4904,3.4904,3.4835,3.4823,3.516,3.5184,3.519,3.5603,3.5503,3.5364,3.5773,3.5649,3.554,3.5925,3.6054,3.6072,3.6182,3.6201,3.6163,3.6052,3.5866,3.5456,3.465,3.4613,3.4632,3.4519,3.4613,3.4632,3.4519,3.416,3.3744,3.3348,3.274,3.2111,3.1533,3.1267,3.1043,3.0776,3.1316,3.146,3.105,3.1596,3.1954,3.2061,3.236,3.2652,0.0,0.0,0.0,0.0,0.0,0.0,0.0,0.0,0.0,0.0,0.0,0.0,0.0,0.0,0.0,0.0,0.0,0.0,0.0,0.0,0.0,0.0,3.2949,3.2988,3.28,3.2947,3.2994,3.2661,3.2613,3.2549,3.2406,3.2406,3.2406,3.2406,3.2214,3.2102,3.2102,3.2303,3.2397,3.2397,3.276,3.3082,3.3361,3.3361,3.3534,3.3951,3.3951,3.4262,3.4797,3.4566,3.4805,3.5348,3.5118,3.5137,3.5367,3.5367,3.5367,3.5333,0.0,0.0,0.0,0.0,3.5007,3.5144,3.5144,3.5247,3.5386,3.5595,3.5549,3.5505,3.5942,3.5951,3.594,3.6338,3.6273,3.6206,3.6602,3.6403,3.6165,3.6405,3.6312,3.6201,3.6201,3.6201,3.6201,3.6201,3.6201,0.0,3.5586,3.5493,3.5493,3.5493,3.5493,3.5493,3.5493,3.4988,3.4574,3.4331,3.3632,3.3006,3.2547,3.2509,0.0,0.0,0.0,3.3228,3.2971,3.3286,0.0,0.0,0.0,3.3673,3.3908,3.4071,0.0,0.0,3.3091,3.3195,0.0,0.0,0.0,0.0,0.0,0.0,0.0,0.0,0.0,0.0,0.0,0.0,0.0,0.0,0.0,0.0,3.3184,3.3402,3.3402,3.3402,3.3276,3.2991,3.2962,3.2851,3.2549,3.2517,3.2517,3.2517,3.2523,3.2545,3.2545,3.2976,0.0,0.0,0.0,3.3839,3.3878,3.3878,3.4087,3.4486,3.4486,3.4865,3.5538,3.5517,3.567,3.5999,3.5959,3.5959,3.5999,3.5999,3.5999,3.593,3.5282,3.5024,3.5024,3.5024,3.5286,3.5632,3.5632,0.0,0.0,3.6638,3.653,3.6309,3.6715,3.6618,3.6482,3.6883,3.6961,3.702,3.7363,3.7163,3.6867,3.6812,3.6534,3.6256,3.6201,3.6201,3.6201,3.6201,3.6201,3.6201,3.6146,3.6182,3.6201,3.6201,3.6201,3.6201,3.6201,3.5494,3.501,3.5063,3.4032,0.0,3.3405,3.3405,3.3557,3.3916,3.4274,3.465,3.5063,3.4743,3.4566,3.4621,3.4265,3.4106,3.416,3.4523,3.4667,3.4613,3.4215,3.3976,0.0,0.0,0.0,0.0,0.0,0.0,0.0,0.0,0.0,0.0,0.0,0.0,0.0,0.0,0.0,3.3274,3.3363,3.3402,3.3402,3.3402,3.3371,3.3307,3.3292,3.3276,3.3212,3.3197,3.3197,3.3197,3.3303,3.3386,3.3386,3.377,3.3983,3.3983,3.434,3.4685,3.507,3.507,3.5267,3.5658,3.5658,0.0,3.5896,3.5563,3.5636,3.5979,3.5664,3.5703,3.5999,3.5999,3.5999,3.5982,3.5828,3.5794,3.5794,3.5794,3.6079,3.6457,3.6457,3.6706,3.707,3.7148,3.7133,3.714,3.7551,3.7614,0.0,3.8121,3.802,3.7803,3.7861,3.7587,3.72,3.6886,3.6738,3.6608,3.6256,3.6201,3.6201,3.6201,3.6201,3.6109,3.5779,3.598,3.6201,3.6201,3.6201,3.6201,3.6201,3.5501,3.5133,3.5457,3.4686,3.4298,3.4615,3.465,3.4688,3.4763,3.4838,3.5063,3.5474,3.5104,3.5068,3.5385,3.5313,3.5426,3.5759,3.5833,3.5705,3.5376,3.4974,3.4626,0.0,0.0,0.0,0.0,0.0,0.0,0.0,0.0,0.0,0.0,0.0,3.4699,3.483,0.0,3.4073,3.3913,3.3765,3.3591,3.3418,3.3402,3.3402,3.3402,3.3402,3.3402,3.3402,3.3613,3.375,3.375,3.3995,3.415,3.415,3.4558,3.481,3.481,3.5171,3.5452,3.5703,3.5703,3.5803,3.5999,3.5999,3.5999,3.5999,3.6052,3.6169,3.6348,3.6348,3.6465,3.6643,3.6643,3.6643,3.6643,3.6643,3.6543,3.6348,3.6348,3.6638,3.701,3.701,3.7146,3.7324,3.7521,3.7599,3.7677,3.8125,3.8242,3.8301,3.8534,3.8447,3.8302,3.8302,3.8009,3.7642,3.7458,3.7236,3.6922,3.6331,3.6202,3.6073,3.5669,3.5595,3.554,3.5339,3.5467,3.5595,3.5595,3.5595,3.5595,3.5595,3.5085,3.4775,3.4992,3.4464,3.4172,3.4385,3.4783,3.5094,3.5279,3.5478,3.5698,3.5885,3.5698,3.5698,3.5903,3.5903,3.5996,3.6201,3.6201,3.6109,3.5907,3.5687,3.5284,0.0,0.0,0.0,0.0,0.0,0.0,0.0,3.7577,3.7334,3.7463,3.6808,3.6226,3.6265,3.569,3.5092,3.4766,3.436,3.3985,3.3639,3.3528,3.352,3.3535,3.3461,3.3441,3.3519,3.3883,3.4118,3.4196,3.4606,3.4824,3.4824,3.5273,3.5508,3.5508,3.5823,3.5999,3.5999,3.5999,3.6038,3.6152,3.6152,3.6174,3.6272,3.6638,3.6832,3.6834,3.7166,3.7305,3.7305,3.7305,3.7305,3.7305,3.7305,3.7166,3.6912,3.6834,3.7068,3.7422,3.7422,3.748,3.7598,3.7931,3.8029,3.8105,3.8495,3.8592,3.8592,3.8592,3.8592,3.8573,3.8495,3.8221,3.7928,3.7778,3.7504,3.708,3.6341,3.614,3.5883,3.5244,3.5045,3.4991,3.4899,3.4881,3.4917,3.4991,3.4991,3.4991,3.4991,3.4648,3.4432,3.4523,3.4162,3.3946,3.4017,3.463,3.5139,3.5467,3.5852,3.6072,3.6072,3.6164,3.6201,3.6201,3.6201,3.6201,3.6201,3.6201,3.6201,3.6201,3.6201,3.5815,3.6415,3.7123,3.7717,3.8054,3.8329,3.8615,0.0,3.8873,3.8761,3.8787,3.8374,3.791,3.764,3.6846,3.612,3.5798,3.5196,3.4673,3.4345,3.4032,3.3887,3.3993,3.3652,3.3558,3.3981,3.4075,3.4235,3.4609,3.5059,3.5312,3.5312,3.5723,3.594,3.594,3.5979,3.5999,3.5999,3.5999,3.6211,3.6619,3.6619,3.6814,3.7168,3.7207,3.7226,3.7244,3.7266,3.7305,3.7305,3.7305,3.7305,3.7305,3.7305,3.75,3.7716,3.7363,3.75,3.7834,3.7834,3.8105,3.8456,3.8514,3.8514,3.8534,3.8573,3.8592,3.8592,3.8592,3.8592,3.8495,3.8105,3.7954,3.7731,3.7022,3.6801,3.6659,3.6211,3.5872,3.5639,3.5547,3.5224,3.4899,3.4532,3.4477,3.4587,3.4954,3.4991,3.4991,3.4991,3.4643,3.4552,3.4882,3.4572,3.4481,3.4847,3.4938,3.5028,3.5064,3.5431,3.5669,3.5669,3.5999,3.6201,3.6201,3.6201,3.6201,3.6201,3.6201,3.6201,3.6201,3.6201,3.5962,3.766,3.8196,3.8524,3.8995,3.9394,3.972,3.987,3.995,3.9989,3.9989,3.9534,3.9129,3.8996,3.8156,3.7391,3.7073,3.6531,3.5998,3.5451,3.5154,3.4947,3.4823,3.4407,3.4238,3.443,3.4704,3.4938,3.5098,3.5508,3.5762,3.5762,3.5901,3.5999,3.5999,3.5999,3.5999,3.5999,3.5999,3.6096,3.6289,3.6289,3.6387,3.6545,3.6834,3.7088,3.7305,3.7305,3.7305,3.7305,3.7305,3.7305,3.7305,3.7305,3.7402,3.7559,3.7619,3.793,3.8301,3.8301,3.8436,3.8592,3.8592,3.8592,3.8553,3.8281,3.8203,3.8144,3.7928,3.785,3.7811,3.7598,3.7541,3.7484,3.7112,3.7038,3.6874,3.6237,3.6005,3.5701,3.5036,3.4769,3.4521,3.4127,3.4037,3.411,3.4276,3.4312,3.4312,3.4312,3.4147,3.4128,3.4294,3.4147,3.4111,3.4294,3.4514,3.4642,3.4642,3.5027,3.5266,3.5266,3.5412,3.5614,3.5834,3.5852,3.5981,3.6201,3.6201,3.6201,3.6201,3.6201,3.6109,3.8724,3.9138,3.9331,3.9729,4.021,4.0619,4.0619,4.0722,4.085,4.085,4.0421,4.0033,4.0033,3.9306,3.8686,3.8597,3.8047,3.7473,3.6965,3.6417,3.5953,3.5654,3.5179,3.4941,3.5059,3.5273,3.5466,3.5566,3.5842,3.5999,3.5999,3.5999,3.5999,3.5999,3.5999,3.5999,3.5999,3.5999,3.6057,3.6191,3.6191,3.6252,3.6369,3.6716,3.7029,3.7305,3.7305,3.7305,3.7305,3.7305,3.7305,3.7305,3.7305,3.7305,3.7324,3.7619,3.7949,3.8241,3.8241,3.8241,3.8241,3.8241,3.8241,3.8182,3.7851,3.7736,3.7677,3.7383,3.7305,3.7266,3.7148,3.7129,3.709,3.6973,3.6953,3.6768,3.6197,3.6001,3.5697,3.4858,3.4612,3.4457,3.4163,3.4024,3.3973,3.3973,3.3869,3.3799,3.3799,3.3799,3.3799,3.3799,3.3799,3.3799,3.3799,3.4073,3.4221,3.4221,3.4606,3.4844,3.4844,3.4936,3.5156,3.5431,3.5412,3.5577,3.587,3.587,3.587,3.587,3.587,3.587,3.9427,3.9946,4.0369,4.0355,4.0778,4.1187,4.1187,4.1187,4.1172,4.1172,4.0923,4.0677,4.0677,4.0173,3.9927,4.0423,3.9666,3.8994,3.8838,3.7641,3.667,3.64,3.5785,3.5527,3.592,3.5625,3.5566,3.5959,3.5999,3.5999,3.5999,3.5999,3.5999,3.5999,3.5999,3.5999,3.5999,3.5999,3.623,3.6695,3.6695,3.6873,3.7266,3.7266,3.7285,3.7305,3.7305,3.7305,3.7305,3.7305,3.7305,3.7305,3.7305,3.7305,3.7305,3.7305,3.7324,3.7344,3.7344,3.7344,3.7344,3.7344,3.7344,3.7324,3.7324,3.7324,3.7324,3.7305,3.7305,3.7207,3.6814,3.6714,3.6599,3.6135,3.6038,3.6038,3.6001,3.5745,3.5506,3.5472,3.5144,3.4887,3.487,3.4594,3.437,3.437,3.4042,3.3799,3.3799,3.3799,3.3799,3.3799,3.3799,3.3799,3.3799,3.3799,3.3818,3.3818,3.4202,3.4422,3.4422,3.4789,3.5009,3.5009,3.5009,3.5009,3.5028,3.5028,3.5028,3.5028,3.5028,3.5028,3.9994,4.0258,4.0489,4.085,4.1066,4.1187,4.1187,4.1187,4.1187,4.1187,4.11,4.1134,4.1508,4.1219,4.1091,4.1649,4.1183,4.0657,4.0347,3.9206,3.818,3.7599,3.6703,3.6093,3.5996,3.5881,3.5842,3.5999,3.5999,3.5999,3.5999,3.5999,3.5999,3.5999,3.5999,3.5999,3.5999,3.5999,3.6077,3.623,3.623,3.6309,3.6428,3.6428,3.6428,3.6428,3.6428,3.6428,3.6428,3.6428,3.6428,3.6428,3.6428,3.6428,3.6428,3.6428,3.6428,3.6506,3.7109,3.7305,3.7305,3.7305,3.7305,3.7246,3.699,3.6892,3.6834,3.6543,3.6428,3.6426,3.6269,3.623,3.6211,3.6038,3.5999,3.5999,3.5999,3.5913,3.576,3.5538,3.5384,3.5213,3.4956,3.4818,3.4663,3.4422,3.4059,3.3799,3.3799,3.3799,3.3799,3.3799,3.3799,3.3799,3.3799,3.3799,3.3799,3.3799,3.3945,3.4001,3.4001,3.4129,3.4331,3.4605,3.4587,3.4734,3.4991,3.4991,3.4991,3.4991,3.4991,3.4991,4.0547,4.0705,4.0778,4.1114,4.1187,4.1187,4.1187,4.1187,4.1187,4.1187,4.1355,4.1596,4.1947,4.1987,4.2126,4.2651,4.2384,4.2001,4.1701,4.0668,3.9583,3.8611,3.7562,3.6705,3.6234,3.6067,3.5999,3.5999,3.5999,3.5999,3.5999,3.5999,3.5999,3.5999,3.5999,3.5999,3.5999,3.5999,3.5999,3.5999,3.5999,3.5999,3.5999,3.5999,3.5999,3.5999,3.5999,3.5999,3.5999,3.5999,3.5999,3.5999,3.5999,3.5999,3.5999,3.5999,3.5999,3.6077,3.6643,3.6836,3.6836,3.6836,3.6836,3.6797,3.6541,3.6462,3.6387,3.6077,3.5999,3.5999,3.5999,3.5999,3.5999,3.5999,3.5999,3.5999,3.5999,3.5999,3.593,3.5709,3.5675,3.5589,3.535,3.5196,3.499,3.4629,3.4267,3.3955,3.3817,3.3799,3.3799,3.3799,3.3799,3.3799,3.3799,3.3799,3.3799,3.3799,3.3799,3.3799,3.3799,3.3799,3.3909,3.4183,3.4202,3.4312,3.4587,3.4587,3.4587,3.4587,3.4587,3.4658,4.1066,4.1187,4.1187,4.1187,4.1187,4.1187,4.1187,4.1187,4.1211,4.1249,4.1658,4.2019,4.2067,4.2477,4.2982,4.3466,4.3264,4.3009,4.2863,4.1975,4.0819,3.9516,3.8366,3.7431,3.6674,3.6307,3.6069,3.6033,3.6016,3.5999,3.5999,3.5999,3.5999,3.5999,3.5999,3.5999,3.5999,3.5999,3.5999,3.5999,3.5999,3.5999,3.5999,3.5999,3.5999,3.5999,3.5999,3.5999,3.5999,3.5999,3.5999,3.5999,3.5999,3.5999,3.5999,3.5999,3.5999,3.5999,3.5999,3.5999,3.5999,3.5999,3.5999,3.5999,3.5999,3.5999,3.5999,3.5999,3.5999,3.5999,3.5999,3.5999,3.5999,3.5999,3.5999,3.5999,3.5999,3.5999,3.5999,3.5999,3.5999,3.5999,3.5999,3.5728,3.5406,3.5009,3.4703,3.434,3.3886,3.3817,3.3799,3.3818,3.3836,3.3836,3.3854,3.3854,3.3854,3.3854,3.3854,3.3854,3.3854,3.3854,3.3854,3.3854,3.3854,3.3872,3.3889,3.3871,3.3871,3.3887,3.3869,3.4059,4.1163,4.1187,4.1187,4.1187,4.1187,4.1187,4.1187,4.1187,4.1307,4.1706,4.1899,4.2221,4.2976,4.3241,4.3505,4.4003,4.3798,4.3582,4.3553,4.2451,4.1566,4.1329,4.0115,3.903,3.8343,3.7718,3.7066,3.6423,3.6152,3.5999,3.5999,3.5999,3.5999,3.5999,3.5999,3.5999,3.5999,3.5999,3.5999,3.5999,3.5999,3.5999,3.5999,3.5999,3.5999,3.5999,3.5999,3.5999,3.5999,3.5999,3.5999,3.5999,3.5999,3.5999,3.5999,3.5999,3.5999,3.5999,3.5999,3.5999,3.5999,3.5999,3.5999,3.5999,3.5999,3.5999,3.5999,3.5999,3.5999,3.5999,3.5999,3.5999,3.5999,3.5999,3.5999,3.5999,3.5999,3.5999,3.5999,3.5999,3.5999,3.5999,3.5999,3.598,3.5897,3.581,3.5764,3.5376,3.4376,3.399,3.3909,3.422,3.4257,3.4385,3.4679,3.468,3.468,3.468,3.468,3.468,3.468,3.468,3.468,3.468,3.468,3.484,3.5141,3.4844,3.4853,3.5132,3.4778,3.4681,4.1187,4.1187,4.1187,4.1187,4.1187,4.1187,4.1187,4.1379,4.1658,4.1947,4.2341,4.2832,4.3409,4.3682,4.3955,4.4252,4.4137,4.3966,4.3818,4.3333,4.2825,4.2275,4.1397,4.0437,3.9492,3.8512,3.7611,3.6809,3.6304,3.5999,3.5999,3.5999,3.5999,3.5999,3.5999,3.5999,3.5999,3.5999,3.5999,3.5999,3.5999,3.5999,3.5999,3.5999,3.5999,3.5999,3.5999,3.5999,3.5999,3.5999,3.5999,3.5999,3.5999,3.5999,3.5999,3.5999,3.5999,3.5999,3.5999,3.5999,3.5999,3.5999,3.5999,3.5999,3.5999,3.5999,3.5999,3.5999,3.5999,3.5999,3.5999,3.5999,3.6057,3.6269,3.6309,3.6348,3.6526,3.6565,3.6565,3.6565,3.6565,3.6565,3.6565,3.6603,3.6637,3.6637,3.6513,3.6176,3.551,3.4927,3.4739,3.5156,3.5033,3.5072,3.5474,3.5529,3.5529,3.5529,3.5368,3.526,3.526,3.5099,3.5081,3.526,3.526,3.5457,3.5867,3.5642,3.5653,3.5864,3.5583,3.5539,4.1187,4.1187,4.1187,4.1187,4.1259,4.1307,4.1307,4.173,4.2116,4.2188,4.288,4.3514,4.3586,4.3979,4.43,4.43,4.43,4.4231,4.4015,4.4333,4.4181,4.3022,4.2535,4.1792,4.0463,3.9192,3.8158,3.7364,3.6643,3.6152,3.5999,3.5999,3.5999,3.5999,3.5999,3.5999,3.5999,3.5999,3.5999,3.5999,3.6057,3.6096,3.6096,3.6155,3.6174,3.6174,3.6116,3.6096,3.6077,3.6018,3.5999,3.5999,3.5999,3.5999,3.5999,3.5999,3.6038,3.6096,3.6096,3.6135,3.6155,3.6038,3.5999,3.5999,3.5999,3.6038,3.6096,3.6096,3.6135,3.6174,3.6174,3.6174,3.6289,3.6677,3.6775,3.6873,3.7226,3.7305,3.7305,3.7305,3.7305,3.7305,3.7305,3.7344,3.7383,3.7383,3.7139,3.6945,3.6945,3.6209,3.5833,3.6246,3.5978,3.5908,3.6341,3.6358,3.6358,3.6358,3.6036,3.5839,3.5839,3.5498,3.548,3.5821,3.5839,3.6054,3.643,3.6391,3.6371,3.6424,3.6386,3.649,4.1187,4.1187,4.1187,4.1187,4.1523,4.1875,4.1875,4.2284,4.2765,4.3168,4.337,4.3634,4.4084,4.4228,4.43,4.43,4.43,4.4429,4.4814,4.4713,4.4674,4.4867,4.4314,4.3412,4.2196,4.1062,3.9858,3.852,3.7733,3.6947,3.605,3.5999,3.5999,3.5999,3.5999,3.5999,3.5999,3.5999,3.5999,3.5999,3.6387,3.658,3.658,3.6914,3.707,3.7051,3.6716,3.658,3.6541,3.6172,3.5999,3.5999,3.5999,3.5999,3.5999,3.5999,3.625,3.658,3.658,3.6814,3.6953,3.6233,3.5999,3.5999,3.5999,3.6269,3.658,3.658,3.6834,3.707,3.707,3.707,3.709,3.7168,3.7205,3.7225,3.7285,3.7305,3.7305,3.7305,3.7305,3.7305,3.7305,3.7598,3.7795,3.7795,3.8071,3.8287,3.8287,3.7001,3.6249,3.6662,3.6646,3.6742,3.7156,3.7194,3.7194,3.7194,3.7139,3.7084,3.7084,3.7011,3.7011,3.7084,3.7084,3.7285,3.7706,3.736,3.7329,3.7598,3.7266,3.7146,4.1187,4.1187,4.1259,4.1562,4.1803,4.2067,4.2356,4.2798,4.3232,4.3442,4.3715,4.4003,4.4252,4.43,4.4396,4.4661,4.4709,4.4917,4.5445,4.5622,4.5613,4.5419,4.5096,4.4349,4.2957,4.1926,4.077,3.9325,3.8731,3.7883,3.6623,3.6369,3.6166,3.5999,3.623,3.6348,3.6348,3.6582,3.668,3.668,3.6894,3.701,3.7029,3.7207,3.7305,3.7285,3.7107,3.701,3.6973,3.6777,3.668,3.668,3.668,3.668,3.668,3.668,3.6816,3.701,3.701,3.7146,3.7226,3.6816,3.668,3.668,3.668,3.6836,3.701,3.701,3.7148,3.7305,3.7305,3.7305,3.7344,3.756,3.7793,3.7987,3.7987,3.7987,3.7987,3.7987,3.7987,3.7987,3.7987,3.8125,3.8262,3.8262,3.8456,3.8592,3.8592,3.7933,3.7505,3.7735,3.7536,3.7596,3.7989,3.8008,3.8008,3.8008,3.7844,3.7715,3.7715,3.7513,3.7513,3.7715,3.7715,3.7917,3.832,3.8105,3.8099,3.8262,3.8084,3.7987,4.1187,4.1283,4.1475,4.1899,4.2149,4.2438,4.2862,4.3313,4.3682,4.3682,4.4003,4.43,4.43,4.4396,4.4613,4.5037,4.5205,4.5469,4.6014,4.6327,4.6278,4.5596,4.5421,4.4798,4.3377,4.2561,4.1559,4.0252,3.9723,3.8812,3.7304,3.6864,3.653,3.6289,3.6638,3.6834,3.6834,3.7129,3.7305,3.7305,3.7383,3.7441,3.7441,3.7519,3.7578,3.7559,3.7461,3.7441,3.7422,3.7344,3.7305,3.7305,3.7305,3.7305,3.7305,3.7305,3.7344,3.7441,3.7441,3.75,3.7578,3.7578,3.7441,3.7305,3.7305,3.7363,3.7441,3.7441,3.75,3.7578,3.7578,3.7578,3.7656,3.797,3.832,3.8592,3.8592,3.8592,3.8592,3.8592,3.8592,3.8592,3.8592,3.8592,3.8592,3.8592,3.8592,3.8592,3.8592,3.8592,3.8592,3.8592,3.832,3.8265,3.8574,3.8592,3.8592,3.8592,3.8302,3.8137,3.8137,3.7844,3.7807,3.8119,3.8137,3.8283,3.8592,3.8592,3.8592,3.8592,3.8592,3.8592,4.1187,4.1562,4.1947,4.1995,4.2702,4.3385,4.3433,4.385,4.4228,4.4228,4.4276,4.43,4.43,4.4685,4.5021,4.5085,4.5517,4.5998,4.6543,4.6255,4.595,4.587,4.5422,4.476,4.3835,4.3396,4.272,4.1694,4.0853,3.958,3.773,3.7305,3.7141,3.7185,3.7226,3.7246,3.7246,3.7285,3.7305,3.7305,3.7658,3.7853,3.7853,3.8299,3.8475,3.8456,3.8047,3.7853,3.7814,3.7461,3.7305,3.7305,3.7305,3.7305,3.7305,3.7305,3.7539,3.7853,3.7853,3.8125,3.8475,3.8475,3.7948,3.7305,3.7305,3.7559,3.7853,3.7853,3.8144,3.8475,3.8475,3.8475,3.8475,3.8514,3.8573,3.8592,3.8592,3.8592,3.8592,3.8592,3.8592,3.8592,3.8592,3.8592,3.8592,3.8592,3.8592,3.8592,3.8592,3.8592,3.8592,3.8592,3.8574,3.8556,3.8592,3.8592,3.8592,3.8592,3.8574,3.8538,3.8538,3.8501,3.8501,3.8538,3.8538,3.8556,3.8592,3.8592,3.8592,3.8592,3.8592,3.8592,4.1596,4.1851,4.214,4.275,4.3201,4.3586,4.3907,4.4132,4.43,4.43,4.43,4.4396,4.4709,4.4965,4.5301,4.5966,4.6255,4.6567,4.7112,4.6711,4.6255,4.5942,4.5421,4.4767,4.3889,4.3662,4.3223,4.2302,4.1397,4.0414,3.9201,3.8598,3.8089,3.7674,3.7645,3.7658,3.7658,3.793,3.8084,3.8084,3.8242,3.832,3.832,3.8514,3.8592,3.8573,3.8398,3.832,3.8301,3.8162,3.8084,3.8084,3.8084,3.8084,3.8084,3.8084,3.8164,3.832,3.832,3.8436,3.8592,3.8592,3.8358,3.8084,3.8084,3.8184,3.832,3.832,3.8456,3.8592,3.8592,3.8592,3.8592,3.8592,3.8592,3.8592,3.8592,3.8592,3.8592,3.8592,3.8592,3.8592,3.8592,3.8592,3.8592,3.8592,3.8592,3.8592,3.8592,3.8592,3.8592,3.8592,3.8592,3.8592,3.8592,3.8592,3.8592,3.8592,3.8592,3.8592,3.8592,3.8592,3.8592,3.8592,3.8592,3.8592,3.8592,3.8592,3.8592,3.8592,3.8592,3.8592,4.2091,4.2332,4.2606,4.3337,4.361,4.3835,4.4204,4.43,4.43,4.43,4.442,4.4637,4.5037,4.5349,4.5806,0.0,4.6832,4.7064,4.7449,4.6904,4.6327,4.5926,4.5277,4.4631,4.4005,4.3922,4.378,4.3448,4.246,4.1619,4.1007,4.0075,3.9108,3.8139,3.8112,3.8107,3.8107,3.8436,3.8592,3.8592,3.8592,3.8592,3.8592,3.8592,3.8592,3.8592,3.8592,3.8592,3.8592,3.8592,3.8592,3.8592,3.8592,3.8592,3.8592,3.8592,3.8592,3.8592,3.8592,3.8592,3.8592,3.8592,3.8592,3.8592,3.8592,3.8592,3.8592,3.8592,3.8592,3.8592,3.8592,3.8592,3.8592,3.8592,3.8592,3.8592,3.8592,3.8592,3.8592,3.8592,3.8592,3.8592,3.8592,3.8592,3.8592,3.8592,3.8592,3.8592,3.8592,3.8592,3.8592,3.8592,3.8592,3.8592,3.8592,3.8592,3.8592,3.8592,3.8592,3.8592,3.8592,3.8592,3.8592,3.8592,3.8592,3.8592,3.8592,3.8592,3.8592,3.8592,3.8592,3.8592,4.266,4.3135,4.3505,4.349,4.3907,4.43,4.43,4.43,4.43,4.43,4.4709,4.5085,4.5109,4.5966,4.6687,4.6687,0.0,4.7497,4.7497,4.6567,4.5918,4.5902,4.4965,4.43,4.43,4.4168,4.4516,4.5493,4.427,4.3377,4.3093,4.1675,4.0182,3.8627,3.8573,3.8592,3.8592,3.8592,3.8592,3.8592,3.8592,3.8592,3.8592,3.8592,3.8592,3.8592,3.8592,3.8592,3.8592,3.8592,3.8592,3.8592,3.8592,3.8592,3.8592,3.8592,3.8592,3.8592,3.8592,3.8592,3.8592,3.8592,3.8592,3.8592,3.8592,3.8592,3.8592,3.8592,3.8592,3.8592,3.8592,3.8592,3.8592,3.8592,3.8592,3.8592,3.8592,3.8592,3.8592,3.8592,3.8592,3.8592,3.8592,3.8592,3.8592,3.8592,3.8592,3.8592,3.8592,3.8592,3.8592,3.8592,3.8592,3.8592,3.8592,3.8592,3.8592,3.8592,3.8592,3.8592,3.8592,3.8592,3.8592,3.8592,3.8592,3.8592,3.8592,3.8592,3.8592,3.8592,3.8592,3.8592,4.3063,4.3385,4.3586,4.3955,4.418,4.43,4.43,4.43,4.43,4.43,4.4748,4.5205,4.5565,4.6231,4.6807,4.7185,4.7401,4.7377,4.7,4.6351,4.5758,4.5397,4.5061,4.4845,4.4845,4.5021,4.5153,4.5249,4.4007,4.284,4.1972,4.0752,3.9858,3.9371,3.8865,3.8592,3.8592,3.8592,3.8592,3.8592,3.8592,3.8592,3.8592,3.8592,3.8592,3.8592,3.8592,3.8592,3.8592,3.8592,3.8592,3.8592,3.8592,3.8592,3.8592,3.8592,3.8592,3.8592,3.8592,3.8592,3.8592,3.8592,3.8592,3.8592,3.8592,3.8592,3.8592,3.8592,3.8592,3.8592,3.8592,3.8592,3.8592,3.8592,3.8592,3.8592,3.8592,3.8592,3.8592,3.8592,3.8592,3.8592,3.8592,3.8592,3.8592,3.8592,3.8592,3.8592,3.8592,3.8592,3.8592,3.8592,3.8592,3.8592,3.8592,3.8592,3.8592,3.8592,3.8592,3.8592,3.8592,3.8592,3.8592,3.8592,3.8592,3.8729,3.9004,3.9004,3.916,3.9491,3.9491,3.9491,4.3586,4.3787,4.3883,4.4228,4.43,4.43,4.43,4.43,4.4348,4.4565,4.5037,4.5565,4.611,4.6639,4.7112,4.7449,4.7497,4.7329,4.6776,4.6231,4.5686,4.5157,4.5109,4.5253,4.5662,4.5783,4.5757,4.5602,4.4562,4.3428,4.2331,4.12,4.0451,4.0164,3.9156,3.8665,3.8811,3.883,3.883,3.883,3.883,3.8738,3.8592,3.8592,3.8592,3.8592,3.8592,3.8592,0.0,3.8592,3.869,3.8827,3.8827,3.8944,3.91,3.91,3.91,3.91,3.91,3.91,3.91,3.91,3.91,3.91,3.91,3.8866,3.8592,3.8592,3.8592,3.8592,3.8592,3.8592,3.8592,3.8592,3.8592,3.8592,3.8592,3.8592,3.8592,3.8592,3.8592,3.8592,3.8592,3.8592,3.8592,3.8592,3.8592,3.8592,3.8592,3.8592,3.8592,3.8592,3.8592,3.8651,3.8807,3.869,3.8592,3.8592,3.8749,3.8827,3.8827,3.9003,3.91,3.91,3.91,3.9218,3.9453,3.9453,3.9609,3.9902,3.9902,3.9902,0.0,4.43,4.43,4.43,4.43,4.43,4.43,4.4324,0.0,4.5013,4.5565,4.611,4.6615,4.7136,4.7497,4.7497,4.7473,4.7257,4.6711,4.6182,4.5662,4.5157,4.5181,4.5614,4.6591,4.6425,4.6293,4.6399,4.5697,4.4795,4.3749,4.2651,4.1718,4.1007,3.9588,3.8974,3.9284,3.9284,3.9266,3.9248,3.9251,3.9052,3.8706,3.8725,3.8745,3.8745,3.8745,3.8727,3.869,3.869,3.8925,3.9258,3.9275,3.9568,3.9959,3.9958,3.9996,3.9996,3.9996,3.9996,3.9996,3.9996,3.9996,3.9996,3.9959,3.9353,3.869,3.869,3.869,3.869,3.869,3.869,3.869,3.869,3.8671,3.8631,3.8631,3.8612,3.8592,3.8592,3.8592,3.8592,3.8592,3.8592,3.8592,3.8592,3.8592,3.8612,3.8631,3.8631,3.8651,3.869,3.869,3.8846,3.9219,3.8885,3.8651,3.869,3.9043,3.9258,3.9258,3.9668,3.9902,3.9902,3.9922,3.9941,3.9941,3.998,3.998,3.998,3.998,3.998,4.4156,0.0,4.43,4.43,4.43,4.43,0.0,4.4613,4.4965,0.0,0.0,4.6543,4.6663,4.7136,4.7497,4.7497,4.7161,4.6687,4.6158,4.5614,4.5253,4.5093,4.583,4.6423,4.6663,4.6775,4.6713,4.6422,4.5477,4.4555,4.3744,4.2875,4.2187,4.1764,4.1392,4.0844,4.004,4.004,3.9896,3.959,3.9621,3.9616,3.9524,3.9878,4.0055,4.0055,4.0055,3.9869,3.959,3.959,3.9648,3.9764,4.0082,4.0254,4.0409,4.0689,4.082,4.082,4.082,4.082,4.082,4.082,4.082,4.0764,4.0465,4.0009,3.959,3.959,3.959,3.959,3.959,3.959,3.959,3.959,3.9316,3.9062,3.9062,3.8827,3.8592,3.8592,3.8592,3.8592,3.8592,3.8592,3.8592,3.8592,3.8592,3.871,3.9004,3.9062,3.9199,3.9569,3.959,3.9629,3.9726,3.9316,3.9199,3.957,3.9668,3.9726,3.9726,3.9844,3.9902,3.9902,4.0215,4.0352,4.0352,4.0703,4.0898,4.0898,4.0898,4.0898,4.4228,4.43,4.43,4.43,4.43,4.4372,4.4613,4.4877,4.5229,0.0,0.0,4.6776,4.7,4.7288,4.7425,4.7185,4.688,4.6423,4.5638,4.5277,4.5181,4.5445,4.6206,4.6783,4.7024,4.7163,4.7082,4.6697,4.6143,4.5477,4.476,4.4119,4.3636,4.3289,4.3525,4.2916,4.1324,4.1551,4.1477,4.1082,4.1175,4.1032,4.0663,4.0737,4.0782,4.0782,4.0782,4.0651,4.0465,4.0465,4.0658,4.1025,4.1231,4.1671,4.223,4.2455,4.2643,4.2791,4.2791,4.2791,4.2791,4.2791,4.266,4.2493,4.2268,4.1798,4.1113,4.017,3.9902,3.9902,3.9902,3.9902,3.9902,3.9902,3.9707,3.9512,3.9512,3.9336,3.9198,3.9198,3.9198,3.9198,3.9198,3.9198,3.9198,3.9198,3.9198,3.9276,3.9492,3.9512,3.9609,3.9863,3.9902,3.998,4.0176,3.9942,3.9844,3.9883,4.0078,4.0176,4.0176,4.0371,4.0507,4.0507,4.0703,4.082,4.082,4.1074,4.1191,4.1191,4.1405,4.1483,4.43,4.43,4.43,4.43,4.43,4.4444,4.4989,4.5157,0.0,0.0,0.0,4.6952,4.7425,4.7497,4.7329,4.6783,4.6567,4.6134,4.5229,4.5181,4.5421,4.5966,4.6495,4.7,4.7449,4.7497,4.7348,4.7015,4.6982,4.6697,4.6025,4.5716,4.5456,4.5188,4.5685,4.5122,4.3351,4.3571,4.3446,4.2981,4.3131,4.2811,4.2146,4.182,4.1654,4.1654,4.16,4.1561,4.1561,4.1561,4.2009,4.2693,4.275,4.3466,4.448,4.4537,4.4819,4.5156,4.5156,4.5156,4.5156,4.5156,4.4894,4.4537,4.448,4.3896,4.2879,4.107,4.0418,4.0267,4.0267,4.0229,4.0192,4.0192,4.0096,4.0,4.0,3.9941,3.9902,3.9902,3.9902,3.9902,3.9902,3.9902,3.9902,3.9902,3.9902,3.9922,3.998,4.0,4.0019,4.0078,4.0098,4.0234,4.0567,4.0606,4.0469,4.0117,4.043,4.0606,4.0606,4.0996,4.1191,4.1191,4.1191,4.1191,4.1191,4.1269,4.1327,4.1405,4.1792,4.2024,4.43,4.43,4.43,4.43,4.43,4.4444,4.4989,4.5445,4.595,4.6567,4.7064,4.7401,4.7473,4.7497,4.7329,4.6783,4.5942,4.5301,4.5133,4.5493,4.599,4.6519,4.7048,4.7425,4.7497,4.7497,4.7348,4.7015,4.6982,4.6798,4.6338,4.6693,4.6876,4.6825,4.7351,4.7481,4.7162,4.5987,4.5038,4.4304,4.4385,4.4365,4.4236,4.4233,4.4236,4.4217,4.3878,4.3706,4.3704,4.3704,4.3991,4.445,4.479,4.5244,4.5773,4.611,4.6441,4.6751,4.6751,4.6751,4.6751,4.6751,4.6514,4.6166,4.5828,4.5159,4.4388,4.3729,4.2797,4.2015,4.2015,4.1767,4.1517,4.1517,4.0933,4.041,4.041,4.0156,3.9902,3.9902,3.9902,3.9902,3.9902,3.9902,3.9902,3.9902,3.9902,4.0019,4.0352,4.041,4.0566,4.0957,4.0996,4.1015,4.1094,4.1094,4.1074,4.0996,4.1054,4.1094,4.1094,4.1152,4.1191,4.1191,4.1191,4.1191,4.1191,4.154,4.1889,4.2216,4.2621,4.3004,4.43,4.43,4.4372,4.4661,4.4733,4.4877,4.5421,4.5966,4.6471,0.0,4.7329,4.7497,4.7497,4.7257,4.6783,4.5974,4.5421,4.5109,4.5109,4.5806,4.6423,4.6663,4.7185,4.7497,4.7497,4.7497,4.7431,4.7281,4.7528,4.7628,4.7436,4.7937,4.8222,4.8222,4.8763,4.8921,4.8695,4.8327,4.7576,4.654,4.6421,4.6264,4.6043,4.5633,4.5443,4.5443,4.5256,4.5312,4.5496,4.5496,4.5847,4.6381,4.657,4.7012,4.7617,4.8023,4.8259,4.8399,4.8399,4.8399,4.8399,4.8399,4.815,4.7804,4.7617,4.6887,4.6058,4.5869,4.4331,4.2717,4.2717,4.2428,4.2082,4.185,4.1479,4.1129,4.0937,4.0723,4.0605,4.0605,4.0605,4.0605,4.0605,4.0605,4.0605,4.0605,4.0605,4.0683,4.084,4.0879,4.0976,4.1172,4.1191,4.1191,4.1191,4.1191,4.1191,4.1191,4.1191,4.1191,4.1191,4.1191,4.1191,4.1191,4.1191,4.1191,4.1191,4.1811,4.2331,4.2754,4.3575,4.4182,4.43,4.4396,4.4589,4.5013,4.5109,4.5277,4.5942,4.6399,0.0,0.0,0.0,4.7473,4.7329,4.6759,4.611,4.5397,4.5181,4.5181,4.5445,4.6182,4.6735,4.688,4.7257,4.7497,4.7497,4.7497,4.7545,4.7666,4.805,4.8339,4.8476,4.9005,4.9287,4.9287,4.9817,4.9948,4.9632,5.0038,4.9665,4.8495,4.8297,4.8027,4.7717,4.6998,4.6666,4.6666,4.6596,4.678,4.7149,4.7149,4.753,4.8127,4.8127,4.8636,4.9421,4.9822,5.0037,5.0173,5.0173,5.0173,5.0173,5.0173,4.9879,4.9572,4.9572,4.8808,4.7951,4.7877,4.6142,4.4207,4.3694,4.3117,4.2581,4.2178,4.1947,4.1695,4.1288,4.1191,4.1191,4.1191,4.1191,4.1191,4.1191,4.1191,4.1191,4.1191,4.1191,4.1191,4.1191,4.1191,4.1191,4.1191,4.1191,4.123,4.1328,4.1348,4.1387,4.1484,4.1308,4.125,4.1347,4.1347,4.1386,4.1463,4.1463,4.1541,4.1618,4.2528,4.3242,4.3777,4.5098,4.5936,4.43,4.4661,4.5061,4.5085,4.5109,0.0,4.6399,4.6663,0.0,4.7401,0.0,0.0,4.6856,4.5902,4.5349,4.5758,4.5421,4.5445,4.6447,4.6639,4.688,4.7377,4.7473,4.7497,4.7497,4.7497,4.7714,4.8195,4.8284,4.8524,4.9005,4.9552,4.9841,4.9841,5.0359,5.063,5.0595,5.0636,5.0246,4.9426,4.9378,4.9365,4.9329,4.8892,4.8694,4.8675,4.8377,4.8409,4.873,4.873,4.8982,4.9383,4.9383,4.9958,5.0799,5.1202,5.1658,5.2108,5.2108,5.2108,5.2108,5.2108,5.1834,5.1518,5.1518,5.0929,5.0165,4.9811,4.902,4.7815,4.5752,4.4371,4.3405,4.3004,4.2332,4.1695,4.1288,4.1191,4.1191,4.1191,4.1191,4.1191,4.1191,4.1191,4.1191,4.1191,4.1191,4.1191,4.1191,4.1191,4.1191,4.1191,4.1191,4.1348,4.1719,4.1758,4.1914,4.2285,4.1601,4.1366,4.1734,4.1753,4.1927,4.2312,4.2312,4.2505,4.2851,4.4123,4.5135,4.6017,4.7645,4.8624,4.4709,4.4965,4.5253,4.5926,4.6086,0.0,0.0,4.6968,4.7257,4.7473,4.7216,0.0,4.587,4.5638,4.5541,4.5421,4.5782,4.6231,4.6639,4.6992,4.7264,4.7473,4.7497,4.7497,4.7497,4.781,4.8074,4.8267,4.8909,4.9383,4.96,5.0112,5.0401,5.0401,5.06,5.0696,5.0696,5.0696,5.0554,5.0228,4.9997,4.9866,4.9872,4.9455,4.9252,4.9275,4.9132,4.9293,4.9675,5.0005,5.0381,5.0771,5.1123,5.1452,5.1789,5.1934,5.2133,5.2301,5.2301,5.2301,5.2301,5.2301,5.221,5.2058,5.2058,5.1692,5.1208,5.106,5.0258,4.9024,4.7175,4.5984,4.5062,4.4404,4.3606,4.2861,4.2467,4.2151,4.1953,4.1953,4.1953,4.1953,4.1953,4.1953,4.1953,4.1953,4.1953,4.1953,4.1953,4.1953,4.1953,4.1953,4.1953,4.2012,4.2148,4.2167,4.2246,4.2402,4.2109,4.2151,4.2605,4.2841,4.3312,4.4015,4.4307,4.4656,4.5041,4.604,4.6816,4.7405,4.8798,4.966,4.4997,4.5349,4.5782,4.6519,0.0,0.0,4.6952,4.7233,4.7497,4.7497,4.7072,4.6423,4.5517,4.5638,4.5846,4.5638,4.6231,4.6759,4.6928,4.7281,4.7497,4.7497,4.7497,4.7569,4.7738,4.8074,4.8452,4.8789,4.9504,4.9985,5.0136,5.0503,5.0696,5.0696,5.0696,5.0696,5.0696,5.0696,5.0696,5.0696,5.043,5.0282,5.0264,5.0015,4.9961,5.0127,5.0127,5.0383,5.0807,5.1183,5.1513,5.1796,5.2157,5.2397,5.2542,5.2542,5.2638,5.2764,5.2764,5.2764,5.2764,5.2764,5.2764,5.2764,5.2764,5.258,5.2334,5.2204,5.1591,5.0635,4.9265,4.7778,4.6401,4.5585,4.4625,4.3777,4.3221,4.2722,4.2402,4.2402,4.2402,4.2402,4.2402,4.2402,4.2402,4.2402,4.2402,4.2442,4.2602,4.2622,4.2622,4.2622,4.2482,4.246,4.2597,4.2757,4.2857,4.3014,4.3296,4.3459,4.3519,4.4034,4.4763,4.576,4.6227,4.673,4.7247,4.8112,4.8736,4.9132,5.0373,5.1086,4.5093,4.5878,4.6687,4.6711,0.0,0.0,4.7497,4.7497,4.7497,4.7497,4.7064,4.6519,4.6014,4.5902,4.607,4.6615,4.6711,4.688,4.7425,4.7497,4.7497,4.7497,4.7497,4.7714,4.8243,4.8308,4.8765,4.9817,4.9913,5.0136,5.0672,5.0696,5.0696,5.0696,5.0696,5.0696,5.0696,5.0696,5.0696,5.0696,5.072,5.072,5.072,5.072,5.1008,5.1507,5.1507,5.182,5.2301,5.2301,5.2301,5.2301,5.2301,5.2638,5.3114,5.3114,5.3389,5.3803,5.3803,5.3803,5.3803,5.3803,5.3803,5.3803,5.3803,5.3803,5.3728,5.3313,5.3205,5.3034,5.2234,4.9788,4.731,4.644,4.5313,4.4193,4.332,4.2762,4.2421,4.2421,4.2421,4.2421,4.2421,4.2421,4.2421,4.2421,4.2421,4.2602,4.3061,4.3121,4.3121,4.3121,4.2702,4.2617,4.3087,4.3493,4.3914,4.4392,4.523,4.533,4.445,4.5195,4.6229,4.7523,4.7919,4.8528,4.9344,5.0261,5.0912,5.1332,5.2604,5.3205,4.6038,4.6471,4.6783,4.7185,4.7377,4.7497,0.0,4.7497,0.0,0.0,4.6519,4.6086,4.5926,4.6206,4.6519,4.6663,4.7,4.7329,4.7473,4.7497,4.7497,4.7497,4.7834,4.8139,4.8267,4.8981,4.9552,4.9889,5.0256,5.0527,5.0696,5.0696,5.0696,5.0696,5.0696,5.0696,5.0696,5.0696,5.0696,5.072,5.1081,5.1249,5.1249,5.1249,5.1555,5.2061,5.2061,5.2157,5.2325,5.271,5.3071,5.3365,5.3365,5.3461,5.3606,5.3606,5.3683,5.3803,5.3803,5.3803,5.3803,5.3803,5.3803,5.3803,5.3803,5.3803,5.3785,5.3653,5.3408,5.3167,5.292,5.1284,4.9576,4.9063,4.7542,4.6073,4.5491,4.4542,4.3708,4.3382,4.33,4.3422,4.3749,4.381,4.3912,4.4176,4.4217,4.4278,4.442,4.444,4.444,4.444,4.4298,4.4419,4.4885,4.5048,4.5413,4.6103,4.6709,4.6785,4.6253,4.7009,4.8172,4.9708,5.0193,5.083,5.1631,5.1903,5.2111,5.2225,5.2883,5.3205,4.6471,4.6872,4.7112,4.7425,4.7497,4.7497,4.7497,4.7497,4.7281,4.6543,4.6471,4.6471,4.6255,4.6663,4.7,4.7,4.7305,4.7497,4.7497,4.7497,4.7569,4.7786,4.8098,4.8476,4.8885,4.9511,4.9985,5.0208,5.0503,5.0696,5.0696,5.0696,5.0696,5.0696,5.0696,5.0696,5.0696,5.0912,5.1008,5.1032,5.1562,5.194,5.2133,5.1916,5.2109,5.2614,5.2812,5.2884,5.2908,5.3245,5.3558,5.3803,5.3803,5.3803,5.3803,5.3803,5.3803,5.3803,5.3803,5.3803,5.3803,5.3803,5.3803,5.3803,5.3803,5.3803,5.3803,5.3803,5.3615,5.3427,5.3427,5.2414,5.1178,5.0271,4.8329,4.6565,4.6087,4.4885,4.3854,4.3712,4.3427,4.3445,4.4255,4.4255,4.4315,4.4923,4.5148,4.5332,4.5495,4.5515,4.5596,4.5759,4.5779,4.5881,4.6144,4.6487,4.6971,4.7611,4.8248,4.8646,4.8745,4.9019,4.9825,5.1208,5.1805,5.244,5.3086,5.3086,5.3086,5.3086,5.3332,5.3427,4.6615,4.7136,4.7497,4.7497,4.7497,4.7473,4.7377,4.7425,4.7233,4.6255,4.6783,4.7305,4.6856,4.7185,4.7497,4.7497,4.7497,4.7497,4.7497,4.7545,4.7762,4.8243,4.8404,4.8837,4.9817,4.9937,5.0184,5.0672,5.0696,5.0696,5.0696,5.0696,5.0696,5.0696,5.0696,5.072,5.0768,5.1249,5.1513,5.158,5.2109,5.2614,5.309,5.259,5.2662,5.3191,5.3611,5.3803,5.3803,5.3803,5.3803,5.3803,5.3803,5.3803,5.3803,5.3803,5.3803,5.3803,5.3803,5.3803,5.3803,5.3803,5.3803,5.3803,5.3803,5.3803,5.3803,5.3803,5.3803,5.3803,5.3803,5.3171,5.2134,5.0548,4.822,4.6234,4.5786,4.4351,4.328,4.3679,4.3061,4.2898,4.4281,4.4139,4.4137,4.5046,4.5576,4.6023,4.6366,4.6447,4.6629,4.7051,4.7131,4.715,4.7191,4.7951,4.8626,4.9057,4.9825,5.0646,5.1482,5.105,5.1246,5.2077,5.2844,5.3389,5.3803,5.3803,5.3803,5.3803,5.3803,5.3803,4.7185,4.7425,4.7497,4.7497,4.7497,4.7281,4.6447,4.6896,4.7425,4.7209,4.7,4.6968,4.7281,4.7425,4.7497,4.7497,4.7497,4.7497,4.7497,4.7858,4.8171,4.8284,4.9029,4.9648,4.9889,5.028,5.0576,5.0696,5.0696,5.0696,5.0696,5.0696,5.0696,5.0696,5.0696,5.0912,5.1321,5.1441,5.1724,5.2133,5.2662,5.2993,5.3114,5.2993,5.3191,5.3654,5.3755,5.3803,5.3803,5.3803,5.3803,5.3803,5.3803,5.3803,5.3803,5.3803,5.3803,5.3803,5.3803,5.3803,5.3803,5.3803,5.3803,5.3803,5.3803,5.3803,5.3803,5.3803,5.3803,5.3803,5.3803,5.2929,5.1963,5.1582,4.9583,4.7642,4.7172,4.5227,4.3699,4.416,4.3556,4.3492,4.5149,4.5027,4.5129,4.6388,4.6932,4.7233,4.7312,4.7592,4.7832,4.7931,4.8547,4.9059,4.9396,4.9864,5.0488,5.1246,5.1501,5.1828,5.2302,5.1943,5.2115,5.2939,5.311,5.3389,5.3803,5.3803,5.3803,5.3803,5.3803,5.3803,4.7353,4.7497,4.7497,4.7497,4.7096,4.6711,4.6663,4.6904,4.7185,4.7449,4.7281,4.7185,4.7449,4.7497,4.7497,4.7497,4.7497,4.7593,4.7834,4.8122,4.85,4.9005,4.9552,5.0009,5.0256,5.0545,5.0696,5.0696,5.0696,5.0696,5.0696,5.0696,5.0816,5.1081,5.1081,5.1345,5.1892,5.2133,5.2397,5.2686,5.3191,5.3456,5.3456,5.3456,5.3582,5.3803,5.3803,5.3803,5.3803,5.3803,5.3803,5.3803,5.3803,5.3803,5.3803,5.3803,5.3803,5.3803,5.3803,5.3803,5.3803,5.3803,5.3803,5.3803,5.3803,5.3803,5.3803,5.3803,5.3803,5.3803,5.3803,5.3161,5.2481,5.2269,5.0128,4.8086,4.7854,4.6105,4.4747,4.5212,4.4459,4.4181,4.5733,4.596,4.6327,4.7414,4.7753,4.8031,4.8468,4.8864,4.9199,4.9418,5.0202,5.0763,5.0999,5.1381,5.1901,5.2516,5.2555,5.2745,5.3162,5.2973,5.2973,5.3205,5.3389,5.3596,5.3803,5.3803,5.3803,5.3803,5.3803,5.3803,4.7377,4.7425,4.7353,4.7257,4.6615,4.6279,4.7161,4.7072,4.6952,4.7425,4.7497,4.7497,4.7497,4.7497,4.7497,4.7497,4.7569,4.7786,4.8236,4.8476,4.8909,4.9793,4.9985,5.0208,5.0648,5.0696,5.0696,5.0696,5.0696,5.0696,5.0696,5.0792,5.1032,5.1507,5.1604,5.1892,5.2422,5.2897,5.3119,5.3215,5.3606,5.3803,5.3803,5.3803,5.3803,5.3803,5.3803,5.3803,5.3803,5.3803,5.3803,5.3803,5.3803,5.3803,5.3803,5.3803,5.3803,5.3803,5.3803,5.3803,5.3803,5.3803,5.3803,5.3803,5.3803,5.3803,5.3803,5.3803,5.3803,5.3803,5.3803,5.3502,5.3129,5.2783,5.0681,4.8679,4.8402,4.7026,4.5976,4.6512,4.5834,4.549,4.6441,4.708,4.7695,4.8408,4.8587,4.8923,4.9729,5.0179,5.0591,5.0963,5.1736,5.2192,5.2192,5.2574,5.2954,5.3276,5.3295,5.3446,5.3785,5.3803,5.3634,5.3295,5.3634,5.3803,5.3803,5.3803,5.3803,5.3803,5.3803,5.3803,4.7473,4.7144,4.6704,4.6231,4.6351,4.6615,4.6759,4.7112,4.7425,4.7497,4.7497,4.7497,4.7497,4.7497,4.7497,4.7497,4.7882,4.8236,4.8308,4.9102,4.9744,4.9889,5.0304,5.0624,5.0696,5.0696,5.0696,5.0696,5.0696,5.0696,5.0696,5.1129,5.1417,5.1489,5.194,5.2446,5.2993,5.3047,5.3312,5.3707,5.3779,5.3803,5.3803,5.3803,5.3803,5.3803,5.3803,5.3803,5.3803,5.3803,5.3803,5.3803,5.3803,5.3803,5.3803,5.3803,5.3803,5.3803,5.3803,5.3803,5.3803,5.3803,5.3803,5.3803,5.3803,5.3803,5.3803,5.3803,5.3803,5.3803,5.3803,5.3502,5.3205,5.3124,5.2289,5.1083,4.9634,4.7937,4.6973,4.7796,4.8152,4.8217,4.7985,4.8622,4.9317,4.9788,5.0182,5.0611,5.1095,5.1501,5.177,5.1828,5.2555,5.3053,5.3053,5.3408,5.3672,5.3728,5.3728,5.3747,5.3803,5.3803,5.3766,5.3728,5.3766,5.3803,5.3803,5.3803,5.3803,5.3803,5.3803,5.3803,4.7136,4.6663,4.6279,4.6327,4.6519,4.6783,4.7088,4.7329,4.7497,4.7497,4.7497,4.7497,4.7497,4.7497,4.7593,4.7906,4.8163,4.8524,4.9102,4.96,5.0009,5.0304,5.0551,5.0696,5.0696,5.0696,5.0696,5.0696,5.0696,5.084,5.1129,5.1369,5.1772,5.2373,5.2614,5.2999,5.3485,5.3485,5.3606,5.3803,5.3803,5.3803,5.3803,5.3803,5.3803,5.3803,5.3803,5.3803,5.3803,5.3803,5.3803,5.3803,5.3803,5.3803,5.3803,5.3803,5.3803,5.3803,5.3803,5.3803,5.3803,5.3803,5.3803,5.3803,5.3803,5.3803,5.3803,5.3803,5.3803,5.3803,5.3803,5.3672,5.3464,5.3262,5.2916,5.2412,5.1431,5.0283,4.9458,4.9565,4.9769,4.9825,4.9629,4.9922,5.039,5.1053,5.1327,5.1616,5.2039,5.2421,5.2673,5.2673,5.3181,5.354,5.354,5.3709,5.3803,5.3803,5.3803,5.3803,5.3803,5.3803,5.3803,5.3803,5.3803,5.3803,5.3803,5.3803,5.3803,5.3803,5.3803,5.3803,4.6615,4.6206,4.6038,4.6567,4.6687,4.6832,4.7377,4.7497,4.7497,4.7497,4.7497,4.7545,4.7666,4.769,4.7834,4.8219,4.8524,4.8981,4.9793,5.0033,5.0256,5.0648,5.0696,5.0696,5.0696,5.0696,5.0768,5.0888,5.0912,5.1129,5.1658,5.1844,5.2277,5.3071,5.3215,5.3456,5.3803,5.3803,5.3803,5.3803,5.3803,5.3803,5.3803,5.3803,5.3803,5.3803,5.3803,5.3803,5.3803,5.3803,5.3803,5.3803,5.3803,5.3803,5.3803,5.3803,5.3803,5.3803,5.3803,5.3803,5.3803,5.3803,5.3803,5.3803,5.3803,5.3803,5.3803,5.3803,5.3803,5.3803,5.3803,5.3803,5.3728,5.3408,5.3351,5.32,5.2726,5.2111,5.1593,5.1243,5.1185,5.1185,5.1185,5.1319,5.1643,5.2402,5.261,5.2858,5.3256,5.3585,5.3757,5.3757,5.4042,5.4212,5.4212,5.4212,5.4212,5.4212,5.4212,5.4212,5.4212,5.4212,5.4212,5.4212,5.4212,5.4068,5.3803,5.3803,5.3803,5.3803,5.3803,5.3875,4.5966,4.5926,4.6038,4.6567,4.6687,4.6832,4.7377,4.7497,4.7497,4.7497,4.7497,4.7666,4.8147,4.826,4.8284,4.8308,4.915,4.9841,4.9889,5.0353,5.0672,5.0696,5.0696,5.0696,5.0696,5.0696,5.0912,5.1417,5.1441,5.17,5.2229,5.2734,5.3041,5.3114,5.3534,5.3779,5.3803,5.3803,5.3803,5.3803,5.3803,5.3803,5.3803,5.3803,5.3803,5.3803,5.3803,5.3803,5.3803,5.3803,5.3803,5.3803,5.3803,5.3803,5.3803,5.3803,5.3803,5.3803,5.3803,5.3803,5.3803,5.3803,5.3803,5.3803,5.3803,5.3803,5.3803,5.3803,5.3803,5.3803,5.3803,5.3803,5.3803,5.3766,5.3766,5.3559,5.2759,5.2569,5.2512,5.2512,5.2493,5.2493,5.2493,5.2911,5.3418,5.3846,5.4326,5.479,5.5197,5.5275,5.5294,5.5294,5.5294,5.5313,5.5313,5.5313,5.5313,5.5313,5.5313,5.5313,5.5313,5.5313,5.5313,5.5313,5.5313,5.4832,5.3803,5.3803,5.3803,5.3803,5.3803,5.4068,4.6471,4.6423,4.6471,4.6639,4.6968,4.7257,4.7473,4.7497,4.7497,4.7497,4.7762,4.8074,4.8267,4.8308,4.8524,4.9215,4.9648,5.0016,5.0377,5.0576,5.0696,5.0696,5.0696,5.0696,5.0696,5.0696,5.0912,5.1441,5.1489,5.1892,5.2777,5.2993,5.324,5.3534,5.3707,5.3803,5.3803,5.3803,5.3803,5.3803,5.3803,5.3803,5.3803,5.3803,5.3803,5.3803,5.3803,5.3803,5.3803,5.3803,5.3803,5.3803,5.3803,5.3803,5.3803,5.3803,5.3803,5.3803,5.3803,5.3803,5.3803,5.3803,5.3803,5.3803,5.3803,5.3803,5.3803,5.3803,5.3803,5.3875,5.4212,5.4308,5.438,5.476,5.4832,5.4756,5.4468,5.441,5.441,5.441,5.441,5.441,5.441,5.4553,5.4711,5.487,5.5077,5.5255,5.539,5.5385,5.5385,5.5385,5.5385,5.5385,5.5385,5.5385,5.5385,5.5385,5.5385,5.5385,5.5385,5.5385,5.5385,5.5385,5.5385,5.5217,5.4832,5.4832,5.4832,5.4832,5.4832,5.4928,4.6737,4.6687,4.6735,4.6928,4.7233,4.7497,4.7497,4.7497,4.7545,4.7738,4.805,4.8428,4.8765,4.8837,4.9053,4.9793,5.004,5.0304,5.0648,5.0696,5.0696,5.0696,5.0696,5.0696,5.0696,5.0864,5.1177,5.1748,5.194,5.2422,5.3288,5.3336,5.3485,5.3803,5.3803,5.3803,5.3803,5.3803,5.3803,5.3803,5.3803,5.3803,5.3803,5.3972,5.4068,5.4068,5.426,5.414,5.3803,5.3803,5.3803,5.3803,5.3803,5.3803,5.3803,5.3803,5.3803,5.3803,5.3803,5.3803,5.3803,5.3803,5.3924,5.4068,5.4068,5.4188,5.4351,5.4351,5.4351,5.4423,5.4784,5.488,5.4952,5.5313,5.553,5.5674,5.5674,5.553,5.5385,5.5385,5.5385,5.5385,5.5385,5.5554,5.5674,5.5674,5.5818,5.5938,5.5938,5.5938,5.5938,5.5938,5.5938,5.5938,5.5938,5.5938,5.5938,5.5938,5.5938,5.5938,5.5938,5.5938,5.5938,5.5938,5.5938,5.5938,5.5938,5.5578,5.5385,5.5385,5.5385,5.5506,0.0,0.0,0.0,4.7377,4.7497,4.7497,4.7497,4.7497,4.7642,4.8187,4.8315,4.8644,4.972,4.9913,4.9913,4.9913,5.0353,5.0696,5.0696,5.0696,5.0696,5.0696,5.0696,5.072,5.072,5.1201,5.1748,5.2277,5.2825,5.3312,5.3779,5.3803,5.3803,5.3803,5.3803,5.3803,5.3803,5.3803,5.3803,5.3803,5.3827,5.3827,5.3851,5.4399,5.464,5.4645,5.5169,5.4808,5.3851,5.3851,5.3851,5.3851,5.3851,5.3851,5.3851,5.3851,5.3851,5.3851,5.3851,5.3851,5.3851,5.3851,5.4188,5.464,5.464,5.4977,5.5385,5.5385,5.5385,5.5409,5.5409,5.5433,5.5433,5.5433,5.5847,5.6212,5.6212,5.5799,5.5433,5.5433,5.5433,5.5433,5.5433,5.5871,5.6212,5.6212,5.6664,5.7001,5.7001,5.7001,5.7001,5.7001,5.7001,5.7001,5.7001,5.7001,5.7001,5.7001,5.7001,5.7001,5.7001,5.7001,5.7001,5.7001,5.7001,5.7001,5.7001,5.5963,5.5433,5.5433,5.5433,5.5746,4.7693,0.0,0.0,0.0,0.0,0.0,4.7497,4.7497,4.7642,4.8187,4.862,4.9078,4.9769,5.0208,5.0479,5.0479,5.06,5.0696,5.0696,5.0696,5.0696,5.0696,5.0696,5.0864,5.1249,5.1393,5.1892,5.2806,5.3017,5.3312,5.3779,5.3803,5.3803,5.3803,5.3803,5.3803,5.3803,5.3803,5.3803,5.3803,5.4188,5.4399,5.438,5.4928,5.5169,5.5193,5.5337,5.5241,5.4952,5.4952,5.4952,5.4952,5.4952,5.4952,5.4952,5.4952,5.4952,5.4952,5.4952,5.4952,5.4952,5.4952,5.5049,5.5169,5.5169,5.5289,5.5385,5.5385,5.5385,5.5482,5.5871,5.628,5.6544,5.6544,5.6664,5.6784,5.6784,5.6664,5.6544,5.6544,5.6544,5.6544,5.6544,5.6688,5.6784,5.6784,5.6905,5.7001,5.7001,5.7001,5.7001,5.7001,5.7001,5.7001,5.7001,5.7001,5.7001,5.7001,5.7001,5.7001,5.7001,5.7001,5.7001,5.7001,5.7001,5.7001,5.7001,5.6688,5.6544,5.6544,5.6544,5.664,0.0,0.0,0.0,0.0,0.0,0.0,4.7497,4.7666,4.7978,4.8524,4.9053,4.96,5.0136,5.0479,5.0696,5.0696,5.0696,5.0696,5.0696,5.0696,5.0696,5.0696,5.0696,5.0912,5.1459,5.17,5.2181,5.3041,5.3288,5.351,5.3779,5.3803,5.3803,5.3803,5.3803,5.3803,5.3803,5.3803,5.39,5.414,5.4447,5.4736,5.4952,5.5506,5.5727,5.5746,5.5987,5.6083,5.6083,5.6083,5.5794,5.5385,5.5385,5.5385,5.5385,5.5385,5.5385,5.5385,5.5385,5.5385,5.5385,5.5385,5.5554,5.5727,5.5727,5.589,5.6083,5.6083,5.6083,5.6135,5.6448,5.6784,5.7001,5.7001,5.7001,5.7001,5.7001,5.7001,5.7001,5.7001,5.7001,5.7001,5.7001,5.7001,5.7001,5.7001,5.7001,5.7001,5.7001,5.7001,5.7001,5.7001,5.7001,5.7001,5.7001,5.7001,5.7001,5.7001,5.7001,5.7001,5.7001,5.7001,5.7001,5.7001,5.7001,5.7001,5.7001,5.7001,5.7001,5.7001,5.7001,5.7001,0.0,0.0,0.0,0.0,0.0,0.0,4.7593,4.8002,4.8548,4.9078,4.9576,5.0064,5.06,5.0696,5.0696,5.0696,5.0696,5.0696,5.0696,5.0696,5.0696,5.0696,5.0696,5.0936,5.1513,5.2013,5.2542,5.3119,5.3558,5.3803,5.3803,5.3803,5.3803,5.3803,5.3803,5.3803,5.3803,5.3851,5.4116,5.4616,5.4717,5.5049,5.5506,5.6039,5.6284,5.6328,5.6784,5.7001,5.7001,5.7001,5.6444,5.5578,5.5578,5.5578,5.5578,5.5578,5.5578,5.5578,5.5578,5.5578,5.5578,5.5578,5.5895,5.6284,5.6284,5.664,5.7001,5.7001,5.7001,5.7001,5.7001,5.7001,5.7001,5.7001,5.7001,5.7001,5.7001,5.7001,5.7001,5.7001,5.7001,5.7001,5.7001,5.7001,5.7001,5.7001,5.7001,5.7001,5.7001,5.7001,5.7001,5.7001,5.7001,5.7001,5.7001,5.7001,5.7001,5.7001,5.7001,5.7001,5.7001,5.7001,5.7001,5.7001,5.7001,5.7001,5.7001,5.7001,5.7001,5.7001,5.7001,5.7001,0.0,0.0,0.0,0.0,0.0,0.0,4.8122,4.8572,4.9102,4.9631,4.9841,5.0064,5.06,5.0696,5.0696,5.0696,5.0696,5.0696,5.0696,5.0696,5.0696,5.0696,5.0696,5.1081,5.2061,5.2229,5.2686,5.3606,5.3755,5.3803,5.3803,5.3803,5.3803,5.3803,5.3803,5.3803,5.3803,5.4236,5.4496,5.4616,5.5486,5.5943,5.6063,5.6592,5.6833,5.6857,5.6953,5.7001,5.7001,5.7001,5.6881,5.6688,5.6688,5.6688,5.6688,5.6688,5.6688,5.6688,5.6688,5.6688,5.6688,5.6688,5.676,5.6833,5.6833,5.6929,5.7001,5.7001,5.7001,5.7001,5.7001,5.7001,5.7001,5.7001,5.7001,5.7001,5.7001,5.7001,5.7001,5.7001,5.7001,5.7001,5.7001,5.7001,5.7001,5.7001,5.7001,5.7001,5.7001,5.7001,5.7001,5.7001,5.7001,5.7001,5.7001,5.7001,5.7001,5.7001,5.7001,5.7001,5.7001,5.7001,5.7001,5.7001,5.7001,5.7001,5.7001,5.7001,5.7001,5.7001,5.7001,5.7001,0.0,0.0,0.0,4.8308,0.0,0.0,0.0,4.9102,4.9576,4.9841,5.0112,5.0377,5.0648,5.0696,5.0696,5.0696,5.0696,5.0696,5.0696,5.0696,5.0696,5.0696,5.0696,5.1129,5.2205,5.2301,5.2716,5.3731,5.3803,5.3803,5.3803,5.3803,5.3803,5.3803,5.3803,5.3924,5.4188,5.4471,5.488,5.5414,5.5943,5.6332,5.6616,5.6881,5.7001,5.7001,5.7001,5.7001,5.7001,5.7001,5.7001,5.7001,5.7001,5.7001,5.7001,5.7001,5.7001,5.7001,5.7001,5.7001,5.7001,5.7001,5.7001,5.7001,5.7001,5.7001,5.7001,5.7001,5.7001,5.7001,5.7001,5.7001,5.7001,5.7001,5.7001,5.7001,5.7001,5.7001,5.7001,5.7001,5.7001,5.7001,5.7001,5.7001,5.7001,5.7001,5.7001,5.7001,5.7001,5.7001,5.7001,5.7001,5.7001,5.7001,5.7001,5.7001,5.7001,5.7001,5.7001,5.7001,5.7001,5.7001,5.7001,5.7001,5.7001,5.7001,5.7001,5.7001,5.7001,5.7001,5.7001,5.7001,0.0,0.0,0.0,0.0,0.0,4.9246,0.0,0.0,0.0,5.004,5.0401,5.0696,5.0696,5.0696,5.0696,5.0696,5.0696,5.0696,5.0696,5.0696,5.0696,5.0696,5.0696,5.1129,5.2205,5.247,5.2932,5.3731,5.3803,5.3803,5.3803,5.3803,5.3803,5.3803,5.3803,5.4044,5.4592,5.4712,5.5222,5.6188,5.6284,5.6592,5.7001,5.7001,5.7001,5.7001,5.7001,5.7001,5.7001,5.7001,5.7001,5.7001,5.7001,5.7001,5.7001,5.7001,5.7001,5.7001,5.7001,5.7001,5.7001,5.7001,5.7001,5.7001,5.7001,5.7001,5.7001,5.7001,5.7001,5.7001,5.7001,5.7001,5.6981,5.6901,5.6881,5.6861,5.6782,5.6821,5.6881,5.6881,5.6941,5.7001,5.7001,5.7001,5.7001,5.7001,5.7001,5.6953,5.6857,5.6857,5.6808,5.6688,5.6688,5.6688,5.6688,5.6688,5.6688,5.6688,5.6688,5.6688,5.6688,5.6688,5.6688,5.6688,5.6688,5.6688,5.6688,5.6808,5.6905,5.7001,5.7001,5.7001,0.0,0.0,0.0,0.0,4.9456,0.0,0.0,0.0,5.06,5.06,0.0,5.0696,5.0696,0.0,0.0,5.0696,5.0696,5.0696,5.0696,5.0696,5.0696,5.0696,5.0696,5.1129,5.2205,5.3101,5.3683,5.3803,5.3803,5.3803,5.3803,5.3803,5.3803,5.3803,5.3803,5.4044,5.4592,5.5073,5.5626,5.6212,5.6688,5.6953,5.7001,5.7001,5.7001,5.7001,5.7001,5.7001,5.7001,5.7001,5.7001,5.7001,5.7001,5.7001,5.7001,5.7001,5.7001,5.7001,5.7001,5.7001,5.7001,5.7001,5.7001,5.7001,5.7001,5.7001,5.7001,5.7001,5.7001,5.7001,5.7001,5.7001,5.6901,5.6542,5.6486,5.6342,5.5956,5.6157,5.6486,5.6486,5.6762,5.7001,5.7001,5.7001,5.7001,5.7001,5.7001,5.6833,5.6332,5.6284,5.6111,5.5626,5.5578,5.5578,5.5578,5.5578,5.5578,5.5578,5.5578,5.5578,5.5578,5.5578,5.5578,5.5578,5.5578,5.5578,5.5578,5.6063,5.6544,5.7001,5.7001,5.7001,0.0,0.0,0.0,0.0,0.0,0.0,5.0359,0.0,5.0696,0.0,0.0,0.0,0.0,0.0,0.0,0.0,5.0696,5.0696,5.0696,5.0696,5.0696,5.0696,5.0696,5.1129,5.2205,5.3221,5.3803,5.3803,5.3803,5.3803,5.3803,5.3803,5.3803,5.3803,5.3803,5.4212,5.5049,5.5289,5.5842,5.6664,5.6905,5.7001,5.7001,5.7001,5.7001,5.7001,5.7001,5.7001,5.7001,5.7001,5.7001,5.7001,5.7001,5.7001,5.7001,5.7001,5.7001,5.7001,5.7001,5.7001,5.7001,5.7001,5.7001,5.7001,5.7001,5.7001,5.7001,5.7001,5.7001,5.7001,5.7001,5.7001,5.6901,5.6506,5.6405,5.6261,5.5792,5.6057,5.6405,5.6405,5.6463,5.6544,5.6544,5.6544,5.6544,5.6544,5.628,5.5987,5.5751,5.5746,5.565,5.5409,5.5385,5.5385,5.5385,5.5385,5.5385,5.5385,5.5385,5.5385,5.5385,5.5385,5.5385,5.5385,5.5385,5.5385,5.5385,5.5626,5.5847,5.6083,5.6712,5.7001,5.227,0.0,0.0,0.0,0.0,0.0,0.0,0.0,0.0,0.0,0.0,0.0,0.0,0.0,0.0,0.0,0.0,5.0696,5.0696,5.0696,5.0696,5.0696,5.096,5.1441,5.2229,5.3221,5.3803,5.3803,5.3803,5.3803,5.3803,5.3803,5.3803,5.3803,5.3948,5.4452,5.5385,5.5554,5.6087,5.7001,5.7001,5.7001,5.7001,5.7001,5.7001,5.7001,5.7001,5.7001,5.7001,5.7001,5.7001,5.7001,5.7001,5.7001,5.7001,5.7001,5.7001,5.7001,5.7001,5.7001,5.7001,5.7001,5.7001,5.7001,5.7001,5.7001,5.7001,5.7001,5.7001,5.7001,5.7001,5.7001,5.6861,5.6342,5.6201,5.606,5.5469,5.5678,5.5988,5.5988,5.5977,5.5991,5.5991,5.5991,5.5991,5.5991,5.565,5.5337,5.5193,5.5193,5.5121,5.4977,5.4952,5.4952,5.4952,5.4952,5.4952,5.4952,5.4952,5.4952,5.4952,5.4952,5.4952,5.4952,5.4952,5.4952,5.4952,5.5121,5.5193,5.5217,5.628,5.6784,0.0,0.0,0.0,5.1306,0.0,0.0,0.0,0.0,5.0696,0.0,0.0,0.0,0.0,0.0,0.0,0.0,0.0,0.0,0.0,5.0696,5.0696,5.0696,5.1628,5.2253,5.2301,5.3221,5.3803,5.3803,5.3803,5.3803,5.3803,5.3803,5.3803,5.3803,5.4284,5.4832,5.5385,5.5919,5.6448,5.7001,5.7001,5.7001,5.7001,5.7001,5.7001,5.7001,5.7001,5.7001,5.7001,5.7001,5.7001,5.7001,5.7001,5.7001,5.7001,5.7001,5.7001,5.7001,5.7001,5.7001,5.7001,5.7001,5.7001,5.7001,5.7001,5.7001,5.7001,5.7001,5.7001,5.7001,5.7001,5.7001,5.6782,5.5936,5.5711,5.549,5.464,5.4713,5.4939,5.4939,5.5208,5.5433,5.5433,5.5433,5.5433,5.5433,5.5409,5.5217,5.4669,5.464,5.4447,5.39,5.3851,5.3851,5.3851,5.3851,5.3851,5.3851,5.3851,5.3851,5.3851,5.3851,5.3851,5.3851,5.3851,5.3851,5.3851,5.4356,5.464,5.4645,5.5727,5.6231,0.0,0.0,5.3233,5.3091,0.0,0.0,0.0,0.0,0.0,0.0,0.0,0.0,0.0,0.0,0.0,0.0,0.0,0.0,0.0,5.1225,5.1225,5.1225,5.1868,5.2446,5.2782,5.3413,5.3803,5.3803,5.3803,5.3803,5.3803,5.3803,5.3803,5.3803,5.4308,5.4856,5.5385,5.5943,5.6452,5.7001,5.7001,5.7001,5.7001,5.7001,5.7001,5.7001,5.7001,5.7001,5.7001,5.7001,5.7001,5.7001,5.7001,5.7001,5.7001,5.7001,5.7001,5.7001,5.7001,5.7001,5.7001,5.7001,5.7001,5.7001,5.7001,5.7001,5.7001,5.7001,5.7001,5.7001,5.7001,5.7001,5.6861,5.6301,5.6161,5.5882,5.4948,5.5057,5.5257,5.4906,5.4855,5.488,5.488,5.4592,5.4452,5.4832,5.4568,5.4279,5.4092,5.4068,5.3996,5.3827,5.3803,5.3803,5.3803,5.3803,5.3803,5.3803,5.3803,5.3948,5.4308,5.4332,5.4496,5.4856,5.4856,5.4856,5.4856,5.5049,5.5121,5.5145,5.5871,5.6015,5.4597,5.4402,0.0,5.4028,5.3634,0.0,5.2949,0.0,0.0,0.0,0.0,0.0,0.0,0.0,0.0,0.0,0.0,0.0,0.0,5.1778,5.1868,5.2037,5.2373,5.271,5.3066,5.3534,5.3803,5.3803,5.3803,5.3803,5.3803,5.3803,5.39,5.4068,5.4597,5.5145,5.5698,5.6231,5.6664,5.7001,5.7001,5.7001,5.7001,5.7001,5.7001,5.7001,5.7001,5.7001,5.7001,5.7001,5.7001,5.7001,5.7001,5.7001,5.7001,5.7001,5.7001,5.7001,5.7001,5.7001,5.7001,5.7001,5.7001,5.7001,5.7001,5.7001,5.7001,5.7001,5.7001,5.7001,5.7001,5.7001,5.6901,5.6506,5.6239,5.5882,5.5089,5.4969,5.4927,5.4574,5.4401,5.4327,5.4327,5.402,5.3924,5.426,5.402,5.3803,5.3803,5.3803,5.3803,5.3803,5.3803,5.3803,5.3803,5.3803,5.3803,5.3803,5.3972,5.4236,5.4592,5.4784,5.5049,5.5385,5.5385,5.5385,5.5385,5.5385,5.5385,5.5409,5.5751,5.5746]}]]